Wetterdaten: Montag, 30.05.2016
Datum Zeit Temp. A. Feuchte A. Luftdruck Regen Wind Richtung Richtung Sonnenschein ET UV Solar Taupunkt Windchill Windben Empfang
30.05.2016 00:00 18,0 C 77 % 1003,1 hPa 0,0 l/m 13,8 km/h (3 Bft) W 265 0 min 0,000 mm 0,0 UV-I 0 W/m 13,9 C 15,2 C 20,9 km/h (4 Bft) 100,00 %
30.05.2016 00:02 17,9 C 77 % 1003,1 hPa 0,0 l/m 11,3 km/h (2 Bft) W 279 0 min 0,000 mm 0,0 UV-I 0 W/m 13,8 C 15,8 C 11,3 km/h (2 Bft) 100,00 %
30.05.2016 00:03 17,9 C 77 % 1003,1 hPa 0,0 l/m 12,1 km/h (2 Bft) W-SW 248 0 min 0,000 mm 0,0 UV-I 0 W/m 13,8 C 15,6 C 17,7 km/h (3 Bft) 100,00 %
30.05.2016 00:04 17,9 C 77 % 1003,1 hPa 0,0 l/m 9,4 km/h (2 Bft) W 277 0 min 0,000 mm 0,0 UV-I 0 W/m 13,8 C 16,6 C 17,7 km/h (3 Bft) 95,83 %
30.05.2016 00:05 17,8 C 77 % 1003,1 hPa 0,0 l/m 9,1 km/h (2 Bft) SW 221 0 min 0,000 mm 0,0 UV-I 0 W/m 13,7 C 16,6 C 19,3 km/h (3 Bft) 95,83 %
30.05.2016 00:06 17,8 C 77 % 1003,2 hPa 0,0 l/m 8,1 km/h (2 Bft) S-SW 202 0 min 0,000 mm 0,0 UV-I 0 W/m 13,7 C 17,0 C 12,9 km/h (3 Bft) 100,00 %
30.05.2016 00:07 17,8 C 78 % 1003,3 hPa 0,0 l/m 11,5 km/h (2 Bft) W-SW 246 0 min 0,000 mm 0,0 UV-I 0 W/m 13,9 C 15,7 C 17,7 km/h (3 Bft) 100,00 %
30.05.2016 00:08 17,8 C 78 % 1003,3 hPa 0,0 l/m 8,3 km/h (2 Bft) W-SW 246 0 min 0,000 mm 0,0 UV-I 0 W/m 13,9 C 16,9 C 14,5 km/h (3 Bft) 100,00 %
30.05.2016 00:09 17,7 C 78 % 1003,3 hPa 0,0 l/m 7,6 km/h (2 Bft) W 263 0 min 0,000 mm 0,0 UV-I 0 W/m 13,8 C 17,1 C 11,3 km/h (2 Bft) 100,00 %
30.05.2016 00:10 17,7 C 78 % 1003,3 hPa 0,0 l/m 7,0 km/h (2 Bft) W 269 0 min 0,000 mm 0,0 UV-I 0 W/m 13,8 C 17,4 C 12,9 km/h (3 Bft) 100,00 %
30.05.2016 00:11 17,7 C 78 % 1003,3 hPa 0,0 l/m 9,1 km/h (2 Bft) W-SW 243 0 min 0,000 mm 0,0 UV-I 0 W/m 13,8 C 16,5 C 19,3 km/h (3 Bft) 100,00 %
30.05.2016 00:12 17,6 C 79 % 1003,3 hPa 0,0 l/m 13,1 km/h (3 Bft) W-SW 245 0 min 0,000 mm 0,0 UV-I 0 W/m 13,9 C 14,9 C 20,9 km/h (4 Bft) 100,00 %
30.05.2016 00:13 17,6 C 79 % 1003,3 hPa 0,0 l/m 10,3 km/h (2 Bft) W 277 0 min 0,000 mm 0,0 UV-I 0 W/m 13,9 C 15,9 C 17,7 km/h (3 Bft) 100,00 %
30.05.2016 00:14 17,6 C 79 % 1003,3 hPa 0,0 l/m 10,9 km/h (2 Bft) SW 229 0 min 0,000 mm 0,0 UV-I 0 W/m 13,9 C 15,7 C 16,1 km/h (3 Bft) 100,00 %
30.05.2016 00:15 17,5 C 79 % 1003,3 hPa 0,0 l/m 12,4 km/h (3 Bft) SW 228 0 min 0,000 mm 0,0 UV-I 0 W/m 13,8 C 15,0 C 16,1 km/h (3 Bft) 100,00 %
30.05.2016 00:16 17,5 C 79 % 1003,3 hPa 0,0 l/m 7,6 km/h (2 Bft) W-SW 241 0 min 0,000 mm 0,0 UV-I 0 W/m 13,8 C 16,9 C 12,9 km/h (3 Bft) 100,00 %
30.05.2016 00:17 17,4 C 79 % 1003,3 hPa 0,0 l/m 9,7 km/h (2 Bft) SW 227 0 min 0,000 mm 0,0 UV-I 0 W/m 13,7 C 15,9 C 17,7 km/h (3 Bft) 100,00 %
30.05.2016 00:18 17,4 C 80 % 1003,3 hPa 0,0 l/m 9,8 km/h (2 Bft) W 263 0 min 0,000 mm 0,0 UV-I 0 W/m 13,9 C 15,8 C 14,5 km/h (3 Bft) 100,00 %
30.05.2016 00:19 17,3 C 80 % 1003,3 hPa 0,0 l/m 9,9 km/h (2 Bft) NW 309 0 min 0,000 mm 0,0 UV-I 0 W/m 13,8 C 15,7 C 12,9 km/h (3 Bft) 100,00 %
30.05.2016 00:20 17,3 C 80 % 1003,3 hPa 0,0 l/m 6,8 km/h (2 Bft) W 259 0 min 0,000 mm 0,0 UV-I 0 W/m 13,8 C 17,1 C 9,7 km/h (2 Bft) 100,00 %
30.05.2016 00:21 17,3 C 80 % 1003,3 hPa 0,0 l/m 9,7 km/h (2 Bft) W-SW 248 0 min 0,000 mm 0,0 UV-I 0 W/m 13,8 C 15,8 C 16,1 km/h (3 Bft) 95,83 %
30.05.2016 00:22 17,3 C 80 % 1003,3 hPa 0,0 l/m 10,7 km/h (2 Bft) SW 228 0 min 0,000 mm 0,0 UV-I 0 W/m 13,8 C 15,4 C 14,5 km/h (3 Bft) 100,00 %
30.05.2016 00:23 17,2 C 81 % 1003,3 hPa 0,0 l/m 7,2 km/h (2 Bft) W-SW 248 0 min 0,000 mm 0,0 UV-I 0 W/m 13,9 C 16,8 C 11,3 km/h (2 Bft) 100,00 %
30.05.2016 00:24 17,2 C 81 % 1003,3 hPa 0,0 l/m 9,8 km/h (2 Bft) W-SW 254 0 min 0,000 mm 0,0 UV-I 0 W/m 13,9 C 15,6 C 12,9 km/h (3 Bft) 100,00 %
30.05.2016 00:25 17,2 C 81 % 1003,3 hPa 0,0 l/m 9,2 km/h (2 Bft) W-NW 286 0 min 0,000 mm 0,0 UV-I 0 W/m 13,9 C 15,9 C 12,9 km/h (3 Bft) 100,00 %
30.05.2016 00:26 17,1 C 81 % 1003,3 hPa 0,0 l/m 11,3 km/h (2 Bft) W-SW 250 0 min 0,000 mm 0,0 UV-I 0 W/m 13,8 C 14,9 C 17,7 km/h (3 Bft) 100,00 %
30.05.2016 00:27 17,1 C 81 % 1003,2 hPa 0,0 l/m 7,5 km/h (2 Bft) W-SW 254 0 min 0,000 mm 0,0 UV-I 0 W/m 13,8 C 16,5 C 11,3 km/h (2 Bft) 100,00 %
30.05.2016 00:28 17,1 C 81 % 1003,2 hPa 0,0 l/m 10,9 km/h (2 Bft) W-SW 257 0 min 0,000 mm 0,0 UV-I 0 W/m 13,8 C 15,1 C 17,7 km/h (3 Bft) 100,00 %
30.05.2016 00:29 17,1 C 81 % 1003,2 hPa 0,0 l/m 9,6 km/h (2 Bft) W-SW 252 0 min 0,000 mm 0,0 UV-I 0 W/m 13,8 C 15,6 C 16,1 km/h (3 Bft) 100,00 %
30.05.2016 00:30 17,1 C 82 % 1003,2 hPa 0,0 l/m 11,0 km/h (2 Bft) W-SW 258 0 min 0,000 mm 0,0 UV-I 0 W/m 14,0 C 15,1 C 17,7 km/h (3 Bft) 100,00 %
30.05.2016 00:31 17,0 C 82 % 1003,2 hPa 0,0 l/m 6,6 km/h (2 Bft) W-SW 245 0 min 0,000 mm 0,0 UV-I 0 W/m 13,9 C 16,9 C 9,7 km/h (2 Bft) 100,00 %
30.05.2016 00:32 17,0 C 82 % 1003,3 hPa 0,0 l/m 8,3 km/h (2 Bft) W-SW 252 0 min 0,000 mm 0,0 UV-I 0 W/m 13,9 C 16,1 C 17,7 km/h (3 Bft) 95,83 %
30.05.2016 00:33 16,9 C 82 % 1003,3 hPa 0,0 l/m 10,0 km/h (2 Bft) W-SW 240 0 min 0,000 mm 0,0 UV-I 0 W/m 13,8 C 15,2 C 17,7 km/h (3 Bft) 100,00 %
30.05.2016 00:34 16,9 C 82 % 1003,3 hPa 0,0 l/m 9,6 km/h (2 Bft) W-SW 249 0 min 0,000 mm 0,0 UV-I 0 W/m 13,8 C 15,4 C 17,7 km/h (3 Bft) 100,00 %
30.05.2016 00:35 16,9 C 82 % 1003,4 hPa 0,0 l/m 12,4 km/h (3 Bft) W-SW 245 0 min 0,000 mm 0,0 UV-I 0 W/m 13,8 C 14,3 C 16,1 km/h (3 Bft) 100,00 %
30.05.2016 00:36 16,9 C 82 % 1003,3 hPa 0,0 l/m 10,5 km/h (2 Bft) W-SW 246 0 min 0,000 mm 0,0 UV-I 0 W/m 13,8 C 15,0 C 17,7 km/h (3 Bft) 100,00 %
30.05.2016 00:37 16,9 C 82 % 1003,3 hPa 0,0 l/m 11,4 km/h (2 Bft) SW 236 0 min 0,000 mm 0,0 UV-I 0 W/m 13,8 C 14,7 C 14,5 km/h (3 Bft) 100,00 %
30.05.2016 00:38 16,8 C 82 % 1003,3 hPa 0,0 l/m 8,1 km/h (2 Bft) W-SW 246 0 min 0,000 mm 0,0 UV-I 0 W/m 13,7 C 15,9 C 12,9 km/h (3 Bft) 100,00 %
30.05.2016 00:39 16,8 C 82 % 1003,4 hPa 0,0 l/m 7,0 km/h (2 Bft) SW 227 0 min 0,000 mm 0,0 UV-I 0 W/m 13,7 C 16,5 C 9,7 km/h (2 Bft) 100,00 %
30.05.2016 00:40 16,8 C 82 % 1003,4 hPa 0,0 l/m 6,7 km/h (2 Bft) SW 234 0 min 0,000 mm 0,0 UV-I 0 W/m 13,7 C 16,7 C 9,7 km/h (2 Bft) 100,00 %
30.05.2016 00:41 16,7 C 83 % 1003,4 hPa 0,0 l/m 6,0 km/h (2 Bft) W-SW 255 0 min 0,000 mm 0,0 UV-I 0 W/m 13,8 C 16,7 C 9,7 km/h (2 Bft) 100,00 %
30.05.2016 00:42 16,7 C 83 % 1003,4 hPa 0,0 l/m 6,2 km/h (2 Bft) W-SW 248 0 min 0,000 mm 0,0 UV-I 0 W/m 13,8 C 16,7 C 9,7 km/h (2 Bft) 95,65 %
30.05.2016 00:43 16,7 C 83 % 1003,4 hPa 0,0 l/m 8,5 km/h (2 Bft) W-SW 254 0 min 0,000 mm 0,0 UV-I 0 W/m 13,8 C 15,6 C 12,9 km/h (3 Bft) 100,00 %
30.05.2016 00:44 16,6 C 83 % 1003,4 hPa 0,0 l/m 7,4 km/h (2 Bft) W-SW 238 0 min 0,000 mm 0,0 UV-I 0 W/m 13,7 C 16,1 C 11,3 km/h (2 Bft) 100,00 %
30.05.2016 00:45 16,6 C 83 % 1003,4 hPa 0,0 l/m 6,6 km/h (2 Bft) SW 236 0 min 0,000 mm 0,0 UV-I 0 W/m 13,7 C 16,5 C 9,7 km/h (2 Bft) 100,00 %
30.05.2016 00:46 16,6 C 84 % 1003,4 hPa 0,0 l/m 5,6 km/h (1 Bft) W-SW 256 0 min 0,000 mm 0,0 UV-I 0 W/m 13,9 C 16,6 C 6,4 km/h (2 Bft) 100,00 %
30.05.2016 00:47 16,5 C 84 % 1003,4 hPa 0,0 l/m 6,2 km/h (2 Bft) W-SW 253 0 min 0,000 mm 0,0 UV-I 0 W/m 13,8 C 16,5 C 9,7 km/h (2 Bft) 100,00 %
30.05.2016 00:48 16,4 C 84 % 1003,3 hPa 0,0 l/m 6,6 km/h (2 Bft) W-SW 241 0 min 0,000 mm 0,0 UV-I 0 W/m 13,7 C 16,3 C 9,7 km/h (2 Bft) 100,00 %
30.05.2016 00:49 16,4 C 84 % 1003,3 hPa 0,0 l/m 5,9 km/h (2 Bft) W-SW 254 0 min 0,000 mm 0,0 UV-I 0 W/m 13,7 C 16,4 C 11,3 km/h (2 Bft) 100,00 %
30.05.2016 00:50 16,4 C 84 % 1003,4 hPa 0,0 l/m 6,8 km/h (2 Bft) W-SW 245 0 min 0,000 mm 0,0 UV-I 0 W/m 13,7 C 16,2 C 9,7 km/h (2 Bft) 100,00 %
30.05.2016 00:51 16,4 C 85 % 1003,4 hPa 0,0 l/m 6,4 km/h (2 Bft) W 270 0 min 0,000 mm 0,0 UV-I 0 W/m 13,9 C 16,4 C 12,9 km/h (3 Bft) 100,00 %
30.05.2016 00:52 16,4 C 85 % 1003,3 hPa 0,0 l/m 5,2 km/h (1 Bft) W-SW 254 0 min 0,000 mm 0,0 UV-I 0 W/m 13,9 C 16,4 C 6,4 km/h (2 Bft) 95,65 %
30.05.2016 00:53 16,3 C 85 % 1003,3 hPa 0,0 l/m 4,9 km/h (1 Bft) W 259 0 min 0,000 mm 0,0 UV-I 0 W/m 13,8 C 16,3 C 6,4 km/h (2 Bft) 100,00 %
30.05.2016 00:54 16,3 C 85 % 1003,4 hPa 0,0 l/m 4,4 km/h (1 Bft) W-SW 257 0 min 0,000 mm 0,0 UV-I 0 W/m 13,8 C 16,3 C 6,4 km/h (2 Bft) 95,65 %
30.05.2016 00:55 16,3 C 85 % 1003,3 hPa 0,0 l/m 4,2 km/h (1 Bft) W-SW 257 0 min 0,000 mm 0,0 UV-I 0 W/m 13,8 C 16,3 C 4,8 km/h (1 Bft) 100,00 %
30.05.2016 00:56 16,3 C 85 % 1003,3 hPa 0,0 l/m 4,6 km/h (1 Bft) W-SW 252 0 min 0,000 mm 0,0 UV-I 0 W/m 13,8 C 16,3 C 4,8 km/h (1 Bft) 100,00 %
30.05.2016 00:57 16,2 C 85 % 1003,3 hPa 0,0 l/m 5,3 km/h (1 Bft) W-SW 252 0 min 0,000 mm 0,0 UV-I 0 W/m 13,7 C 16,2 C 6,4 km/h (2 Bft) 100,00 %
30.05.2016 00:58 16,2 C 85 % 1003,3 hPa 0,0 l/m 6,0 km/h (2 Bft) SW 236 0 min 0,000 mm 0,0 UV-I 0 W/m 13,7 C 16,2 C 8,0 km/h (2 Bft) 100,00 %
30.05.2016 00:59 16,1 C 85 % 1003,3 hPa 0,0 l/m 5,7 km/h (1 Bft) W-SW 242 0 min 0,000 mm 0,0 UV-I 0 W/m 13,6 C 16,1 C 8,0 km/h (2 Bft) 100,00 %
30.05.2016 01:00 16,1 C 86 % 1003,3 hPa 0,0 l/m 5,4 km/h (1 Bft) W-SW 255 0 min 0,025 mm 0,0 UV-I 0 W/m 13,8 C 16,1 C 6,4 km/h (2 Bft) 100,00 %
30.05.2016 01:02 16,1 C 86 % 1003,3 hPa 0,0 l/m 6,3 km/h (2 Bft) SW 227 0 min 0,000 mm 0,0 UV-I 0 W/m 13,8 C 16,1 C 11,3 km/h (2 Bft) 97,87 %
30.05.2016 01:03 16,0 C 86 % 1003,3 hPa 0,0 l/m 6,1 km/h (2 Bft) W-SW 238 0 min 0,000 mm 0,0 UV-I 0 W/m 13,7 C 16,0 C 8,0 km/h (2 Bft) 100,00 %
30.05.2016 01:04 16,0 C 86 % 1003,3 hPa 0,0 l/m 6,3 km/h (2 Bft) W-SW 246 0 min 0,000 mm 0,0 UV-I 0 W/m 13,7 C 16,0 C 8,0 km/h (2 Bft) 100,00 %
30.05.2016 01:05 15,9 C 86 % 1003,2 hPa 0,0 l/m 6,7 km/h (2 Bft) W-SW 240 0 min 0,000 mm 0,0 UV-I 0 W/m 13,6 C 15,7 C 9,7 km/h (2 Bft) 95,65 %
30.05.2016 01:06 15,9 C 87 % 1003,2 hPa 0,0 l/m 6,8 km/h (2 Bft) W-SW 248 0 min 0,000 mm 0,0 UV-I 0 W/m 13,7 C 15,7 C 9,7 km/h (2 Bft) 100,00 %
30.05.2016 01:07 15,9 C 87 % 1003,2 hPa 0,0 l/m 6,2 km/h (2 Bft) W-SW 244 0 min 0,000 mm 0,0 UV-I 0 W/m 13,7 C 15,9 C 8,0 km/h (2 Bft) 100,00 %
30.05.2016 01:08 15,9 C 87 % 1003,1 hPa 0,0 l/m 6,4 km/h (2 Bft) W-SW 252 0 min 0,000 mm 0,0 UV-I 0 W/m 13,7 C 15,9 C 11,3 km/h (2 Bft) 100,00 %
30.05.2016 01:09 15,8 C 87 % 1003,1 hPa 0,0 l/m 9,1 km/h (2 Bft) W-SW 246 0 min 0,000 mm 0,0 UV-I 0 W/m 13,6 C 14,4 C 12,9 km/h (3 Bft) 91,30 %
30.05.2016 01:10 15,8 C 87 % 1003,1 hPa 0,0 l/m 9,2 km/h (2 Bft) W 268 0 min 0,000 mm 0,0 UV-I 0 W/m 13,6 C 14,4 C 12,9 km/h (3 Bft) 100,00 %
30.05.2016 01:11 15,8 C 87 % 1003,1 hPa 0,0 l/m 8,8 km/h (2 Bft) W-SW 238 0 min 0,000 mm 0,0 UV-I 0 W/m 13,6 C 14,5 C 11,3 km/h (2 Bft) 91,30 %
30.05.2016 01:12 15,8 C 87 % 1003,1 hPa 0,0 l/m 9,4 km/h (2 Bft) W-SW 254 0 min 0,000 mm 0,0 UV-I 0 W/m 13,6 C 14,3 C 11,3 km/h (2 Bft) 95,83 %
30.05.2016 01:13 15,8 C 87 % 1003,1 hPa 0,0 l/m 9,8 km/h (2 Bft) W-SW 249 0 min 0,000 mm 0,0 UV-I 0 W/m 13,6 C 14,1 C 14,5 km/h (3 Bft) 100,00 %
30.05.2016 01:14 15,8 C 87 % 1003,1 hPa 0,0 l/m 8,7 km/h (2 Bft) W-SW 247 0 min 0,000 mm 0,0 UV-I 0 W/m 13,6 C 14,6 C 11,3 km/h (2 Bft) 95,83 %
30.05.2016 01:15 15,8 C 87 % 1003,1 hPa 0,0 l/m 9,4 km/h (2 Bft) W-SW 258 0 min 0,000 mm 0,0 UV-I 0 W/m 13,6 C 14,3 C 12,9 km/h (3 Bft) 100,00 %
30.05.2016 01:16 15,8 C 87 % 1003,1 hPa 0,0 l/m 10,8 km/h (2 Bft) W 259 0 min 0,000 mm 0,0 UV-I 0 W/m 13,6 C 13,7 C 12,9 km/h (3 Bft) 95,83 %
30.05.2016 01:17 15,8 C 87 % 1003,1 hPa 0,0 l/m 9,1 km/h (2 Bft) W 259 0 min 0,000 mm 0,0 UV-I 0 W/m 13,6 C 14,4 C 12,9 km/h (3 Bft) 100,00 %
30.05.2016 01:18 15,8 C 87 % 1003,1 hPa 0,0 l/m 9,9 km/h (2 Bft) W 274 0 min 0,000 mm 0,0 UV-I 0 W/m 13,6 C 14,0 C 12,9 km/h (3 Bft) 91,67 %
30.05.2016 01:19 15,8 C 87 % 1003,1 hPa 0,0 l/m 10,0 km/h (2 Bft) W-SW 252 0 min 0,000 mm 0,0 UV-I 0 W/m 13,6 C 14,0 C 14,5 km/h (3 Bft) 100,00 %
30.05.2016 01:20 15,8 C 87 % 1003,1 hPa 0,0 l/m 8,8 km/h (2 Bft) SW 234 0 min 0,000 mm 0,0 UV-I 0 W/m 13,6 C 14,5 C 12,9 km/h (3 Bft) 96,15 %
30.05.2016 01:21 15,7 C 87 % 1003,1 hPa 0,0 l/m 7,9 km/h (2 Bft) SW 236 0 min 0,000 mm 0,0 UV-I 0 W/m 13,5 C 14,9 C 9,7 km/h (2 Bft) 95,83 %
30.05.2016 01:22 15,7 C 87 % 1003,1 hPa 0,0 l/m 8,6 km/h (2 Bft) W-SW 238 0 min 0,000 mm 0,0 UV-I 0 W/m 13,5 C 14,5 C 12,9 km/h (3 Bft) 100,00 %
30.05.2016 01:23 15,7 C 87 % 1003,1 hPa 0,0 l/m 8,4 km/h (2 Bft) SW 234 0 min 0,000 mm 0,0 UV-I 0 W/m 13,5 C 14,6 C 11,3 km/h (2 Bft) 95,83 %
30.05.2016 01:24 15,7 C 87 % 1003,1 hPa 0,0 l/m 7,7 km/h (2 Bft) W-SW 240 0 min 0,000 mm 0,0 UV-I 0 W/m 13,5 C 15,0 C 11,3 km/h (2 Bft) 95,65 %
30.05.2016 01:25 15,6 C 87 % 1003,2 hPa 0,0 l/m 8,0 km/h (2 Bft) W-SW 241 0 min 0,000 mm 0,0 UV-I 0 W/m 13,4 C 14,7 C 12,9 km/h (3 Bft) 96,30 %
30.05.2016 01:26 15,6 C 87 % 1003,2 hPa 0,0 l/m 7,8 km/h (2 Bft) W-SW 250 0 min 0,000 mm 0,0 UV-I 0 W/m 13,4 C 14,8 C 11,3 km/h (2 Bft) 95,65 %
30.05.2016 01:27 15,6 C 87 % 1003,2 hPa 0,0 l/m 7,3 km/h (2 Bft) W-SW 242 0 min 0,000 mm 0,0 UV-I 0 W/m 13,4 C 15,1 C 11,3 km/h (2 Bft) 95,83 %
30.05.2016 01:28 15,5 C 87 % 1003,1 hPa 0,0 l/m 7,3 km/h (2 Bft) W-SW 239 0 min 0,000 mm 0,0 UV-I 0 W/m 13,3 C 15,0 C 9,7 km/h (2 Bft) 100,00 %
30.05.2016 01:29 15,5 C 88 % 1003,2 hPa 0,0 l/m 8,5 km/h (2 Bft) S-SW 213 0 min 0,000 mm 0,0 UV-I 0 W/m 13,5 C 14,4 C 11,3 km/h (2 Bft) 95,83 %
30.05.2016 01:30 15,4 C 87 % 1003,2 hPa 0,0 l/m 7,6 km/h (2 Bft) SW 236 0 min 0,000 mm 0,0 UV-I 0 W/m 13,2 C 14,7 C 12,9 km/h (3 Bft) 95,65 %
30.05.2016 01:31 15,4 C 87 % 1003,2 hPa 0,0 l/m 7,4 km/h (2 Bft) W-SW 253 0 min 0,000 mm 0,0 UV-I 0 W/m 13,2 C 14,8 C 9,7 km/h (2 Bft) 100,00 %
30.05.2016 01:32 15,4 C 87 % 1003,2 hPa 0,0 l/m 7,0 km/h (2 Bft) SW 236 0 min 0,000 mm 0,0 UV-I 0 W/m 13,2 C 15,1 C 8,0 km/h (2 Bft) 95,65 %
30.05.2016 01:33 15,4 C 87 % 1003,1 hPa 0,0 l/m 7,6 km/h (2 Bft) W-SW 243 0 min 0,000 mm 0,0 UV-I 0 W/m 13,2 C 14,7 C 11,3 km/h (2 Bft) 100,00 %
30.05.2016 01:34 15,4 C 87 % 1003,1 hPa 0,0 l/m 8,0 km/h (2 Bft) W-SW 258 0 min 0,000 mm 0,0 UV-I 0 W/m 13,2 C 14,5 C 11,3 km/h (2 Bft) 95,65 %
30.05.2016 01:35 15,4 C 87 % 1003,1 hPa 0,0 l/m 6,5 km/h (2 Bft) W-SW 250 0 min 0,000 mm 0,0 UV-I 0 W/m 13,2 C 15,4 C 8,0 km/h (2 Bft) 95,83 %
30.05.2016 01:36 15,4 C 88 % 1003,1 hPa 0,0 l/m 6,7 km/h (2 Bft) W-SW 237 0 min 0,000 mm 0,0 UV-I 0 W/m 13,4 C 15,2 C 11,3 km/h (2 Bft) 96,15 %
30.05.2016 01:37 15,3 C 88 % 1003,1 hPa 0,0 l/m 5,9 km/h (2 Bft) W-SW 248 0 min 0,000 mm 0,0 UV-I 0 W/m 13,3 C 15,3 C 8,0 km/h (2 Bft) 95,83 %
30.05.2016 01:38 15,3 C 88 % 1003,1 hPa 0,0 l/m 4,2 km/h (1 Bft) W-SW 248 0 min 0,000 mm 0,0 UV-I 0 W/m 13,3 C 15,3 C 6,4 km/h (2 Bft) 100,00 %
30.05.2016 01:39 15,3 C 88 % 1003,2 hPa 0,0 l/m 5,0 km/h (1 Bft) SW 215 0 min 0,000 mm 0,0 UV-I 0 W/m 13,3 C 15,3 C 6,4 km/h (2 Bft) 95,83 %
30.05.2016 01:40 15,3 C 88 % 1003,2 hPa 0,0 l/m 5,3 km/h (1 Bft) S-SW 207 0 min 0,000 mm 0,0 UV-I 0 W/m 13,3 C 15,3 C 6,4 km/h (2 Bft) 100,00 %
30.05.2016 01:41 15,2 C 88 % 1003,3 hPa 0,0 l/m 5,8 km/h (2 Bft) SW 228 0 min 0,000 mm 0,0 UV-I 0 W/m 13,2 C 15,2 C 8,0 km/h (2 Bft) 91,67 %
30.05.2016 01:42 15,2 C 88 % 1003,3 hPa 0,0 l/m 5,9 km/h (2 Bft) S-SW 205 0 min 0,000 mm 0,0 UV-I 0 W/m 13,2 C 15,2 C 8,0 km/h (2 Bft) 100,00 %
30.05.2016 01:43 15,2 C 88 % 1003,3 hPa 0,0 l/m 5,4 km/h (1 Bft) SW 227 0 min 0,000 mm 0,0 UV-I 0 W/m 13,2 C 15,2 C 8,0 km/h (2 Bft) 96,15 %
30.05.2016 01:44 15,1 C 89 % 1003,3 hPa 0,0 l/m 5,2 km/h (1 Bft) S-SW 205 0 min 0,000 mm 0,0 UV-I 0 W/m 13,3 C 15,1 C 8,0 km/h (2 Bft) 100,00 %
30.05.2016 01:45 15,1 C 89 % 1003,3 hPa 0,0 l/m 5,2 km/h (1 Bft) S-SW 198 0 min 0,000 mm 0,0 UV-I 0 W/m 13,3 C 15,1 C 8,0 km/h (2 Bft) 100,00 %
30.05.2016 01:46 15,1 C 89 % 1003,2 hPa 0,0 l/m 4,3 km/h (1 Bft) W-SW 238 0 min 0,000 mm 0,0 UV-I 0 W/m 13,3 C 15,1 C 6,4 km/h (2 Bft) 100,00 %
30.05.2016 01:47 15,1 C 89 % 1003,2 hPa 0,0 l/m 5,7 km/h (1 Bft) SW 227 0 min 0,000 mm 0,0 UV-I 0 W/m 13,3 C 15,1 C 8,0 km/h (2 Bft) 100,00 %
30.05.2016 01:48 15,1 C 89 % 1003,2 hPa 0,0 l/m 8,0 km/h (2 Bft) W-SW 237 0 min 0,000 mm 0,0 UV-I 0 W/m 13,3 C 14,2 C 9,7 km/h (2 Bft) 95,83 %
30.05.2016 01:49 15,1 C 89 % 1003,2 hPa 0,0 l/m 6,5 km/h (2 Bft) SW 228 0 min 0,000 mm 0,0 UV-I 0 W/m 13,3 C 15,1 C 8,0 km/h (2 Bft) 100,00 %
30.05.2016 01:50 15,1 C 89 % 1003,2 hPa 0,0 l/m 7,3 km/h (2 Bft) SW 224 0 min 0,000 mm 0,0 UV-I 0 W/m 13,3 C 14,6 C 8,0 km/h (2 Bft) 100,00 %
30.05.2016 01:51 15,1 C 89 % 1003,3 hPa 0,0 l/m 8,4 km/h (2 Bft) SW 236 0 min 0,000 mm 0,0 UV-I 0 W/m 13,3 C 14,0 C 9,7 km/h (2 Bft) 100,00 %
30.05.2016 01:52 15,1 C 89 % 1003,3 hPa 0,0 l/m 6,3 km/h (2 Bft) SW 227 0 min 0,000 mm 0,0 UV-I 0 W/m 13,3 C 15,1 C 8,0 km/h (2 Bft) 100,00 %
30.05.2016 01:53 15,1 C 89 % 1003,2 hPa 0,0 l/m 5,7 km/h (1 Bft) W-SW 256 0 min 0,000 mm 0,0 UV-I 0 W/m 13,3 C 15,1 C 8,0 km/h (2 Bft) 100,00 %
30.05.2016 01:54 15,0 C 89 % 1003,2 hPa 0,0 l/m 7,0 km/h (2 Bft) W 271 0 min 0,000 mm 0,0 UV-I 0 W/m 13,2 C 14,7 C 11,3 km/h (2 Bft) 100,00 %
30.05.2016 01:55 15,0 C 89 % 1003,2 hPa 0,0 l/m 5,7 km/h (1 Bft) W-SW 248 0 min 0,000 mm 0,0 UV-I 0 W/m 13,2 C 15,0 C 9,7 km/h (2 Bft) 100,00 %
30.05.2016 01:56 14,9 C 90 % 1003,2 hPa 0,0 l/m 5,7 km/h (1 Bft) SW 234 0 min 0,000 mm 0,0 UV-I 0 W/m 13,3 C 14,9 C 8,0 km/h (2 Bft) 95,83 %
30.05.2016 01:57 14,9 C 90 % 1003,2 hPa 0,0 l/m 6,3 km/h (2 Bft) W-SW 254 0 min 0,000 mm 0,0 UV-I 0 W/m 13,3 C 14,9 C 9,7 km/h (2 Bft) 95,83 %
30.05.2016 01:58 14,9 C 89 % 1003,2 hPa 0,0 l/m 4,2 km/h (1 Bft) W-SW 244 0 min 0,000 mm 0,0 UV-I 0 W/m 13,1 C 14,9 C 6,4 km/h (2 Bft) 95,65 %
30.05.2016 01:59 14,9 C 90 % 1003,3 hPa 0,0 l/m 3,4 km/h (1 Bft) W 270 0 min 0,000 mm 0,0 UV-I 0 W/m 13,3 C 14,9 C 4,8 km/h (1 Bft) 100,00 %
30.05.2016 02:00 14,9 C 90 % 1003,3 hPa 0,0 l/m 2,7 km/h (1 Bft) W 269 0 min 0,026 mm 0,0 UV-I 0 W/m 13,3 C 14,9 C 4,8 km/h (1 Bft) 100,00 %
30.05.2016 02:02 14,8 C 90 % 1003,3 hPa 0,0 l/m 1,5 km/h (1 Bft) W 270 0 min 0,000 mm 0,0 UV-I 0 W/m 13,2 C 14,8 C 4,8 km/h (1 Bft) 97,87 %
30.05.2016 02:03 14,8 C 90 % 1003,3 hPa 0,0 l/m 0,8 km/h (0 Bft) W 270 0 min 0,000 mm 0,0 UV-I 0 W/m 13,2 C 14,8 C 1,6 km/h (1 Bft) 100,00 %
30.05.2016 02:04 14,8 C 90 % 1003,3 hPa 0,0 l/m 0,0 km/h (0 Bft) W 270 0 min 0,000 mm 0,0 UV-I 0 W/m 13,2 C 14,8 C 0,0 km/h (0 Bft) 100,00 %
30.05.2016 02:05 14,8 C 90 % 1003,3 hPa 0,0 l/m 1,6 km/h (1 Bft) W 270 0 min 0,000 mm 0,0 UV-I 0 W/m 13,2 C 14,8 C 3,2 km/h (1 Bft) 100,00 %
30.05.2016 02:06 14,8 C 90 % 1003,3 hPa 0,0 l/m 0,7 km/h (0 Bft) W 270 0 min 0,000 mm 0,0 UV-I 0 W/m 13,2 C 14,8 C 1,6 km/h (1 Bft) 100,00 %
30.05.2016 02:07 14,7 C 90 % 1003,4 hPa 0,0 l/m 3,6 km/h (1 Bft) W-SW 251 0 min 0,000 mm 0,0 UV-I 0 W/m 13,1 C 14,7 C 6,4 km/h (2 Bft) 100,00 %
30.05.2016 02:08 14,7 C 90 % 1003,5 hPa 0,0 l/m 2,6 km/h (1 Bft) W-SW 251 0 min 0,000 mm 0,0 UV-I 0 W/m 13,1 C 14,7 C 4,8 km/h (1 Bft) 100,00 %
30.05.2016 02:09 14,7 C 90 % 1003,4 hPa 0,0 l/m 2,7 km/h (1 Bft) W-SW 251 0 min 0,000 mm 0,0 UV-I 0 W/m 13,1 C 14,7 C 4,8 km/h (1 Bft) 100,00 %
30.05.2016 02:10 14,7 C 90 % 1003,4 hPa 0,0 l/m 2,1 km/h (1 Bft) W-SW 251 0 min 0,000 mm 0,0 UV-I 0 W/m 13,1 C 14,7 C 3,2 km/h (1 Bft) 100,00 %
30.05.2016 02:11 14,7 C 90 % 1003,5 hPa 0,0 l/m 2,8 km/h (1 Bft) W-SW 245 0 min 0,000 mm 0,0 UV-I 0 W/m 13,1 C 14,7 C 4,8 km/h (1 Bft) 100,00 %
30.05.2016 02:12 14,7 C 90 % 1003,5 hPa 0,0 l/m 4,2 km/h (1 Bft) SW 215 0 min 0,000 mm 0,0 UV-I 0 W/m 13,1 C 14,7 C 4,8 km/h (1 Bft) 95,65 %
30.05.2016 02:13 14,6 C 90 % 1003,4 hPa 0,0 l/m 4,8 km/h (1 Bft) SW 223 0 min 0,000 mm 0,0 UV-I 0 W/m 13,0 C 14,6 C 8,0 km/h (2 Bft) 100,00 %
30.05.2016 02:14 14,6 C 90 % 1003,5 hPa 0,0 l/m 4,7 km/h (1 Bft) S-SW 209 0 min 0,000 mm 0,0 UV-I 0 W/m 13,0 C 14,6 C 6,4 km/h (2 Bft) 100,00 %
30.05.2016 02:15 14,6 C 90 % 1003,5 hPa 0,0 l/m 4,0 km/h (1 Bft) S-SW 198 0 min 0,000 mm 0,0 UV-I 0 W/m 13,0 C 14,6 C 4,8 km/h (1 Bft) 100,00 %
30.05.2016 02:16 14,6 C 90 % 1003,4 hPa 0,0 l/m 6,2 km/h (2 Bft) SW 234 0 min 0,000 mm 0,0 UV-I 0 W/m 13,0 C 14,6 C 11,3 km/h (2 Bft) 100,00 %
30.05.2016 02:17 14,6 C 90 % 1003,5 hPa 0,0 l/m 8,6 km/h (2 Bft) W-SW 242 0 min 0,000 mm 0,0 UV-I 0 W/m 13,0 C 13,4 C 12,9 km/h (3 Bft) 100,00 %
30.05.2016 02:18 14,6 C 90 % 1003,5 hPa 0,0 l/m 8,6 km/h (2 Bft) SW 220 0 min 0,000 mm 0,0 UV-I 0 W/m 13,0 C 13,4 C 11,3 km/h (2 Bft) 100,00 %
30.05.2016 02:19 14,6 C 90 % 1003,5 hPa 0,0 l/m 7,1 km/h (2 Bft) SW 223 0 min 0,000 mm 0,0 UV-I 0 W/m 13,0 C 14,2 C 9,7 km/h (2 Bft) 100,00 %
30.05.2016 02:20 14,7 C 90 % 1003,5 hPa 0,0 l/m 6,2 km/h (2 Bft) W-SW 248 0 min 0,000 mm 0,0 UV-I 0 W/m 13,1 C 14,7 C 11,3 km/h (2 Bft) 95,65 %
30.05.2016 02:21 14,7 C 90 % 1003,5 hPa 0,0 l/m 8,9 km/h (2 Bft) W 262 0 min 0,000 mm 0,0 UV-I 0 W/m 13,1 C 13,3 C 11,3 km/h (2 Bft) 100,00 %
30.05.2016 02:22 14,7 C 90 % 1003,4 hPa 0,0 l/m 8,6 km/h (2 Bft) W-SW 256 0 min 0,000 mm 0,0 UV-I 0 W/m 13,1 C 13,5 C 11,3 km/h (2 Bft) 100,00 %
30.05.2016 02:23 14,7 C 90 % 1003,5 hPa 0,0 l/m 7,6 km/h (2 Bft) W 277 0 min 0,000 mm 0,0 UV-I 0 W/m 13,1 C 14,0 C 11,3 km/h (2 Bft) 100,00 %
30.05.2016 02:24 14,7 C 90 % 1003,5 hPa 0,0 l/m 5,6 km/h (1 Bft) W-SW 256 0 min 0,000 mm 0,0 UV-I 0 W/m 13,1 C 14,7 C 11,3 km/h (2 Bft) 100,00 %
30.05.2016 02:25 14,7 C 90 % 1003,5 hPa 0,0 l/m 6,7 km/h (2 Bft) W-SW 255 0 min 0,000 mm 0,0 UV-I 0 W/m 13,1 C 14,5 C 11,3 km/h (2 Bft) 100,00 %
30.05.2016 02:26 14,7 C 90 % 1003,4 hPa 0,0 l/m 4,9 km/h (1 Bft) W-SW 252 0 min 0,000 mm 0,0 UV-I 0 W/m 13,1 C 14,7 C 9,7 km/h (2 Bft) 95,83 %
30.05.2016 02:27 14,7 C 90 % 1003,4 hPa 0,0 l/m 9,1 km/h (2 Bft) W-SW 244 0 min 0,000 mm 0,0 UV-I 0 W/m 13,1 C 13,2 C 12,9 km/h (3 Bft) 100,00 %
30.05.2016 02:28 14,7 C 90 % 1003,4 hPa 0,0 l/m 7,8 km/h (2 Bft) W 262 0 min 0,000 mm 0,0 UV-I 0 W/m 13,1 C 13,9 C 14,5 km/h (3 Bft) 100,00 %
30.05.2016 02:29 14,8 C 90 % 1003,4 hPa 0,0 l/m 8,2 km/h (2 Bft) W-SW 246 0 min 0,000 mm 0,0 UV-I 0 W/m 13,2 C 13,8 C 11,3 km/h (2 Bft) 100,00 %
30.05.2016 02:30 14,8 C 89 % 1003,4 hPa 0,0 l/m 10,4 km/h (2 Bft) SW 230 0 min 0,000 mm 0,0 UV-I 0 W/m 13,0 C 12,7 C 14,5 km/h (3 Bft) 100,00 %
30.05.2016 02:31 14,8 C 89 % 1003,4 hPa 0,0 l/m 8,2 km/h (2 Bft) W-SW 240 0 min 0,000 mm 0,0 UV-I 0 W/m 13,0 C 13,8 C 11,3 km/h (2 Bft) 100,00 %
30.05.2016 02:32 14,8 C 89 % 1003,4 hPa 0,0 l/m 6,2 km/h (2 Bft) W-SW 248 0 min 0,000 mm 0,0 UV-I 0 W/m 13,0 C 14,8 C 9,7 km/h (2 Bft) 100,00 %
30.05.2016 02:33 14,8 C 89 % 1003,4 hPa 0,0 l/m 7,8 km/h (2 Bft) SW 228 0 min 0,000 mm 0,0 UV-I 0 W/m 13,0 C 14,0 C 12,9 km/h (3 Bft) 100,00 %
30.05.2016 02:34 14,8 C 89 % 1003,4 hPa 0,0 l/m 5,0 km/h (1 Bft) W-SW 256 0 min 0,000 mm 0,0 UV-I 0 W/m 13,0 C 14,8 C 6,4 km/h (2 Bft) 100,00 %
30.05.2016 02:35 14,9 C 89 % 1003,4 hPa 0,0 l/m 7,8 km/h (2 Bft) W-SW 249 0 min 0,000 mm 0,0 UV-I 0 W/m 13,1 C 14,1 C 12,9 km/h (3 Bft) 100,00 %
30.05.2016 02:36 14,9 C 89 % 1003,4 hPa 0,0 l/m 6,4 km/h (2 Bft) W 271 0 min 0,000 mm 0,0 UV-I 0 W/m 13,1 C 14,9 C 11,3 km/h (2 Bft) 100,00 %
30.05.2016 02:37 14,9 C 89 % 1003,4 hPa 0,0 l/m 5,8 km/h (2 Bft) W-SW 244 0 min 0,000 mm 0,0 UV-I 0 W/m 13,1 C 14,9 C 9,7 km/h (2 Bft) 95,83 %
30.05.2016 02:38 14,9 C 89 % 1003,4 hPa 0,0 l/m 4,8 km/h (1 Bft) S-SW 207 0 min 0,000 mm 0,0 UV-I 0 W/m 13,1 C 14,9 C 6,4 km/h (2 Bft) 100,00 %
30.05.2016 02:39 14,8 C 89 % 1003,4 hPa 0,0 l/m 5,6 km/h (1 Bft) W-SW 238 0 min 0,000 mm 0,0 UV-I 0 W/m 13,0 C 14,8 C 6,4 km/h (2 Bft) 100,00 %
30.05.2016 02:40 14,8 C 89 % 1003,4 hPa 0,0 l/m 4,5 km/h (1 Bft) SW 227 0 min 0,000 mm 0,0 UV-I 0 W/m 13,0 C 14,8 C 6,4 km/h (2 Bft) 100,00 %
30.05.2016 02:41 14,8 C 89 % 1003,4 hPa 0,0 l/m 4,3 km/h (1 Bft) SW 218 0 min 0,000 mm 0,0 UV-I 0 W/m 13,0 C 14,8 C 6,4 km/h (2 Bft) 100,00 %
30.05.2016 02:42 14,8 C 89 % 1003,4 hPa 0,0 l/m 5,2 km/h (1 Bft) S-SW 192 0 min 0,000 mm 0,0 UV-I 0 W/m 13,0 C 14,8 C 8,0 km/h (2 Bft) 95,65 %
30.05.2016 02:43 14,7 C 89 % 1003,4 hPa 0,0 l/m 5,5 km/h (1 Bft) SW 217 0 min 0,000 mm 0,0 UV-I 0 W/m 12,9 C 14,7 C 9,7 km/h (2 Bft) 100,00 %
30.05.2016 02:44 14,7 C 89 % 1003,4 hPa 0,0 l/m 4,8 km/h (1 Bft) S 188 0 min 0,000 mm 0,0 UV-I 0 W/m 12,9 C 14,7 C 6,4 km/h (2 Bft) 100,00 %
30.05.2016 02:45 14,7 C 89 % 1003,4 hPa 0,0 l/m 4,8 km/h (1 Bft) S 182 0 min 0,000 mm 0,0 UV-I 0 W/m 12,9 C 14,7 C 6,4 km/h (2 Bft) 100,00 %
30.05.2016 02:46 14,7 C 89 % 1003,4 hPa 0,0 l/m 3,1 km/h (1 Bft) S 182 0 min 0,000 mm 0,0 UV-I 0 W/m 12,9 C 14,7 C 4,8 km/h (1 Bft) 100,00 %
30.05.2016 02:47 14,7 C 89 % 1003,4 hPa 0,0 l/m 5,1 km/h (1 Bft) S-SW 198 0 min 0,000 mm 0,0 UV-I 0 W/m 12,9 C 14,7 C 8,0 km/h (2 Bft) 100,00 %
30.05.2016 02:48 14,7 C 89 % 1003,4 hPa 0,0 l/m 5,7 km/h (1 Bft) S-SW 209 0 min 0,000 mm 0,0 UV-I 0 W/m 12,9 C 14,7 C 8,0 km/h (2 Bft) 100,00 %
30.05.2016 02:49 14,7 C 89 % 1003,4 hPa 0,0 l/m 3,7 km/h (1 Bft) S-SW 192 0 min 0,000 mm 0,0 UV-I 0 W/m 12,9 C 14,7 C 4,8 km/h (1 Bft) 100,00 %
30.05.2016 02:50 14,7 C 89 % 1003,4 hPa 0,0 l/m 2,9 km/h (1 Bft) S-SW 213 0 min 0,000 mm 0,0 UV-I 0 W/m 12,9 C 14,7 C 4,8 km/h (1 Bft) 100,00 %
30.05.2016 02:51 14,7 C 89 % 1003,4 hPa 0,0 l/m 5,4 km/h (1 Bft) SW 225 0 min 0,000 mm 0,0 UV-I 0 W/m 12,9 C 14,7 C 8,0 km/h (2 Bft) 100,00 %
30.05.2016 02:52 14,7 C 89 % 1003,4 hPa 0,0 l/m 4,8 km/h (1 Bft) SW 235 0 min 0,000 mm 0,0 UV-I 0 W/m 12,9 C 14,7 C 6,4 km/h (2 Bft) 100,00 %
30.05.2016 02:53 14,7 C 89 % 1003,4 hPa 0,0 l/m 3,7 km/h (1 Bft) W 277 0 min 0,000 mm 0,0 UV-I 0 W/m 12,9 C 14,7 C 4,8 km/h (1 Bft) 100,00 %
30.05.2016 02:54 14,7 C 89 % 1003,3 hPa 0,0 l/m 4,0 km/h (1 Bft) W 275 0 min 0,000 mm 0,0 UV-I 0 W/m 12,9 C 14,7 C 4,8 km/h (1 Bft) 95,65 %
30.05.2016 02:55 14,7 C 89 % 1003,3 hPa 0,0 l/m 4,0 km/h (1 Bft) W-SW 250 0 min 0,000 mm 0,0 UV-I 0 W/m 12,9 C 14,7 C 6,4 km/h (2 Bft) 100,00 %
30.05.2016 02:56 14,7 C 89 % 1003,3 hPa 0,0 l/m 3,8 km/h (1 Bft) W-SW 249 0 min 0,000 mm 0,0 UV-I 0 W/m 12,9 C 14,7 C 4,8 km/h (1 Bft) 100,00 %
30.05.2016 02:57 14,6 C 89 % 1003,3 hPa 0,0 l/m 4,6 km/h (1 Bft) W 261 0 min 0,000 mm 0,0 UV-I 0 W/m 12,8 C 14,6 C 6,4 km/h (2 Bft) 100,00 %
30.05.2016 02:58 14,6 C 90 % 1003,3 hPa 0,0 l/m 3,8 km/h (1 Bft) S-SW 212 0 min 0,000 mm 0,0 UV-I 0 W/m 13,0 C 14,6 C 6,4 km/h (2 Bft) 100,00 %
30.05.2016 02:59 14,6 C 89 % 1003,3 hPa 0,0 l/m 3,2 km/h (1 Bft) S-SW 212 0 min 0,000 mm 0,0 UV-I 0 W/m 12,8 C 14,6 C 6,4 km/h (2 Bft) 100,00 %
30.05.2016 03:00 14,5 C 89 % 1003,4 hPa 0,0 l/m 3,7 km/h (1 Bft) S-SW 212 0 min 0,000 mm 0,0 UV-I 0 W/m 12,7 C 14,5 C 4,8 km/h (1 Bft) 100,00 %
30.05.2016 03:02 14,4 C 89 % 1003,4 hPa 0,0 l/m 4,8 km/h (1 Bft) S-SW 193 0 min 0,000 mm 0,0 UV-I 0 W/m 12,6 C 14,4 C 6,4 km/h (2 Bft) 100,00 %
30.05.2016 03:03 14,4 C 90 % 1003,3 hPa 0,0 l/m 5,5 km/h (1 Bft) S-SW 209 0 min 0,000 mm 0,0 UV-I 0 W/m 12,8 C 14,4 C 6,4 km/h (2 Bft) 100,00 %
30.05.2016 03:04 14,4 C 90 % 1003,3 hPa 0,0 l/m 4,2 km/h (1 Bft) S-SW 212 0 min 0,000 mm 0,0 UV-I 0 W/m 12,8 C 14,4 C 4,8 km/h (1 Bft) 100,00 %
30.05.2016 03:05 14,4 C 90 % 1003,3 hPa 0,0 l/m 5,3 km/h (1 Bft) SW 216 0 min 0,000 mm 0,0 UV-I 0 W/m 12,8 C 14,4 C 6,4 km/h (2 Bft) 100,00 %
30.05.2016 03:06 14,4 C 90 % 1003,3 hPa 0,0 l/m 6,3 km/h (2 Bft) S-SW 194 0 min 0,000 mm 0,0 UV-I 0 W/m 12,8 C 14,4 C 8,0 km/h (2 Bft) 100,00 %
30.05.2016 03:07 14,4 C 90 % 1003,3 hPa 0,0 l/m 5,7 km/h (1 Bft) SW 221 0 min 0,000 mm 0,0 UV-I 0 W/m 12,8 C 14,4 C 8,0 km/h (2 Bft) 100,00 %
30.05.2016 03:08 14,4 C 90 % 1003,3 hPa 0,0 l/m 6,7 km/h (2 Bft) SW 236 0 min 0,000 mm 0,0 UV-I 0 W/m 12,8 C 14,2 C 8,0 km/h (2 Bft) 96,30 %
30.05.2016 03:09 14,4 C 90 % 1003,3 hPa 0,0 l/m 7,0 km/h (2 Bft) SW 229 0 min 0,000 mm 0,0 UV-I 0 W/m 12,8 C 14,1 C 9,7 km/h (2 Bft) 100,00 %
30.05.2016 03:10 14,4 C 90 % 1003,2 hPa 0,0 l/m 5,9 km/h (2 Bft) SW 227 0 min 0,000 mm 0,0 UV-I 0 W/m 12,8 C 14,4 C 8,0 km/h (2 Bft) 96,30 %
30.05.2016 03:11 14,3 C 90 % 1003,2 hPa 0,0 l/m 6,6 km/h (2 Bft) SW 233 0 min 0,000 mm 0,0 UV-I 0 W/m 12,7 C 14,2 C 9,7 km/h (2 Bft) 100,00 %
30.05.2016 03:12 14,3 C 90 % 1003,2 hPa 0,0 l/m 7,4 km/h (2 Bft) SW 236 0 min 0,000 mm 0,0 UV-I 0 W/m 12,7 C 13,7 C 9,7 km/h (2 Bft) 95,83 %
30.05.2016 03:13 14,4 C 90 % 1003,2 hPa 0,0 l/m 6,8 km/h (2 Bft) SW 218 0 min 0,000 mm 0,0 UV-I 0 W/m 12,8 C 14,2 C 9,7 km/h (2 Bft) 100,00 %
30.05.2016 03:14 14,3 C 90 % 1003,1 hPa 0,0 l/m 7,1 km/h (2 Bft) S-SW 211 0 min 0,000 mm 0,0 UV-I 0 W/m 12,7 C 13,9 C 11,3 km/h (2 Bft) 95,83 %
30.05.2016 03:15 14,3 C 90 % 1003,1 hPa 0,0 l/m 5,8 km/h (2 Bft) SW 227 0 min 0,000 mm 0,0 UV-I 0 W/m 12,7 C 14,3 C 8,0 km/h (2 Bft) 95,65 %
30.05.2016 03:16 14,3 C 90 % 1003,1 hPa 0,0 l/m 4,5 km/h (1 Bft) SW 229 0 min 0,000 mm 0,0 UV-I 0 W/m 12,7 C 14,3 C 6,4 km/h (2 Bft) 95,83 %
30.05.2016 03:17 14,3 C 90 % 1003,1 hPa 0,0 l/m 6,6 km/h (2 Bft) W-SW 237 0 min 0,000 mm 0,0 UV-I 0 W/m 12,7 C 14,2 C 8,0 km/h (2 Bft) 95,65 %
30.05.2016 03:18 14,3 C 90 % 1003,1 hPa 0,0 l/m 5,6 km/h (1 Bft) S-SW 209 0 min 0,000 mm 0,0 UV-I 0 W/m 12,7 C 14,3 C 6,4 km/h (2 Bft) 95,83 %
30.05.2016 03:19 14,3 C 90 % 1003,1 hPa 0,0 l/m 4,5 km/h (1 Bft) W-SW 242 0 min 0,000 mm 0,0 UV-I 0 W/m 12,7 C 14,3 C 8,0 km/h (2 Bft) 95,65 %
30.05.2016 03:20 14,3 C 90 % 1003,1 hPa 0,0 l/m 5,3 km/h (1 Bft) W-SW 248 0 min 0,000 mm 0,0 UV-I 0 W/m 12,7 C 14,3 C 6,4 km/h (2 Bft) 100,00 %
30.05.2016 03:21 14,3 C 90 % 1003,2 hPa 0,0 l/m 5,8 km/h (2 Bft) SW 228 0 min 0,000 mm 0,0 UV-I 0 W/m 12,7 C 14,3 C 8,0 km/h (2 Bft) 95,83 %
30.05.2016 03:22 14,3 C 90 % 1003,2 hPa 0,0 l/m 4,9 km/h (1 Bft) S-SW 211 0 min 0,000 mm 0,0 UV-I 0 W/m 12,7 C 14,3 C 6,4 km/h (2 Bft) 95,65 %
30.05.2016 03:23 14,3 C 90 % 1003,3 hPa 0,0 l/m 5,6 km/h (1 Bft) SW 221 0 min 0,000 mm 0,0 UV-I 0 W/m 12,7 C 14,3 C 8,0 km/h (2 Bft) 95,83 %
30.05.2016 03:24 14,3 C 90 % 1003,3 hPa 0,0 l/m 5,8 km/h (2 Bft) SW 228 0 min 0,000 mm 0,0 UV-I 0 W/m 12,7 C 14,3 C 8,0 km/h (2 Bft) 95,65 %
30.05.2016 03:25 14,3 C 90 % 1003,2 hPa 0,0 l/m 4,4 km/h (1 Bft) S-SW 198 0 min 0,000 mm 0,0 UV-I 0 W/m 12,7 C 14,3 C 6,4 km/h (2 Bft) 95,83 %
30.05.2016 03:26 14,3 C 90 % 1003,3 hPa 0,0 l/m 5,8 km/h (2 Bft) S-SW 200 0 min 0,000 mm 0,0 UV-I 0 W/m 12,7 C 14,3 C 8,0 km/h (2 Bft) 100,00 %
30.05.2016 03:27 14,3 C 90 % 1003,3 hPa 0,0 l/m 5,6 km/h (1 Bft) SW 217 0 min 0,000 mm 0,0 UV-I 0 W/m 12,7 C 14,3 C 8,0 km/h (2 Bft) 95,83 %
30.05.2016 03:28 14,4 C 90 % 1003,3 hPa 0,0 l/m 4,2 km/h (1 Bft) SW 215 0 min 0,000 mm 0,0 UV-I 0 W/m 12,8 C 14,4 C 4,8 km/h (1 Bft) 95,65 %
30.05.2016 03:29 14,4 C 90 % 1003,3 hPa 0,0 l/m 4,2 km/h (1 Bft) SW 220 0 min 0,000 mm 0,0 UV-I 0 W/m 12,8 C 14,4 C 6,4 km/h (2 Bft) 95,83 %
30.05.2016 03:30 14,4 C 90 % 1003,3 hPa 0,0 l/m 5,9 km/h (2 Bft) SW 214 0 min 0,000 mm 0,0 UV-I 0 W/m 12,8 C 14,4 C 8,0 km/h (2 Bft) 91,30 %
30.05.2016 03:31 14,5 C 90 % 1003,3 hPa 0,0 l/m 5,4 km/h (1 Bft) S-SW 206 0 min 0,000 mm 0,0 UV-I 0 W/m 12,9 C 14,5 C 6,4 km/h (2 Bft) 100,00 %
30.05.2016 03:32 14,5 C 90 % 1003,3 hPa 0,0 l/m 6,0 km/h (2 Bft) S-SW 196 0 min 0,000 mm 0,0 UV-I 0 W/m 12,9 C 14,5 C 9,7 km/h (2 Bft) 98,66 %
30.05.2016 03:33 14,6 C 90 % 1003,3 hPa 0,0 l/m 6,1 km/h (2 Bft) S-SW 194 0 min 0,000 mm 0,0 UV-I 0 W/m 13,0 C 14,6 C 11,3 km/h (2 Bft) 97,37 %
30.05.2016 03:34 14,6 C 89 % 1003,3 hPa 0,0 l/m 6,3 km/h (2 Bft) SW 217 0 min 0,000 mm 0,0 UV-I 0 W/m 12,8 C 14,6 C 9,7 km/h (2 Bft) 95,83 %
30.05.2016 03:35 14,6 C 89 % 1003,3 hPa 0,0 l/m 4,6 km/h (1 Bft) SW 224 0 min 0,000 mm 0,0 UV-I 0 W/m 12,8 C 14,6 C 6,4 km/h (2 Bft) 95,65 %
30.05.2016 03:36 14,7 C 89 % 1003,2 hPa 0,0 l/m 6,3 km/h (2 Bft) S-SW 202 0 min 0,000 mm 0,0 UV-I 0 W/m 12,9 C 14,7 C 8,0 km/h (2 Bft) 95,83 %
30.05.2016 03:37 14,7 C 89 % 1003,3 hPa 0,0 l/m 4,9 km/h (1 Bft) S 184 0 min 0,000 mm 0,0 UV-I 0 W/m 12,9 C 14,7 C 6,4 km/h (2 Bft) 95,65 %
30.05.2016 03:38 14,7 C 89 % 1003,3 hPa 0,0 l/m 5,2 km/h (1 Bft) S 184 0 min 0,000 mm 0,0 UV-I 0 W/m 12,9 C 14,7 C 9,7 km/h (2 Bft) 95,83 %
30.05.2016 03:39 14,7 C 89 % 1003,3 hPa 0,0 l/m 5,4 km/h (1 Bft) S-SW 192 0 min 0,000 mm 0,0 UV-I 0 W/m 12,9 C 14,7 C 6,4 km/h (2 Bft) 95,65 %
30.05.2016 03:40 14,7 C 89 % 1003,3 hPa 0,0 l/m 6,6 km/h (2 Bft) S-SW 203 0 min 0,000 mm 0,0 UV-I 0 W/m 12,9 C 14,6 C 11,3 km/h (2 Bft) 100,00 %
30.05.2016 03:41 14,7 C 89 % 1003,3 hPa 0,0 l/m 5,3 km/h (1 Bft) SW 216 0 min 0,000 mm 0,0 UV-I 0 W/m 12,9 C 14,7 C 8,0 km/h (2 Bft) 95,65 %
30.05.2016 03:42 14,7 C 89 % 1003,4 hPa 0,0 l/m 5,1 km/h (1 Bft) S 182 0 min 0,000 mm 0,0 UV-I 0 W/m 12,9 C 14,7 C 8,0 km/h (2 Bft) 95,83 %
30.05.2016 03:43 14,7 C 89 % 1003,4 hPa 0,0 l/m 4,4 km/h (1 Bft) S 178 0 min 0,000 mm 0,0 UV-I 0 W/m 12,9 C 14,7 C 6,4 km/h (2 Bft) 91,30 %
30.05.2016 03:44 14,7 C 89 % 1003,4 hPa 0,0 l/m 7,2 km/h (2 Bft) S-SW 213 0 min 0,000 mm 0,0 UV-I 0 W/m 12,9 C 14,2 C 9,7 km/h (2 Bft) 100,00 %
30.05.2016 03:45 14,7 C 89 % 1003,4 hPa 0,0 l/m 5,4 km/h (1 Bft) S-SW 213 0 min 0,000 mm 0,0 UV-I 0 W/m 12,9 C 14,7 C 8,0 km/h (2 Bft) 95,65 %
30.05.2016 03:46 14,8 C 89 % 1003,4 hPa 0,0 l/m 6,1 km/h (2 Bft) S-SW 200 0 min 0,000 mm 0,0 UV-I 0 W/m 13,0 C 14,8 C 9,7 km/h (2 Bft) 100,00 %
30.05.2016 03:47 14,8 C 89 % 1003,3 hPa 0,0 l/m 7,0 km/h (2 Bft) SW 225 0 min 0,000 mm 0,0 UV-I 0 W/m 13,0 C 14,5 C 9,7 km/h (2 Bft) 100,00 %
30.05.2016 03:48 14,8 C 88 % 1003,3 hPa 0,0 l/m 3,9 km/h (1 Bft) SW 223 0 min 0,000 mm 0,0 UV-I 0 W/m 12,8 C 14,8 C 6,4 km/h (2 Bft) 100,00 %
30.05.2016 03:49 14,8 C 88 % 1003,3 hPa 0,0 l/m 4,8 km/h (1 Bft) SW 228 0 min 0,000 mm 0,0 UV-I 0 W/m 12,8 C 14,8 C 6,4 km/h (2 Bft) 95,65 %
30.05.2016 03:50 14,9 C 88 % 1003,3 hPa 0,0 l/m 5,8 km/h (2 Bft) SW 233 0 min 0,000 mm 0,0 UV-I 0 W/m 12,9 C 14,9 C 8,0 km/h (2 Bft) 100,00 %
30.05.2016 03:51 14,9 C 88 % 1003,3 hPa 0,0 l/m 5,8 km/h (2 Bft) SW 231 0 min 0,000 mm 0,0 UV-I 0 W/m 12,9 C 14,9 C 6,4 km/h (2 Bft) 100,00 %
30.05.2016 03:52 14,9 C 88 % 1003,3 hPa 0,0 l/m 6,0 km/h (2 Bft) SW 231 0 min 0,000 mm 0,0 UV-I 0 W/m 12,9 C 14,9 C 8,0 km/h (2 Bft) 100,00 %
30.05.2016 03:53 14,9 C 88 % 1003,3 hPa 0,0 l/m 6,1 km/h (2 Bft) SW 236 0 min 0,000 mm 0,0 UV-I 0 W/m 12,9 C 14,9 C 6,4 km/h (2 Bft) 95,65 %
30.05.2016 03:54 14,9 C 88 % 1003,3 hPa 0,0 l/m 5,0 km/h (1 Bft) SW 223 0 min 0,000 mm 0,0 UV-I 0 W/m 12,9 C 14,9 C 6,4 km/h (2 Bft) 92,59 %
30.05.2016 03:55 14,9 C 88 % 1003,3 hPa 0,0 l/m 4,5 km/h (1 Bft) SW 216 0 min 0,000 mm 0,0 UV-I 0 W/m 12,9 C 14,9 C 6,4 km/h (2 Bft) 95,65 %
30.05.2016 03:56 14,9 C 88 % 1003,3 hPa 0,0 l/m 4,2 km/h (1 Bft) SW 216 0 min 0,000 mm 0,0 UV-I 0 W/m 12,9 C 14,9 C 6,4 km/h (2 Bft) 100,00 %
30.05.2016 03:57 14,9 C 88 % 1003,3 hPa 0,0 l/m 3,8 km/h (1 Bft) W-SW 244 0 min 0,000 mm 0,0 UV-I 0 W/m 12,9 C 14,9 C 4,8 km/h (1 Bft) 100,00 %
30.05.2016 03:58 14,9 C 88 % 1003,4 hPa 0,0 l/m 4,5 km/h (1 Bft) W-SW 244 0 min 0,000 mm 0,0 UV-I 0 W/m 12,9 C 14,9 C 4,8 km/h (1 Bft) 100,00 %
30.05.2016 03:59 14,8 C 88 % 1003,4 hPa 0,0 l/m 4,6 km/h (1 Bft) W-SW 245 0 min 0,000 mm 0,0 UV-I 0 W/m 12,8 C 14,8 C 6,4 km/h (2 Bft) 100,00 %
30.05.2016 04:00 14,8 C 88 % 1003,3 hPa 0,0 l/m 4,3 km/h (1 Bft) SW 233 0 min 0,000 mm 0,0 UV-I 0 W/m 12,8 C 14,8 C 6,4 km/h (2 Bft) 100,00 %
30.05.2016 04:02 14,7 C 88 % 1003,3 hPa 0,0 l/m 5,8 km/h (2 Bft) SW 221 0 min 0,000 mm 0,0 UV-I 0 W/m 12,7 C 14,7 C 9,7 km/h (2 Bft) 100,00 %
30.05.2016 04:03 14,7 C 89 % 1003,3 hPa 0,0 l/m 6,8 km/h (2 Bft) SW 230 0 min 0,000 mm 0,0 UV-I 0 W/m 12,9 C 14,5 C 9,7 km/h (2 Bft) 95,83 %
30.05.2016 04:04 14,7 C 89 % 1003,3 hPa 0,0 l/m 7,6 km/h (2 Bft) S-SW 213 0 min 0,000 mm 0,0 UV-I 0 W/m 12,9 C 14,0 C 11,3 km/h (2 Bft) 100,00 %
30.05.2016 04:05 14,6 C 89 % 1003,3 hPa 0,0 l/m 8,6 km/h (2 Bft) SW 229 0 min 0,000 mm 0,0 UV-I 0 W/m 12,8 C 13,4 C 11,3 km/h (2 Bft) 100,00 %
30.05.2016 04:06 14,6 C 89 % 1003,3 hPa 0,0 l/m 6,8 km/h (2 Bft) S-SW 200 0 min 0,000 mm 0,0 UV-I 0 W/m 12,8 C 14,4 C 9,7 km/h (2 Bft) 91,30 %
30.05.2016 04:07 14,6 C 89 % 1003,3 hPa 0,0 l/m 6,4 km/h (2 Bft) SW 231 0 min 0,000 mm 0,0 UV-I 0 W/m 12,8 C 14,6 C 8,0 km/h (2 Bft) 100,00 %
30.05.2016 04:08 14,7 C 89 % 1003,3 hPa 0,0 l/m 8,7 km/h (2 Bft) SW 225 0 min 0,000 mm 0,0 UV-I 0 W/m 12,9 C 13,4 C 12,9 km/h (3 Bft) 100,00 %
30.05.2016 04:09 14,7 C 89 % 1003,3 hPa 0,0 l/m 6,7 km/h (2 Bft) SW 221 0 min 0,000 mm 0,0 UV-I 0 W/m 12,9 C 14,5 C 8,0 km/h (2 Bft) 100,00 %
30.05.2016 04:10 14,7 C 89 % 1003,4 hPa 0,0 l/m 6,1 km/h (2 Bft) SW 235 0 min 0,000 mm 0,0 UV-I 0 W/m 12,9 C 14,7 C 9,7 km/h (2 Bft) 100,00 %
30.05.2016 04:11 14,7 C 89 % 1003,4 hPa 0,0 l/m 6,2 km/h (2 Bft) SW 220 0 min 0,000 mm 0,0 UV-I 0 W/m 12,9 C 14,7 C 8,0 km/h (2 Bft) 95,83 %
30.05.2016 04:12 14,7 C 89 % 1003,5 hPa 0,0 l/m 6,7 km/h (2 Bft) W-SW 240 0 min 0,000 mm 0,0 UV-I 0 W/m 12,9 C 14,5 C 9,7 km/h (2 Bft) 100,00 %
30.05.2016 04:13 14,7 C 89 % 1003,4 hPa 0,0 l/m 5,2 km/h (1 Bft) SW 233 0 min 0,000 mm 0,0 UV-I 0 W/m 12,9 C 14,7 C 8,0 km/h (2 Bft) 100,00 %
30.05.2016 04:14 14,7 C 89 % 1003,5 hPa 0,0 l/m 4,2 km/h (1 Bft) SW 229 0 min 0,000 mm 0,0 UV-I 0 W/m 12,9 C 14,7 C 4,8 km/h (1 Bft) 100,00 %
30.05.2016 04:15 14,7 C 89 % 1003,5 hPa 0,0 l/m 3,0 km/h (1 Bft) SW 229 0 min 0,000 mm 0,0 UV-I 0 W/m 12,9 C 14,7 C 4,8 km/h (1 Bft) 100,00 %
30.05.2016 04:16 14,7 C 89 % 1003,5 hPa 0,0 l/m 4,2 km/h (1 Bft) SW 229 0 min 0,000 mm 0,0 UV-I 0 W/m 12,9 C 14,7 C 6,4 km/h (2 Bft) 100,00 %
30.05.2016 04:17 14,7 C 89 % 1003,5 hPa 0,0 l/m 4,1 km/h (1 Bft) SW 231 0 min 0,000 mm 0,0 UV-I 0 W/m 12,9 C 14,7 C 6,4 km/h (2 Bft) 86,96 %
30.05.2016 04:18 14,7 C 89 % 1003,5 hPa 0,0 l/m 4,6 km/h (1 Bft) SW 229 0 min 0,000 mm 0,0 UV-I 0 W/m 12,9 C 14,7 C 6,4 km/h (2 Bft) 100,00 %
30.05.2016 04:19 14,7 C 89 % 1003,5 hPa 0,0 l/m 4,4 km/h (1 Bft) SW 234 0 min 0,000 mm 0,0 UV-I 0 W/m 12,9 C 14,7 C 6,4 km/h (2 Bft) 100,00 %
30.05.2016 04:20 14,7 C 89 % 1003,6 hPa 0,0 l/m 4,8 km/h (1 Bft) SW 234 0 min 0,000 mm 0,0 UV-I 0 W/m 12,9 C 14,7 C 6,4 km/h (2 Bft) 100,00 %
30.05.2016 04:21 14,7 C 89 % 1003,6 hPa 0,0 l/m 5,0 km/h (1 Bft) SW 236 0 min 0,000 mm 0,0 UV-I 0 W/m 12,9 C 14,7 C 6,4 km/h (2 Bft) 100,00 %
30.05.2016 04:22 14,7 C 89 % 1003,6 hPa 0,0 l/m 3,2 km/h (1 Bft) SW 218 0 min 0,000 mm 0,0 UV-I 0 W/m 12,9 C 14,7 C 4,8 km/h (1 Bft) 100,00 %
30.05.2016 04:23 14,8 C 89 % 1003,6 hPa 0,0 l/m 4,8 km/h (1 Bft) SW 226 0 min 0,000 mm 0,0 UV-I 0 W/m 13,0 C 14,8 C 6,4 km/h (2 Bft) 100,00 %
30.05.2016 04:24 14,8 C 89 % 1003,6 hPa 0,0 l/m 6,7 km/h (2 Bft) SW 232 0 min 0,000 mm 0,0 UV-I 0 W/m 13,0 C 14,6 C 8,0 km/h (2 Bft) 100,00 %
30.05.2016 04:25 14,8 C 88 % 1003,5 hPa 0,0 l/m 5,4 km/h (1 Bft) SW 228 0 min 0,000 mm 0,0 UV-I 0 W/m 12,8 C 14,8 C 6,4 km/h (2 Bft) 95,65 %
30.05.2016 04:26 14,8 C 88 % 1003,5 hPa 0,0 l/m 5,6 km/h (1 Bft) SW 234 0 min 0,000 mm 0,0 UV-I 0 W/m 12,8 C 14,8 C 6,4 km/h (2 Bft) 100,00 %
30.05.2016 04:27 14,8 C 89 % 1003,5 hPa 0,0 l/m 4,6 km/h (1 Bft) SW 229 0 min 0,000 mm 0,0 UV-I 0 W/m 13,0 C 14,8 C 6,4 km/h (2 Bft) 100,00 %
30.05.2016 04:28 14,8 C 88 % 1003,6 hPa 0,0 l/m 3,6 km/h (1 Bft) SW 229 0 min 0,000 mm 0,0 UV-I 0 W/m 12,8 C 14,8 C 4,8 km/h (1 Bft) 100,00 %
30.05.2016 04:29 14,8 C 88 % 1003,6 hPa 0,0 l/m 3,8 km/h (1 Bft) SW 236 0 min 0,000 mm 0,0 UV-I 0 W/m 12,8 C 14,8 C 6,4 km/h (2 Bft) 100,00 %
30.05.2016 04:30 14,8 C 88 % 1003,5 hPa 0,0 l/m 4,6 km/h (1 Bft) SW 229 0 min 0,000 mm 0,0 UV-I 0 W/m 12,8 C 14,8 C 4,8 km/h (1 Bft) 100,00 %
30.05.2016 04:31 14,8 C 88 % 1003,6 hPa 0,0 l/m 4,6 km/h (1 Bft) SW 229 0 min 0,000 mm 0,0 UV-I 0 W/m 12,8 C 14,8 C 6,4 km/h (2 Bft) 100,00 %
30.05.2016 04:32 14,8 C 89 % 1003,6 hPa 0,0 l/m 4,2 km/h (1 Bft) SW 229 0 min 0,000 mm 0,0 UV-I 0 W/m 13,0 C 14,8 C 4,8 km/h (1 Bft) 100,00 %
30.05.2016 04:33 14,8 C 89 % 1003,6 hPa 0,0 l/m 3,6 km/h (1 Bft) SW 227 0 min 0,000 mm 0,0 UV-I 0 W/m 13,0 C 14,8 C 4,8 km/h (1 Bft) 100,00 %
30.05.2016 04:34 14,8 C 88 % 1003,7 hPa 0,0 l/m 3,4 km/h (1 Bft) SW 227 0 min 0,000 mm 0,0 UV-I 0 W/m 12,8 C 14,8 C 4,8 km/h (1 Bft) 100,00 %
30.05.2016 04:35 14,8 C 88 % 1003,7 hPa 0,0 l/m 3,6 km/h (1 Bft) SW 220 0 min 0,000 mm 0,0 UV-I 0 W/m 12,8 C 14,8 C 4,8 km/h (1 Bft) 100,00 %
30.05.2016 04:36 14,8 C 89 % 1003,7 hPa 0,0 l/m 4,0 km/h (1 Bft) S 191 0 min 0,000 mm 0,0 UV-I 0 W/m 13,0 C 14,8 C 6,4 km/h (2 Bft) 100,00 %
30.05.2016 04:37 14,8 C 89 % 1003,7 hPa 0,0 l/m 4,5 km/h (1 Bft) S-SW 211 0 min 0,000 mm 0,0 UV-I 0 W/m 13,0 C 14,8 C 4,8 km/h (1 Bft) 100,00 %
30.05.2016 04:38 14,8 C 88 % 1003,7 hPa 0,0 l/m 4,3 km/h (1 Bft) S-SW 211 0 min 0,000 mm 0,0 UV-I 0 W/m 12,8 C 14,8 C 4,8 km/h (1 Bft) 100,00 %
30.05.2016 04:39 14,8 C 88 % 1003,8 hPa 0,0 l/m 3,8 km/h (1 Bft) S-SW 211 0 min 0,000 mm 0,0 UV-I 0 W/m 12,8 C 14,8 C 4,8 km/h (1 Bft) 100,00 %
30.05.2016 04:40 14,8 C 88 % 1003,8 hPa 0,0 l/m 3,4 km/h (1 Bft) S-SW 211 0 min 0,000 mm 0,0 UV-I 0 W/m 12,8 C 14,8 C 4,8 km/h (1 Bft) 95,65 %
30.05.2016 04:41 14,8 C 88 % 1003,8 hPa 0,0 l/m 4,0 km/h (1 Bft) SW 223 0 min 0,000 mm 0,0 UV-I 0 W/m 12,8 C 14,8 C 4,8 km/h (1 Bft) 100,00 %
30.05.2016 04:42 14,8 C 88 % 1003,8 hPa 0,0 l/m 3,8 km/h (1 Bft) SW 229 0 min 0,000 mm 0,0 UV-I 0 W/m 12,8 C 14,8 C 4,8 km/h (1 Bft) 95,65 %
30.05.2016 04:43 14,8 C 88 % 1003,8 hPa 0,0 l/m 4,8 km/h (1 Bft) SW 229 0 min 0,000 mm 0,0 UV-I 0 W/m 12,8 C 14,8 C 8,0 km/h (2 Bft) 100,00 %
30.05.2016 04:44 14,8 C 88 % 1003,8 hPa 0,0 l/m 5,2 km/h (1 Bft) SW 229 0 min 0,000 mm 0,0 UV-I 0 W/m 12,8 C 14,8 C 6,4 km/h (2 Bft) 95,65 %
30.05.2016 04:45 14,8 C 88 % 1003,8 hPa 0,0 l/m 3,1 km/h (1 Bft) SW 229 0 min 0,000 mm 0,0 UV-I 0 W/m 12,8 C 14,8 C 4,8 km/h (1 Bft) 100,00 %
30.05.2016 04:46 14,8 C 88 % 1003,7 hPa 0,0 l/m 2,5 km/h (1 Bft) SW 229 0 min 0,000 mm 0,0 UV-I 0 W/m 12,8 C 14,8 C 3,2 km/h (1 Bft) 100,00 %
30.05.2016 04:47 14,8 C 88 % 1003,7 hPa 0,0 l/m 3,6 km/h (1 Bft) SW 235 0 min 0,000 mm 0,0 UV-I 0 W/m 12,8 C 14,8 C 4,8 km/h (1 Bft) 100,00 %
30.05.2016 04:48 14,8 C 88 % 1003,7 hPa 0,0 l/m 3,9 km/h (1 Bft) W-SW 243 0 min 0,000 mm 0,0 UV-I 0 W/m 12,8 C 14,8 C 6,4 km/h (2 Bft) 96,30 %
30.05.2016 04:49 14,8 C 89 % 1003,7 hPa 0,0 l/m 4,6 km/h (1 Bft) W-SW 254 0 min 0,000 mm 0,0 UV-I 0 W/m 13,0 C 14,8 C 6,4 km/h (2 Bft) 100,00 %
30.05.2016 04:50 14,8 C 89 % 1003,7 hPa 0,0 l/m 3,2 km/h (1 Bft) W-SW 254 0 min 0,000 mm 0,0 UV-I 0 W/m 13,0 C 14,8 C 4,8 km/h (1 Bft) 96,15 %
30.05.2016 04:51 14,8 C 89 % 1003,7 hPa 0,0 l/m 2,4 km/h (1 Bft) W-SW 254 0 min 0,000 mm 0,0 UV-I 0 W/m 13,0 C 14,8 C 4,8 km/h (1 Bft) 100,00 %
30.05.2016 04:52 14,8 C 89 % 1003,7 hPa 0,0 l/m 1,5 km/h (1 Bft) W-SW 254 0 min 0,000 mm 0,0 UV-I 0 W/m 13,0 C 14,8 C 3,2 km/h (1 Bft) 100,00 %
30.05.2016 04:53 14,8 C 89 % 1003,7 hPa 0,0 l/m 4,5 km/h (1 Bft) W 259 0 min 0,000 mm 0,0 UV-I 0 W/m 13,0 C 14,8 C 6,4 km/h (2 Bft) 100,00 %
30.05.2016 04:54 14,8 C 89 % 1003,8 hPa 0,0 l/m 4,5 km/h (1 Bft) W-SW 246 0 min 0,000 mm 0,0 UV-I 0 W/m 13,0 C 14,8 C 6,4 km/h (2 Bft) 100,00 %
30.05.2016 04:55 14,8 C 89 % 1003,8 hPa 0,0 l/m 3,4 km/h (1 Bft) W-SW 246 0 min 0,000 mm 0,0 UV-I 0 W/m 13,0 C 14,8 C 4,8 km/h (1 Bft) 100,00 %
30.05.2016 04:56 14,8 C 88 % 1003,8 hPa 0,0 l/m 5,2 km/h (1 Bft) SW 232 0 min 0,000 mm 0,0 UV-I 0 W/m 12,8 C 14,8 C 8,0 km/h (2 Bft) 100,00 %
30.05.2016 04:57 14,8 C 88 % 1003,8 hPa 0,0 l/m 4,4 km/h (1 Bft) SW 236 0 min 0,000 mm 0,0 UV-I 0 W/m 12,8 C 14,8 C 6,4 km/h (2 Bft) 100,00 %
30.05.2016 04:58 14,8 C 88 % 1003,8 hPa 0,0 l/m 1,9 km/h (1 Bft) SW 236 0 min 0,000 mm 0,0 UV-I 0 W/m 12,8 C 14,8 C 3,2 km/h (1 Bft) 100,00 %
30.05.2016 04:59 14,8 C 88 % 1003,8 hPa 0,0 l/m 2,9 km/h (1 Bft) SW 236 0 min 0,000 mm 0,0 UV-I 0 W/m 12,8 C 14,8 C 4,8 km/h (1 Bft) 100,00 %
30.05.2016 05:00 14,8 C 88 % 1003,9 hPa 0,0 l/m 3,0 km/h (1 Bft) S-SW 204 0 min 0,000 mm 0,0 UV-I 0 W/m 12,8 C 14,8 C 4,8 km/h (1 Bft) 100,00 %
30.05.2016 05:02 14,8 C 88 % 1004,0 hPa 0,0 l/m 2,8 km/h (1 Bft) S 189 0 min 0,000 mm 0,0 UV-I 0 W/m 12,8 C 14,8 C 4,8 km/h (1 Bft) 100,00 %
30.05.2016 05:03 14,8 C 88 % 1004,0 hPa 0,0 l/m 3,0 km/h (1 Bft) S 188 0 min 0,000 mm 0,0 UV-I 0 W/m 12,8 C 14,8 C 6,4 km/h (2 Bft) 100,00 %
30.05.2016 05:04 14,8 C 88 % 1004,0 hPa 0,0 l/m 2,0 km/h (1 Bft) S 182 0 min 0,000 mm 0,0 UV-I 0 W/m 12,8 C 14,8 C 3,2 km/h (1 Bft) 100,00 %
30.05.2016 05:05 14,8 C 88 % 1004,0 hPa 0,0 l/m 1,9 km/h (1 Bft) S 182 0 min 0,000 mm 0,0 UV-I 0 W/m 12,8 C 14,8 C 3,2 km/h (1 Bft) 100,00 %
30.05.2016 05:06 14,8 C 88 % 1004,1 hPa 0,0 l/m 2,7 km/h (1 Bft) S 182 0 min 0,000 mm 0,0 UV-I 0 W/m 12,8 C 14,8 C 4,8 km/h (1 Bft) 100,00 %
30.05.2016 05:07 14,8 C 88 % 1004,0 hPa 0,0 l/m 1,2 km/h (1 Bft) S 182 0 min 0,000 mm 0,0 UV-I 0 W/m 12,8 C 14,8 C 3,2 km/h (1 Bft) 96,15 %
30.05.2016 05:08 14,8 C 88 % 1004,1 hPa 0,0 l/m 2,3 km/h (1 Bft) S 182 0 min 0,000 mm 0,0 UV-I 0 W/m 12,8 C 14,8 C 4,8 km/h (1 Bft) 95,83 %
30.05.2016 05:09 14,8 C 88 % 1004,1 hPa 0,0 l/m 1,4 km/h (1 Bft) S 182 0 min 0,000 mm 0,0 UV-I 0 W/m 12,8 C 14,8 C 3,2 km/h (1 Bft) 100,00 %
30.05.2016 05:10 14,8 C 88 % 1004,1 hPa 0,0 l/m 1,3 km/h (1 Bft) S 182 0 min 0,000 mm 0,0 UV-I 0 W/m 12,8 C 14,8 C 3,2 km/h (1 Bft) 100,00 %
30.05.2016 05:11 14,8 C 88 % 1004,1 hPa 0,0 l/m 2,6 km/h (1 Bft) S 182 0 min 0,000 mm 0,0 UV-I 0 W/m 12,8 C 14,8 C 3,2 km/h (1 Bft) 100,00 %
30.05.2016 05:12 14,8 C 88 % 1004,1 hPa 0,0 l/m 2,4 km/h (1 Bft) S 182 0 min 0,000 mm 0,0 UV-I 0 W/m 12,8 C 14,8 C 3,2 km/h (1 Bft) 100,00 %
30.05.2016 05:13 14,8 C 88 % 1004,1 hPa 0,0 l/m 2,6 km/h (1 Bft) S 182 0 min 0,000 mm 0,0 UV-I 0 W/m 12,8 C 14,8 C 3,2 km/h (1 Bft) 91,67 %
30.05.2016 05:14 14,8 C 88 % 1004,1 hPa 0,0 l/m 3,9 km/h (1 Bft) S-SW 192 0 min 0,000 mm 0,0 UV-I 0 W/m 12,8 C 14,8 C 6,4 km/h (2 Bft) 96,15 %
30.05.2016 05:15 14,8 C 88 % 1004,2 hPa 0,0 l/m 4,5 km/h (1 Bft) SW 215 0 min 0,000 mm 0,0 UV-I 0 W/m 12,8 C 14,8 C 6,4 km/h (2 Bft) 100,00 %
30.05.2016 05:16 14,8 C 88 % 1004,1 hPa 0,0 l/m 4,0 km/h (1 Bft) SW 215 0 min 0,000 mm 0,0 UV-I 0 W/m 12,8 C 14,8 C 4,8 km/h (1 Bft) 95,65 %
30.05.2016 05:17 14,9 C 88 % 1004,1 hPa 0,0 l/m 5,1 km/h (1 Bft) SW 223 0 min 0,000 mm 0,0 UV-I 0 W/m 12,9 C 14,9 C 6,4 km/h (2 Bft) 100,00 %
30.05.2016 05:18 14,9 C 88 % 1004,2 hPa 0,0 l/m 4,1 km/h (1 Bft) SW 223 0 min 0,000 mm 0,0 UV-I 0 W/m 12,9 C 14,9 C 6,4 km/h (2 Bft) 91,30 %
30.05.2016 05:19 14,9 C 88 % 1004,2 hPa 0,0 l/m 4,1 km/h (1 Bft) W-SW 248 0 min 0,000 mm 0,0 UV-I 0 W/m 12,9 C 14,9 C 4,8 km/h (1 Bft) 95,83 %
30.05.2016 05:20 14,9 C 87 % 1004,2 hPa 0,0 l/m 3,3 km/h (1 Bft) W-SW 248 0 min 0,000 mm 0,0 UV-I 0 W/m 12,8 C 14,9 C 4,8 km/h (1 Bft) 96,15 %
30.05.2016 05:21 14,9 C 87 % 1004,2 hPa 0,0 l/m 2,6 km/h (1 Bft) W-SW 248 0 min 0,000 mm 0,0 UV-I 0 W/m 12,8 C 14,9 C 4,8 km/h (1 Bft) 95,83 %
30.05.2016 05:22 14,9 C 87 % 1004,2 hPa 0,0 l/m 4,6 km/h (1 Bft) W-SW 242 0 min 0,000 mm 0,0 UV-I 0 W/m 12,8 C 14,9 C 6,4 km/h (2 Bft) 100,00 %
30.05.2016 05:23 14,9 C 87 % 1004,2 hPa 0,0 l/m 5,9 km/h (2 Bft) W-SW 251 0 min 0,000 mm 0,0 UV-I 0 W/m 12,8 C 14,9 C 8,0 km/h (2 Bft) 95,83 %
30.05.2016 05:24 14,9 C 87 % 1004,2 hPa 0,0 l/m 6,0 km/h (2 Bft) W-SW 245 0 min 0,000 mm 0,0 UV-I 0 W/m 12,8 C 14,9 C 8,0 km/h (2 Bft) 100,00 %
30.05.2016 05:25 14,9 C 88 % 1004,2 hPa 0,0 l/m 5,3 km/h (1 Bft) W-SW 253 0 min 0,000 mm 0,0 UV-I 0 W/m 12,9 C 14,9 C 6,4 km/h (2 Bft) 91,67 %
30.05.2016 05:26 14,9 C 88 % 1004,2 hPa 0,0 l/m 5,3 km/h (1 Bft) W-SW 244 0 min 0,000 mm 0,0 UV-I 0 W/m 12,9 C 14,9 C 6,4 km/h (2 Bft) 100,00 %
30.05.2016 05:27 14,9 C 88 % 1004,2 hPa 0,0 l/m 5,6 km/h (1 Bft) W-SW 248 0 min 0,000 mm 0,0 UV-I 0 W/m 12,9 C 14,9 C 6,4 km/h (2 Bft) 95,83 %
30.05.2016 05:28 14,9 C 88 % 1004,2 hPa 0,0 l/m 6,2 km/h (2 Bft) W-SW 246 0 min 0,000 mm 0,0 UV-I 2 W/m 12,9 C 14,9 C 8,0 km/h (2 Bft) 100,00 %
30.05.2016 05:29 14,9 C 88 % 1004,3 hPa 0,0 l/m 5,4 km/h (1 Bft) W-SW 242 0 min 0,000 mm 0,0 UV-I 5 W/m 12,9 C 14,9 C 6,4 km/h (2 Bft) 93,33 %
30.05.2016 05:30 14,9 C 88 % 1004,3 hPa 0,0 l/m 5,7 km/h (1 Bft) SW 236 0 min 0,000 mm 0,0 UV-I 5 W/m 12,9 C 14,9 C 6,4 km/h (2 Bft) 91,30 %
30.05.2016 05:31 14,9 C 87 % 1004,3 hPa 0,0 l/m 7,7 km/h (2 Bft) W-SW 250 0 min 0,000 mm 0,0 UV-I 5 W/m 12,8 C 14,2 C 12,9 km/h (3 Bft) 95,83 %
30.05.2016 05:32 14,9 C 87 % 1004,3 hPa 0,0 l/m 6,2 km/h (2 Bft) W-SW 241 0 min 0,000 mm 0,0 UV-I 5 W/m 12,8 C 14,9 C 11,3 km/h (2 Bft) 95,83 %
30.05.2016 05:33 14,9 C 87 % 1004,3 hPa 0,0 l/m 5,8 km/h (2 Bft) W-SW 250 0 min 0,000 mm 0,0 UV-I 5 W/m 12,8 C 14,9 C 8,0 km/h (2 Bft) 100,00 %
30.05.2016 05:34 14,9 C 87 % 1004,3 hPa 0,0 l/m 6,6 km/h (2 Bft) W 266 0 min 0,000 mm 0,0 UV-I 5 W/m 12,8 C 14,8 C 11,3 km/h (2 Bft) 95,83 %
30.05.2016 05:35 15,0 C 86 % 1004,3 hPa 0,0 l/m 7,6 km/h (2 Bft) W 262 0 min 0,000 mm 0,0 UV-I 5 W/m 12,7 C 14,3 C 11,3 km/h (2 Bft) 91,30 %
30.05.2016 05:36 15,0 C 86 % 1004,3 hPa 0,0 l/m 7,1 km/h (2 Bft) W-SW 241 0 min 0,000 mm 0,0 UV-I 5 W/m 12,7 C 14,6 C 11,3 km/h (2 Bft) 92,59 %
30.05.2016 05:37 15,0 C 86 % 1004,3 hPa 0,0 l/m 6,2 km/h (2 Bft) W-SW 243 0 min 0,000 mm 0,0 UV-I 5 W/m 12,7 C 15,0 C 12,9 km/h (3 Bft) 91,30 %
30.05.2016 05:38 15,1 C 86 % 1004,3 hPa 0,0 l/m 10,1 km/h (2 Bft) W-SW 251 0 min 0,000 mm 0,0 UV-I 5 W/m 12,8 C 13,2 C 12,9 km/h (3 Bft) 95,83 %
30.05.2016 05:39 15,1 C 86 % 1004,3 hPa 0,0 l/m 9,7 km/h (2 Bft) SW 217 0 min 0,000 mm 0,0 UV-I 5 W/m 12,8 C 13,4 C 14,5 km/h (3 Bft) 96,15 %
30.05.2016 05:40 15,1 C 85 % 1004,3 hPa 0,0 l/m 8,2 km/h (2 Bft) W-SW 238 0 min 0,000 mm 0,0 UV-I 5 W/m 12,6 C 14,1 C 12,9 km/h (3 Bft) 100,00 %
30.05.2016 05:41 15,1 C 85 % 1004,3 hPa 0,0 l/m 6,9 km/h (2 Bft) W-SW 248 0 min 0,000 mm 0,0 UV-I 6 W/m 12,6 C 14,8 C 9,7 km/h (2 Bft) 91,30 %
30.05.2016 05:42 15,2 C 85 % 1004,3 hPa 0,0 l/m 6,6 km/h (2 Bft) SW 234 0 min 0,000 mm 0,0 UV-I 7 W/m 12,7 C 15,1 C 9,7 km/h (2 Bft) 100,00 %
30.05.2016 05:43 15,2 C 85 % 1004,3 hPa 0,0 l/m 7,8 km/h (2 Bft) W-SW 237 0 min 0,000 mm 0,0 UV-I 7 W/m 12,7 C 14,4 C 11,3 km/h (2 Bft) 95,65 %
30.05.2016 05:44 15,2 C 85 % 1004,4 hPa 0,0 l/m 7,6 km/h (2 Bft) W 261 0 min 0,000 mm 0,0 UV-I 7 W/m 12,7 C 14,5 C 11,3 km/h (2 Bft) 100,00 %
30.05.2016 05:45 15,2 C 85 % 1004,4 hPa 0,0 l/m 7,2 km/h (2 Bft) W-SW 242 0 min 0,000 mm 0,0 UV-I 7 W/m 12,7 C 14,8 C 9,7 km/h (2 Bft) 95,65 %
30.05.2016 05:46 15,2 C 85 % 1004,4 hPa 0,0 l/m 6,4 km/h (2 Bft) W-SW 255 0 min 0,000 mm 0,0 UV-I 7 W/m 12,7 C 15,2 C 8,0 km/h (2 Bft) 100,00 %
30.05.2016 05:47 15,2 C 85 % 1004,4 hPa 0,0 l/m 7,0 km/h (2 Bft) SW 230 0 min 0,000 mm 0,0 UV-I 2 W/m 12,7 C 14,9 C 11,3 km/h (2 Bft) 95,65 %
30.05.2016 05:48 15,2 C 85 % 1004,4 hPa 0,0 l/m 6,0 km/h (2 Bft) W-SW 247 0 min 0,000 mm 0,0 UV-I 6 W/m 12,7 C 15,2 C 11,3 km/h (2 Bft) 100,00 %
30.05.2016 05:49 15,2 C 85 % 1004,4 hPa 0,0 l/m 7,1 km/h (2 Bft) SW 230 0 min 0,000 mm 0,0 UV-I 7 W/m 12,7 C 14,8 C 9,7 km/h (2 Bft) 100,00 %
30.05.2016 05:50 15,2 C 85 % 1004,4 hPa 0,0 l/m 6,2 km/h (2 Bft) SW 214 0 min 0,000 mm 0,0 UV-I 9 W/m 12,7 C 15,2 C 8,0 km/h (2 Bft) 93,33 %
30.05.2016 05:51 15,2 C 85 % 1004,4 hPa 0,0 l/m 3,8 km/h (1 Bft) SW 219 0 min 0,000 mm 0,0 UV-I 9 W/m 12,7 C 15,2 C 4,8 km/h (1 Bft) 100,00 %
30.05.2016 05:52 15,2 C 85 % 1004,4 hPa 0,0 l/m 4,6 km/h (1 Bft) SW 222 0 min 0,000 mm 0,0 UV-I 9 W/m 12,7 C 15,2 C 6,4 km/h (2 Bft) 95,83 %
30.05.2016 05:53 15,2 C 85 % 1004,4 hPa 0,0 l/m 4,3 km/h (1 Bft) SW 223 0 min 0,000 mm 0,0 UV-I 9 W/m 12,7 C 15,2 C 4,8 km/h (1 Bft) 96,15 %
30.05.2016 05:54 15,2 C 85 % 1004,4 hPa 0,0 l/m 3,5 km/h (1 Bft) SW 223 0 min 0,000 mm 0,0 UV-I 9 W/m 12,7 C 15,2 C 4,8 km/h (1 Bft) 100,00 %
30.05.2016 05:55 15,1 C 85 % 1004,4 hPa 0,0 l/m 4,8 km/h (1 Bft) SW 228 0 min 0,000 mm 0,0 UV-I 9 W/m 12,6 C 15,1 C 6,4 km/h (2 Bft) 100,00 %
30.05.2016 05:56 15,1 C 85 % 1004,4 hPa 0,0 l/m 2,4 km/h (1 Bft) SW 228 0 min 0,000 mm 0,0 UV-I 9 W/m 12,6 C 15,1 C 3,2 km/h (1 Bft) 100,00 %
30.05.2016 05:57 15,1 C 85 % 1004,5 hPa 0,0 l/m 1,6 km/h (1 Bft) SW 228 0 min 0,000 mm 0,0 UV-I 11 W/m 12,6 C 15,1 C 3,2 km/h (1 Bft) 100,00 %
30.05.2016 05:58 15,1 C 85 % 1004,5 hPa 0,0 l/m 2,4 km/h (1 Bft) SW 229 0 min 0,000 mm 0,0 UV-I 11 W/m 12,6 C 15,1 C 3,2 km/h (1 Bft) 100,00 %
30.05.2016 05:59 15,1 C 86 % 1004,5 hPa 0,0 l/m 3,6 km/h (1 Bft) W-SW 246 0 min 0,000 mm 0,0 UV-I 11 W/m 12,8 C 15,1 C 4,8 km/h (1 Bft) 100,00 %
30.05.2016 06:00 15,1 C 86 % 1004,5 hPa 0,0 l/m 4,8 km/h (1 Bft) W-SW 251 0 min 0,000 mm 0,0 UV-I 12 W/m 12,8 C 15,1 C 6,4 km/h (2 Bft) 100,00 %
30.05.2016 06:02 15,1 C 85 % 1004,5 hPa 0,0 l/m 3,9 km/h (1 Bft) W-SW 244 0 min 0,000 mm 0,0 UV-I 13 W/m 12,6 C 15,1 C 4,8 km/h (1 Bft) 100,00 %
30.05.2016 06:03 15,1 C 85 % 1004,5 hPa 0,0 l/m 4,8 km/h (1 Bft) SW 232 0 min 0,000 mm 0,0 UV-I 15 W/m 12,6 C 15,1 C 6,4 km/h (2 Bft) 100,00 %
30.05.2016 06:04 15,1 C 86 % 1004,4 hPa 0,0 l/m 4,5 km/h (1 Bft) SW 219 0 min 0,000 mm 0,0 UV-I 17 W/m 12,8 C 15,1 C 6,4 km/h (2 Bft) 100,00 %
30.05.2016 06:05 15,1 C 86 % 1004,5 hPa 0,0 l/m 4,3 km/h (1 Bft) SW 232 0 min 0,000 mm 0,0 UV-I 18 W/m 12,8 C 15,1 C 6,4 km/h (2 Bft) 100,00 %
30.05.2016 06:06 15,1 C 86 % 1004,5 hPa 0,0 l/m 5,2 km/h (1 Bft) SW 216 0 min 0,000 mm 0,0 UV-I 19 W/m 12,8 C 15,1 C 8,0 km/h (2 Bft) 100,00 %
30.05.2016 06:07 15,0 C 86 % 1004,4 hPa 0,0 l/m 5,6 km/h (1 Bft) SW 215 0 min 0,000 mm 0,0 UV-I 21 W/m 12,7 C 15,0 C 8,0 km/h (2 Bft) 100,00 %
30.05.2016 06:08 15,0 C 87 % 1004,4 hPa 0,0 l/m 5,4 km/h (1 Bft) SW 228 0 min 0,000 mm 0,0 UV-I 23 W/m 12,9 C 15,0 C 8,0 km/h (2 Bft) 100,00 %
30.05.2016 06:09 14,9 C 87 % 1004,4 hPa 0,0 l/m 5,6 km/h (1 Bft) W-SW 242 0 min 0,000 mm 0,0 UV-I 24 W/m 12,8 C 14,9 C 8,0 km/h (2 Bft) 100,00 %
30.05.2016 06:10 14,9 C 87 % 1004,4 hPa 0,0 l/m 6,5 km/h (2 Bft) SW 232 0 min 0,000 mm 0,0 UV-I 26 W/m 12,8 C 14,9 C 9,7 km/h (2 Bft) 100,00 %
30.05.2016 06:11 14,9 C 87 % 1004,3 hPa 0,0 l/m 6,6 km/h (2 Bft) W-SW 248 0 min 0,000 mm 0,0 UV-I 26 W/m 12,8 C 14,8 C 9,7 km/h (2 Bft) 95,83 %
30.05.2016 06:12 14,9 C 87 % 1004,3 hPa 0,0 l/m 7,1 km/h (2 Bft) W-SW 241 0 min 0,000 mm 0,0 UV-I 28 W/m 12,8 C 14,5 C 9,7 km/h (2 Bft) 100,00 %
30.05.2016 06:13 14,9 C 86 % 1004,3 hPa 0,0 l/m 6,6 km/h (2 Bft) SW 220 0 min 0,000 mm 0,0 UV-I 30 W/m 12,6 C 14,8 C 8,0 km/h (2 Bft) 95,65 %
30.05.2016 06:14 14,9 C 86 % 1004,4 hPa 0,0 l/m 7,4 km/h (2 Bft) SW 234 0 min 0,000 mm 0,0 UV-I 32 W/m 12,6 C 14,3 C 9,7 km/h (2 Bft) 100,00 %
30.05.2016 06:15 14,9 C 86 % 1004,4 hPa 0,0 l/m 7,3 km/h (2 Bft) SW 229 0 min 0,000 mm 0,0 UV-I 32 W/m 12,6 C 14,4 C 11,3 km/h (2 Bft) 100,00 %
30.05.2016 06:16 14,9 C 86 % 1004,3 hPa 0,0 l/m 8,8 km/h (2 Bft) SW 234 0 min 0,000 mm 0,0 UV-I 33 W/m 12,6 C 13,6 C 11,3 km/h (2 Bft) 100,00 %
30.05.2016 06:17 14,9 C 86 % 1004,3 hPa 0,0 l/m 8,2 km/h (2 Bft) SW 223 0 min 0,000 mm 0,0 UV-I 34 W/m 12,6 C 13,9 C 11,3 km/h (2 Bft) 95,65 %
30.05.2016 06:18 14,9 C 86 % 1004,3 hPa 0,0 l/m 7,1 km/h (2 Bft) W-SW 241 0 min 0,000 mm 0,0 UV-I 35 W/m 12,6 C 14,5 C 9,7 km/h (2 Bft) 100,00 %
30.05.2016 06:19 14,9 C 86 % 1004,3 hPa 0,0 l/m 6,3 km/h (2 Bft) SW 229 0 min 0,000 mm 0,0 UV-I 37 W/m 12,6 C 14,9 C 8,0 km/h (2 Bft) 100,00 %
30.05.2016 06:20 15,0 C 86 % 1004,4 hPa 0,0 l/m 6,8 km/h (2 Bft) SW 234 0 min 0,000 mm 0,0 UV-I 38 W/m 12,7 C 14,8 C 11,3 km/h (2 Bft) 100,00 %
30.05.2016 06:21 15,0 C 86 % 1004,3 hPa 0,0 l/m 7,6 km/h (2 Bft) W-SW 256 0 min 0,000 mm 0,0 UV-I 39 W/m 12,7 C 14,3 C 11,3 km/h (2 Bft) 95,65 %
30.05.2016 06:22 15,0 C 85 % 1004,3 hPa 0,0 l/m 6,3 km/h (2 Bft) W-SW 248 0 min 0,000 mm 0,0 UV-I 40 W/m 12,5 C 15,0 C 8,0 km/h (2 Bft) 100,00 %
30.05.2016 06:23 15,1 C 85 % 1004,3 hPa 0,0 l/m 6,6 km/h (2 Bft) W-SW 240 0 min 0,000 mm 0,0 UV-I 42 W/m 12,6 C 15,0 C 11,3 km/h (2 Bft) 100,00 %
30.05.2016 06:24 15,1 C 85 % 1004,3 hPa 0,0 l/m 5,8 km/h (2 Bft) SW 216 0 min 0,000 mm 0,0 UV-I 42 W/m 12,6 C 15,1 C 8,0 km/h (2 Bft) 100,00 %
30.05.2016 06:25 15,1 C 85 % 1004,4 hPa 0,0 l/m 10,3 km/h (2 Bft) W-SW 252 0 min 0,000 mm 0,0 UV-I 44 W/m 12,6 C 13,1 C 14,5 km/h (3 Bft) 95,65 %
30.05.2016 06:26 15,1 C 85 % 1004,4 hPa 0,0 l/m 6,7 km/h (2 Bft) W 259 0 min 0,000 mm 0,0 UV-I 46 W/m 12,6 C 14,9 C 9,7 km/h (2 Bft) 100,00 %
30.05.2016 06:27 15,1 C 85 % 1004,4 hPa 0,0 l/m 7,2 km/h (2 Bft) W-SW 239 0 min 0,000 mm 0,0 UV-I 46 W/m 12,6 C 14,6 C 11,3 km/h (2 Bft) 100,00 %
30.05.2016 06:28 15,1 C 85 % 1004,4 hPa 0,0 l/m 7,2 km/h (2 Bft) W-SW 250 0 min 0,000 mm 0,0 UV-I 47 W/m 12,6 C 14,6 C 11,3 km/h (2 Bft) 100,00 %
30.05.2016 06:29 15,2 C 85 % 1004,4 hPa 0,0 l/m 7,6 km/h (2 Bft) SW 232 0 min 0,000 mm 0,0 UV-I 49 W/m 12,7 C 14,5 C 12,9 km/h (3 Bft) 95,83 %
30.05.2016 06:30 15,2 C 85 % 1004,4 hPa 0,0 l/m 8,0 km/h (2 Bft) W-SW 257 0 min 0,000 mm 0,0 UV-I 49 W/m 12,7 C 14,3 C 11,3 km/h (2 Bft) 95,65 %
30.05.2016 06:31 15,2 C 85 % 1004,4 hPa 0,0 l/m 6,0 km/h (2 Bft) W-SW 242 0 min 0,000 mm 0,0 UV-I 51 W/m 12,7 C 15,2 C 6,4 km/h (2 Bft) 95,65 %
30.05.2016 06:32 15,2 C 85 % 1004,4 hPa 0,0 l/m 9,5 km/h (2 Bft) W 263 0 min 0,000 mm 0,0 UV-I 52 W/m 12,7 C 13,6 C 12,9 km/h (3 Bft) 95,83 %
30.05.2016 06:33 15,2 C 84 % 1004,4 hPa 0,0 l/m 6,4 km/h (2 Bft) W-SW 248 0 min 0,000 mm 0,0 UV-I 53 W/m 12,5 C 15,2 C 9,7 km/h (2 Bft) 100,00 %
30.05.2016 06:34 15,2 C 84 % 1004,4 hPa 0,0 l/m 5,8 km/h (2 Bft) W 267 0 min 0,000 mm 0,0 UV-I 54 W/m 12,5 C 15,2 C 9,7 km/h (2 Bft) 100,00 %
30.05.2016 06:35 15,2 C 84 % 1004,5 hPa 0,0 l/m 3,9 km/h (1 Bft) SW 232 0 min 0,000 mm 0,0 UV-I 56 W/m 12,5 C 15,2 C 6,4 km/h (2 Bft) 100,00 %
30.05.2016 06:36 15,2 C 84 % 1004,5 hPa 0,0 l/m 6,0 km/h (2 Bft) W-SW 240 0 min 0,000 mm 0,0 UV-I 56 W/m 12,5 C 15,2 C 8,0 km/h (2 Bft) 95,65 %
30.05.2016 06:37 15,2 C 84 % 1004,5 hPa 0,0 l/m 5,2 km/h (1 Bft) W-SW 248 0 min 0,000 mm 0,0 UV-I 58 W/m 12,5 C 15,2 C 6,4 km/h (2 Bft) 100,00 %
30.05.2016 06:38 15,2 C 84 % 1004,6 hPa 0,0 l/m 4,4 km/h (1 Bft) W-SW 251 0 min 0,000 mm 0,0 UV-I 58 W/m 12,5 C 15,2 C 4,8 km/h (1 Bft) 100,00 %
30.05.2016 06:39 15,2 C 85 % 1004,6 hPa 0,0 l/m 6,2 km/h (2 Bft) W 267 0 min 0,000 mm 0,0 UV-I 58 W/m 12,7 C 15,2 C 9,7 km/h (2 Bft) 100,00 %
30.05.2016 06:40 15,2 C 85 % 1004,6 hPa 0,0 l/m 6,7 km/h (2 Bft) W 261 0 min 0,000 mm 0,0 UV-I 59 W/m 12,7 C 15,0 C 8,0 km/h (2 Bft) 100,00 %
30.05.2016 06:41 15,2 C 84 % 1004,6 hPa 0,0 l/m 5,9 km/h (2 Bft) W-SW 254 0 min 0,000 mm 0,0 UV-I 60 W/m 12,5 C 15,2 C 8,0 km/h (2 Bft) 100,00 %
30.05.2016 06:42 15,2 C 85 % 1004,6 hPa 0,0 l/m 4,8 km/h (1 Bft) W-SW 255 0 min 0,000 mm 0,0 UV-I 62 W/m 12,7 C 15,2 C 6,4 km/h (2 Bft) 100,00 %
30.05.2016 06:43 15,2 C 85 % 1004,6 hPa 0,0 l/m 4,4 km/h (1 Bft) W-SW 246 0 min 0,000 mm 0,0 UV-I 62 W/m 12,7 C 15,2 C 6,4 km/h (2 Bft) 100,00 %
30.05.2016 06:44 15,2 C 85 % 1004,6 hPa 0,0 l/m 4,8 km/h (1 Bft) W-SW 246 0 min 0,000 mm 0,0 UV-I 63 W/m 12,7 C 15,2 C 6,4 km/h (2 Bft) 95,65 %
30.05.2016 06:45 15,2 C 85 % 1004,6 hPa 0,0 l/m 4,5 km/h (1 Bft) SW 216 0 min 0,000 mm 0,0 UV-I 64 W/m 12,7 C 15,2 C 6,4 km/h (2 Bft) 100,00 %
30.05.2016 06:46 15,2 C 85 % 1004,6 hPa 0,0 l/m 5,2 km/h (1 Bft) SW 223 0 min 0,000 mm 0,0 UV-I 66 W/m 12,7 C 15,2 C 8,0 km/h (2 Bft) 100,00 %
30.05.2016 06:47 15,2 C 85 % 1004,6 hPa 0,0 l/m 5,4 km/h (1 Bft) SW 223 0 min 0,000 mm 0,0 UV-I 67 W/m 12,7 C 15,2 C 8,0 km/h (2 Bft) 100,00 %
30.05.2016 06:48 15,2 C 85 % 1004,6 hPa 0,0 l/m 4,8 km/h (1 Bft) SW 225 0 min 0,000 mm 0,0 UV-I 67 W/m 12,7 C 15,2 C 8,0 km/h (2 Bft) 100,00 %
30.05.2016 06:49 15,2 C 86 % 1004,6 hPa 0,0 l/m 5,7 km/h (1 Bft) SW 227 0 min 0,000 mm 0,0 UV-I 69 W/m 12,9 C 15,2 C 8,0 km/h (2 Bft) 100,00 %
30.05.2016 06:50 15,2 C 86 % 1004,6 hPa 0,0 l/m 4,8 km/h (1 Bft) SW 223 0 min 0,000 mm 0,0 UV-I 69 W/m 12,9 C 15,2 C 6,4 km/h (2 Bft) 100,00 %
30.05.2016 06:51 15,2 C 86 % 1004,6 hPa 0,0 l/m 6,4 km/h (2 Bft) SW 232 0 min 0,000 mm 0,0 UV-I 69 W/m 12,9 C 15,2 C 9,7 km/h (2 Bft) 100,00 %
30.05.2016 06:52 15,2 C 85 % 1004,6 hPa 0,0 l/m 3,9 km/h (1 Bft) SW 232 0 min 0,000 mm 0,0 UV-I 69 W/m 12,7 C 15,2 C 4,8 km/h (1 Bft) 100,00 %
30.05.2016 06:53 15,2 C 85 % 1004,6 hPa 0,0 l/m 5,2 km/h (1 Bft) S 178 0 min 0,000 mm 0,0 UV-I 70 W/m 12,7 C 15,2 C 6,4 km/h (2 Bft) 100,00 %
30.05.2016 06:54 15,2 C 85 % 1004,6 hPa 0,0 l/m 4,4 km/h (1 Bft) S-SW 208 0 min 0,000 mm 0,0 UV-I 70 W/m 12,7 C 15,2 C 4,8 km/h (1 Bft) 95,83 %
30.05.2016 06:55 15,2 C 85 % 1004,7 hPa 0,0 l/m 4,3 km/h (1 Bft) SW 227 0 min 0,000 mm 0,0 UV-I 73 W/m 12,7 C 15,2 C 6,4 km/h (2 Bft) 96,15 %
30.05.2016 06:56 15,2 C 85 % 1004,6 hPa 0,0 l/m 6,2 km/h (2 Bft) S 190 0 min 0,000 mm 0,0 UV-I 75 W/m 12,7 C 15,2 C 8,0 km/h (2 Bft) 100,00 %
30.05.2016 06:57 15,2 C 85 % 1004,7 hPa 0,0 l/m 6,0 km/h (2 Bft) W-SW 242 0 min 0,000 mm 0,0 UV-I 77 W/m 12,7 C 15,2 C 9,7 km/h (2 Bft) 96,15 %
30.05.2016 06:58 15,2 C 85 % 1004,7 hPa 0,0 l/m 4,8 km/h (1 Bft) SW 234 0 min 0,000 mm 0,0 UV-I 78 W/m 12,7 C 15,2 C 6,4 km/h (2 Bft) 100,00 %
30.05.2016 06:59 15,2 C 85 % 1004,7 hPa 0,0 l/m 6,0 km/h (2 Bft) W-SW 240 0 min 0,000 mm 0,0 UV-I 79 W/m 12,7 C 15,2 C 8,0 km/h (2 Bft) 95,65 %
30.05.2016 07:00 15,2 C 85 % 1004,7 hPa 0,0 l/m 3,9 km/h (1 Bft) SW 231 0 min 0,000 mm 0,0 UV-I 81 W/m 12,7 C 15,2 C 6,4 km/h (2 Bft) 100,00 %
30.05.2016 07:02 15,3 C 85 % 1004,7 hPa 0,0 l/m 5,2 km/h (1 Bft) SW 232 0 min 0,025 mm 0,0 UV-I 84 W/m 12,8 C 15,3 C 8,0 km/h (2 Bft) 100,00 %
30.05.2016 07:03 15,3 C 85 % 1004,7 hPa 0,0 l/m 6,4 km/h (2 Bft) W-SW 237 0 min 0,000 mm 0,0 UV-I 85 W/m 12,8 C 15,3 C 9,7 km/h (2 Bft) 100,00 %
30.05.2016 07:04 15,3 C 85 % 1004,7 hPa 0,0 l/m 5,2 km/h (1 Bft) SW 229 0 min 0,000 mm 0,0 UV-I 86 W/m 12,8 C 15,3 C 8,0 km/h (2 Bft) 95,83 %
30.05.2016 07:05 15,3 C 85 % 1004,7 hPa 0,0 l/m 4,2 km/h (1 Bft) SW 221 0 min 0,000 mm 0,0 UV-I 88 W/m 12,8 C 15,3 C 8,0 km/h (2 Bft) 95,65 %
30.05.2016 07:06 15,3 C 85 % 1004,7 hPa 0,0 l/m 5,4 km/h (1 Bft) SW 236 0 min 0,000 mm 0,0 UV-I 90 W/m 12,8 C 15,3 C 6,4 km/h (2 Bft) 100,00 %
30.05.2016 07:07 15,3 C 84 % 1004,7 hPa 0,0 l/m 5,1 km/h (1 Bft) SW 234 0 min 0,000 mm 0,0 UV-I 90 W/m 12,6 C 15,3 C 6,4 km/h (2 Bft) 100,00 %
30.05.2016 07:08 15,3 C 85 % 1004,8 hPa 0,0 l/m 4,4 km/h (1 Bft) SW 223 0 min 0,000 mm 0,0 UV-I 92 W/m 12,8 C 15,3 C 6,4 km/h (2 Bft) 100,00 %
30.05.2016 07:09 15,3 C 85 % 1004,7 hPa 0,0 l/m 3,6 km/h (1 Bft) W-SW 244 0 min 0,000 mm 0,0 UV-I 93 W/m 12,8 C 15,3 C 4,8 km/h (1 Bft) 95,83 %
30.05.2016 07:10 15,3 C 85 % 1004,7 hPa 0,0 l/m 3,0 km/h (1 Bft) SW 236 0 min 0,000 mm 0,0 UV-I 93 W/m 12,8 C 15,3 C 4,8 km/h (1 Bft) 100,00 %
30.05.2016 07:11 15,3 C 84 % 1004,7 hPa 0,0 l/m 4,6 km/h (1 Bft) S-SW 211 0 min 0,000 mm 0,0 UV-I 93 W/m 12,6 C 15,3 C 6,4 km/h (2 Bft) 95,83 %
30.05.2016 07:12 15,4 C 84 % 1004,7 hPa 0,0 l/m 2,7 km/h (1 Bft) SW 226 0 min 0,000 mm 0,0 UV-I 93 W/m 12,7 C 15,4 C 3,2 km/h (1 Bft) 95,65 %
30.05.2016 07:13 15,4 C 85 % 1004,7 hPa 0,0 l/m 5,4 km/h (1 Bft) SW 233 0 min 0,000 mm 0,0 UV-I 92 W/m 12,9 C 15,4 C 6,4 km/h (2 Bft) 95,83 %
30.05.2016 07:14 15,4 C 85 % 1004,8 hPa 0,0 l/m 5,2 km/h (1 Bft) SW 219 0 min 0,000 mm 0,0 UV-I 90 W/m 12,9 C 15,4 C 6,4 km/h (2 Bft) 95,65 %
30.05.2016 07:15 15,4 C 85 % 1004,7 hPa 0,0 l/m 4,2 km/h (1 Bft) SW 221 0 min 0,000 mm 0,0 UV-I 90 W/m 12,9 C 15,4 C 6,4 km/h (2 Bft) 91,67 %
30.05.2016 07:16 15,4 C 85 % 1004,8 hPa 0,0 l/m 4,3 km/h (1 Bft) W-SW 244 0 min 0,000 mm 0,0 UV-I 88 W/m 12,9 C 15,4 C 6,4 km/h (2 Bft) 95,65 %
30.05.2016 07:17 15,4 C 85 % 1004,8 hPa 0,0 l/m 5,1 km/h (1 Bft) SW 225 0 min 0,000 mm 0,0 UV-I 88 W/m 12,9 C 15,4 C 6,4 km/h (2 Bft) 100,00 %
30.05.2016 07:18 15,4 C 85 % 1004,8 hPa 0,0 l/m 5,2 km/h (1 Bft) SW 227 0 min 0,000 mm 0,0 UV-I 88 W/m 12,9 C 15,4 C 8,0 km/h (2 Bft) 86,96 %
30.05.2016 07:19 15,4 C 85 % 1004,8 hPa 0,0 l/m 6,2 km/h (2 Bft) SW 236 0 min 0,000 mm 0,0 UV-I 89 W/m 12,9 C 15,4 C 8,0 km/h (2 Bft) 100,00 %
30.05.2016 07:20 15,4 C 85 % 1004,8 hPa 0,0 l/m 4,3 km/h (1 Bft) SW 218 0 min 0,000 mm 0,0 UV-I 89 W/m 12,9 C 15,4 C 6,4 km/h (2 Bft) 95,65 %
30.05.2016 07:21 15,4 C 85 % 1004,9 hPa 0,0 l/m 3,8 km/h (1 Bft) SW 218 0 min 0,000 mm 0,0 UV-I 88 W/m 12,9 C 15,4 C 4,8 km/h (1 Bft) 100,00 %
30.05.2016 07:22 15,4 C 85 % 1004,8 hPa 0,0 l/m 3,9 km/h (1 Bft) SW 221 0 min 0,000 mm 0,0 UV-I 86 W/m 12,9 C 15,4 C 4,8 km/h (1 Bft) 95,65 %
30.05.2016 07:23 15,4 C 86 % 1004,8 hPa 0,0 l/m 3,5 km/h (1 Bft) SW 221 0 min 0,000 mm 0,0 UV-I 86 W/m 13,1 C 15,4 C 4,8 km/h (1 Bft) 95,83 %
30.05.2016 07:24 15,4 C 85 % 1004,9 hPa 0,0 l/m 4,0 km/h (1 Bft) SW 221 0 min 0,000 mm 0,0 UV-I 86 W/m 12,9 C 15,4 C 6,4 km/h (2 Bft) 95,65 %
30.05.2016 07:25 15,4 C 85 % 1004,8 hPa 0,0 l/m 3,7 km/h (1 Bft) SW 221 0 min 0,000 mm 0,0 UV-I 89 W/m 12,9 C 15,4 C 4,8 km/h (1 Bft) 91,67 %
30.05.2016 07:26 15,4 C 85 % 1004,9 hPa 0,0 l/m 2,3 km/h (1 Bft) SW 221 0 min 0,000 mm 0,0 UV-I 93 W/m 12,9 C 15,4 C 3,2 km/h (1 Bft) 95,65 %
30.05.2016 07:27 15,4 C 85 % 1004,9 hPa 0,0 l/m 2,9 km/h (1 Bft) SW 224 0 min 0,000 mm 0,0 UV-I 95 W/m 12,9 C 15,4 C 3,2 km/h (1 Bft) 95,83 %
30.05.2016 07:28 15,4 C 85 % 1004,9 hPa 0,0 l/m 3,0 km/h (1 Bft) SW 224 0 min 0,000 mm 0,0 UV-I 101 W/m 12,9 C 15,4 C 3,2 km/h (1 Bft) 95,65 %
30.05.2016 07:29 15,5 C 85 % 1004,9 hPa 0,0 l/m 2,7 km/h (1 Bft) SW 224 0 min 0,000 mm 0,0 UV-I 107 W/m 13,0 C 15,5 C 4,8 km/h (1 Bft) 95,83 %
30.05.2016 07:30 15,5 C 85 % 1004,9 hPa 0,0 l/m 2,1 km/h (1 Bft) SW 224 0 min 0,000 mm 0,0 UV-I 112 W/m 13,0 C 15,5 C 3,2 km/h (1 Bft) 100,00 %
30.05.2016 07:31 15,6 C 86 % 1004,9 hPa 0,0 l/m 2,0 km/h (1 Bft) SW 224 0 min 0,000 mm 0,0 UV-I 119 W/m 13,3 C 15,6 C 3,2 km/h (1 Bft) 95,83 %
30.05.2016 07:32 15,6 C 86 % 1005,0 hPa 0,0 l/m 2,1 km/h (1 Bft) SW 224 0 min 0,000 mm 0,0 UV-I 128 W/m 13,3 C 15,6 C 4,8 km/h (1 Bft) 95,83 %
30.05.2016 07:33 15,6 C 85 % 1004,9 hPa 0,0 l/m 1,9 km/h (1 Bft) SW 224 0 min 0,000 mm 0,3 UV-I 137 W/m 13,1 C 15,6 C 3,2 km/h (1 Bft) 91,30 %
30.05.2016 07:34 15,6 C 85 % 1005,0 hPa 0,0 l/m 1,5 km/h (1 Bft) SW 224 0 min 0,000 mm 0,5 UV-I 147 W/m 13,1 C 15,6 C 3,2 km/h (1 Bft) 95,83 %
30.05.2016 07:35 15,7 C 85 % 1005,0 hPa 0,0 l/m 2,0 km/h (1 Bft) SW 224 0 min 0,000 mm 0,5 UV-I 156 W/m 13,2 C 15,7 C 3,2 km/h (1 Bft) 95,65 %
30.05.2016 07:36 15,7 C 86 % 1005,0 hPa 0,0 l/m 2,4 km/h (1 Bft) SW 224 0 min 0,000 mm 0,5 UV-I 167 W/m 13,4 C 15,7 C 3,2 km/h (1 Bft) 95,83 %
30.05.2016 07:37 15,7 C 85 % 1005,0 hPa 0,0 l/m 2,1 km/h (1 Bft) SW 224 0 min 0,000 mm 0,5 UV-I 181 W/m 13,2 C 15,7 C 3,2 km/h (1 Bft) 95,65 %
30.05.2016 07:39 15,8 C 86 % 1005,0 hPa 0,0 l/m 1,9 km/h (1 Bft) SW 224 0 min 0,000 mm 0,5 UV-I 193 W/m 13,5 C 15,8 C 3,2 km/h (1 Bft) 97,92 %
30.05.2016 07:40 15,9 C 86 % 1005,0 hPa 0,0 l/m 0,9 km/h (0 Bft) SW 224 0 min 0,000 mm 0,5 UV-I 193 W/m 13,6 C 15,9 C 1,6 km/h (1 Bft) 95,83 %
30.05.2016 07:41 15,9 C 85 % 1005,0 hPa 0,0 l/m 1,8 km/h (1 Bft) SW 224 0 min 0,000 mm 0,5 UV-I 189 W/m 13,4 C 15,9 C 3,2 km/h (1 Bft) 95,65 %
30.05.2016 07:42 15,9 C 84 % 1005,0 hPa 0,0 l/m 1,5 km/h (1 Bft) SW 224 0 min 0,000 mm 0,5 UV-I 186 W/m 13,2 C 15,9 C 4,8 km/h (1 Bft) 100,00 %
30.05.2016 07:43 16,0 C 84 % 1005,0 hPa 0,0 l/m 3,1 km/h (1 Bft) SW 226 0 min 0,000 mm 0,5 UV-I 186 W/m 13,3 C 16,0 C 4,8 km/h (1 Bft) 91,30 %
30.05.2016 07:44 16,1 C 85 % 1005,0 hPa 0,0 l/m 4,2 km/h (1 Bft) SW 226 0 min 0,000 mm 0,5 UV-I 186 W/m 13,6 C 16,1 C 4,8 km/h (1 Bft) 100,00 %
30.05.2016 07:45 16,1 C 84 % 1005,0 hPa 0,0 l/m 3,6 km/h (1 Bft) W-SW 242 0 min 0,000 mm 0,5 UV-I 186 W/m 13,4 C 16,1 C 6,4 km/h (2 Bft) 95,65 %
30.05.2016 07:46 16,2 C 85 % 1005,0 hPa 0,0 l/m 3,9 km/h (1 Bft) W-SW 241 0 min 0,000 mm 0,5 UV-I 190 W/m 13,7 C 16,2 C 4,8 km/h (1 Bft) 100,00 %
30.05.2016 07:47 16,2 C 83 % 1005,1 hPa 0,0 l/m 3,0 km/h (1 Bft) SW 225 0 min 0,000 mm 0,5 UV-I 192 W/m 13,3 C 16,2 C 3,2 km/h (1 Bft) 95,83 %
30.05.2016 07:48 16,2 C 83 % 1005,0 hPa 0,0 l/m 3,2 km/h (1 Bft) SW 231 0 min 0,000 mm 0,5 UV-I 196 W/m 13,3 C 16,2 C 4,8 km/h (1 Bft) 100,00 %
30.05.2016 07:49 16,2 C 84 % 1005,0 hPa 0,0 l/m 3,8 km/h (1 Bft) SW 230 0 min 0,000 mm 0,6 UV-I 200 W/m 13,5 C 16,2 C 4,8 km/h (1 Bft) 91,67 %
30.05.2016 07:50 16,2 C 84 % 1005,0 hPa 0,0 l/m 3,6 km/h (1 Bft) SW 217 0 min 0,000 mm 0,6 UV-I 200 W/m 13,5 C 16,2 C 6,4 km/h (2 Bft) 91,30 %
30.05.2016 07:51 16,3 C 84 % 1005,1 hPa 0,0 l/m 3,4 km/h (1 Bft) SW 227 0 min 0,000 mm 0,6 UV-I 199 W/m 13,6 C 16,3 C 4,8 km/h (1 Bft) 84,62 %
30.05.2016 07:52 16,3 C 84 % 1005,1 hPa 0,0 l/m 4,0 km/h (1 Bft) SW 222 0 min 0,000 mm 0,6 UV-I 199 W/m 13,6 C 16,3 C 4,8 km/h (1 Bft) 82,61 %
30.05.2016 07:53 16,4 C 84 % 1005,1 hPa 0,0 l/m 3,7 km/h (1 Bft) SW 227 0 min 0,000 mm 0,6 UV-I 198 W/m 13,7 C 16,4 C 6,4 km/h (2 Bft) 87,50 %
30.05.2016 07:54 16,4 C 83 % 1005,1 hPa 0,0 l/m 4,7 km/h (1 Bft) W-SW 248 0 min 0,000 mm 0,6 UV-I 201 W/m 13,5 C 16,4 C 6,4 km/h (2 Bft) 100,00 %
30.05.2016 07:55 16,4 C 82 % 1005,1 hPa 0,0 l/m 4,0 km/h (1 Bft) SW 233 0 min 0,000 mm 0,6 UV-I 203 W/m 13,3 C 16,4 C 6,4 km/h (2 Bft) 95,83 %
30.05.2016 07:56 16,4 C 82 % 1005,1 hPa 0,0 l/m 2,7 km/h (1 Bft) SW 233 0 min 0,000 mm 0,6 UV-I 204 W/m 13,3 C 16,4 C 4,8 km/h (1 Bft) 96,43 %
30.05.2016 07:57 16,4 C 81 % 1005,2 hPa 0,0 l/m 1,7 km/h (1 Bft) S 190 0 min 0,000 mm 0,6 UV-I 202 W/m 13,1 C 16,4 C 3,2 km/h (1 Bft) 95,83 %
30.05.2016 07:58 16,4 C 81 % 1005,1 hPa 0,0 l/m 0,9 km/h (0 Bft) S 190 0 min 0,000 mm 0,6 UV-I 202 W/m 13,1 C 16,4 C 1,6 km/h (1 Bft) 95,65 %
30.05.2016 07:59 16,4 C 82 % 1005,1 hPa 0,0 l/m 3,2 km/h (1 Bft) S-SW 192 0 min 0,000 mm 0,6 UV-I 203 W/m 13,3 C 16,4 C 6,4 km/h (2 Bft) 91,67 %
30.05.2016 08:00 16,5 C 81 % 1005,2 hPa 0,0 l/m 6,6 km/h (2 Bft) S 180 0 min 0,076 mm 0,6 UV-I 209 W/m 13,2 C 16,4 C 9,7 km/h (2 Bft) 95,65 %
30.05.2016 08:02 16,5 C 81 % 1005,2 hPa 0,0 l/m 5,1 km/h (1 Bft) S 187 0 min 0,000 mm 0,7 UV-I 219 W/m 13,2 C 16,5 C 8,0 km/h (2 Bft) 97,87 %
30.05.2016 08:03 16,5 C 81 % 1005,2 hPa 0,0 l/m 3,0 km/h (1 Bft) S-SO 148 0 min 0,000 mm 0,7 UV-I 228 W/m 13,2 C 16,5 C 8,0 km/h (2 Bft) 100,00 %
30.05.2016 08:04 16,6 C 80 % 1005,2 hPa 0,0 l/m 4,0 km/h (1 Bft) SW 225 0 min 0,000 mm 0,7 UV-I 236 W/m 13,1 C 16,6 C 4,8 km/h (1 Bft) 96,15 %
30.05.2016 08:05 16,6 C 82 % 1005,2 hPa 0,0 l/m 4,1 km/h (1 Bft) S-SW 195 1 min 0,000 mm 0,7 UV-I 243 W/m 13,5 C 16,6 C 6,4 km/h (2 Bft) 100,00 %
30.05.2016 08:06 16,6 C 81 % 1005,2 hPa 0,0 l/m 7,4 km/h (2 Bft) SW 234 1 min 0,000 mm 0,8 UV-I 252 W/m 13,3 C 16,1 C 9,7 km/h (2 Bft) 95,83 %
30.05.2016 08:07 16,6 C 81 % 1005,2 hPa 0,0 l/m 5,3 km/h (1 Bft) W-SW 243 1 min 0,000 mm 0,8 UV-I 263 W/m 13,3 C 16,6 C 6,4 km/h (2 Bft) 96,15 %
30.05.2016 08:08 16,7 C 81 % 1005,2 hPa 0,0 l/m 5,2 km/h (1 Bft) SW 221 1 min 0,000 mm 0,8 UV-I 267 W/m 13,4 C 16,7 C 6,4 km/h (2 Bft) 100,00 %
30.05.2016 08:09 16,7 C 81 % 1005,2 hPa 0,0 l/m 3,2 km/h (1 Bft) S 176 1 min 0,000 mm 0,8 UV-I 273 W/m 13,4 C 16,7 C 4,8 km/h (1 Bft) 95,83 %
30.05.2016 08:10 16,8 C 80 % 1005,2 hPa 0,0 l/m 5,3 km/h (1 Bft) S-SO 167 1 min 0,000 mm 0,8 UV-I 279 W/m 13,3 C 16,8 C 8,0 km/h (2 Bft) 100,00 %
30.05.2016 08:11 16,8 C 79 % 1005,2 hPa 0,0 l/m 5,2 km/h (1 Bft) S 186 1 min 0,000 mm 0,8 UV-I 282 W/m 13,1 C 16,8 C 8,0 km/h (2 Bft) 95,65 %
30.05.2016 08:12 16,8 C 79 % 1005,2 hPa 0,0 l/m 4,4 km/h (1 Bft) S-SW 197 1 min 0,000 mm 0,8 UV-I 292 W/m 13,1 C 16,8 C 6,4 km/h (2 Bft) 100,00 %
30.05.2016 08:13 16,8 C 80 % 1005,2 hPa 0,0 l/m 7,3 km/h (2 Bft) S 178 1 min 0,000 mm 0,8 UV-I 293 W/m 13,3 C 16,3 C 9,7 km/h (2 Bft) 91,30 %
30.05.2016 08:14 16,9 C 79 % 1005,2 hPa 0,0 l/m 8,0 km/h (2 Bft) S-SW 197 1 min 0,000 mm 0,8 UV-I 288 W/m 13,2 C 16,1 C 16,1 km/h (3 Bft) 100,00 %
30.05.2016 08:15 16,9 C 79 % 1005,2 hPa 0,0 l/m 11,3 km/h (2 Bft) S-SW 212 1 min 0,000 mm 0,8 UV-I 277 W/m 13,2 C 14,7 C 16,1 km/h (3 Bft) 100,00 %
30.05.2016 08:16 16,9 C 78 % 1005,3 hPa 0,0 l/m 7,4 km/h (2 Bft) W-SW 245 0 min 0,000 mm 0,7 UV-I 254 W/m 13,0 C 16,4 C 12,9 km/h (3 Bft) 100,00 %
30.05.2016 08:17 16,9 C 78 % 1005,2 hPa 0,0 l/m 9,3 km/h (2 Bft) W-SW 244 0 min 0,000 mm 0,6 UV-I 196 W/m 13,0 C 15,5 C 14,5 km/h (3 Bft) 95,65 %
30.05.2016 08:18 16,9 C 77 % 1005,2 hPa 0,0 l/m 8,9 km/h (2 Bft) SW 230 0 min 0,000 mm 0,6 UV-I 180 W/m 12,8 C 15,7 C 12,9 km/h (3 Bft) 100,00 %
30.05.2016 08:19 16,9 C 78 % 1005,3 hPa 0,0 l/m 10,1 km/h (2 Bft) SW 223 0 min 0,000 mm 0,6 UV-I 166 W/m 13,0 C 15,2 C 14,5 km/h (3 Bft) 100,00 %
30.05.2016 08:20 16,9 C 79 % 1005,3 hPa 0,0 l/m 8,9 km/h (2 Bft) S 170 0 min 0,000 mm 0,6 UV-I 158 W/m 13,2 C 15,7 C 12,9 km/h (3 Bft) 100,00 %
30.05.2016 08:21 16,8 C 78 % 1005,3 hPa 0,0 l/m 9,7 km/h (2 Bft) S-SW 207 0 min 0,000 mm 0,6 UV-I 151 W/m 12,9 C 15,2 C 14,5 km/h (3 Bft) 91,30 %
30.05.2016 08:22 16,8 C 79 % 1005,3 hPa 0,0 l/m 8,0 km/h (2 Bft) W-SW 238 0 min 0,000 mm 0,6 UV-I 145 W/m 13,1 C 16,0 C 12,9 km/h (3 Bft) 93,33 %
30.05.2016 08:23 16,8 C 80 % 1005,4 hPa 0,0 l/m 4,2 km/h (1 Bft) SW 218 0 min 0,000 mm 0,5 UV-I 138 W/m 13,3 C 16,8 C 6,4 km/h (2 Bft) 100,00 %
30.05.2016 08:24 16,8 C 80 % 1005,4 hPa 0,0 l/m 8,2 km/h (2 Bft) SW 230 0 min 0,000 mm 0,6 UV-I 136 W/m 13,3 C 15,9 C 12,9 km/h (3 Bft) 100,00 %
30.05.2016 08:25 16,8 C 79 % 1005,4 hPa 0,0 l/m 8,1 km/h (2 Bft) SW 221 0 min 0,000 mm 0,6 UV-I 133 W/m 13,1 C 15,9 C 11,3 km/h (2 Bft) 100,00 %
30.05.2016 08:26 16,8 C 79 % 1005,4 hPa 0,0 l/m 9,7 km/h (2 Bft) S-SW 200 0 min 0,000 mm 0,5 UV-I 132 W/m 13,1 C 15,2 C 12,9 km/h (3 Bft) 100,00 %
30.05.2016 08:27 16,8 C 79 % 1005,4 hPa 0,0 l/m 13,3 km/h (3 Bft) W-SW 252 0 min 0,000 mm 0,6 UV-I 137 W/m 13,1 C 13,9 C 17,7 km/h (3 Bft) 100,00 %
30.05.2016 08:28 16,7 C 79 % 1005,4 hPa 0,0 l/m 11,3 km/h (2 Bft) SW 214 0 min 0,000 mm 0,6 UV-I 152 W/m 13,0 C 14,5 C 14,5 km/h (3 Bft) 100,00 %
30.05.2016 08:29 16,7 C 79 % 1005,4 hPa 0,0 l/m 12,0 km/h (2 Bft) W-SW 252 0 min 0,000 mm 0,7 UV-I 165 W/m 13,0 C 14,2 C 17,7 km/h (3 Bft) 100,00 %
30.05.2016 08:30 16,7 C 80 % 1005,4 hPa 0,0 l/m 9,7 km/h (2 Bft) W-SW 238 0 min 0,000 mm 0,7 UV-I 176 W/m 13,2 C 15,1 C 17,7 km/h (3 Bft) 100,00 %
30.05.2016 08:31 16,7 C 78 % 1005,4 hPa 0,0 l/m 10,8 km/h (2 Bft) W 271 0 min 0,000 mm 0,7 UV-I 185 W/m 12,8 C 14,7 C 16,1 km/h (3 Bft) 100,00 %
30.05.2016 08:32 16,7 C 80 % 1005,4 hPa 0,0 l/m 7,6 km/h (2 Bft) W 269 0 min 0,000 mm 0,8 UV-I 197 W/m 13,2 C 16,1 C 11,3 km/h (2 Bft) 100,00 %
30.05.2016 08:33 16,7 C 80 % 1005,4 hPa 0,0 l/m 6,2 km/h (2 Bft) W 259 0 min 0,000 mm 0,8 UV-I 212 W/m 13,2 C 16,7 C 9,7 km/h (2 Bft) 100,00 %
30.05.2016 08:34 16,7 C 81 % 1005,4 hPa 0,0 l/m 5,8 km/h (2 Bft) W-SW 246 0 min 0,000 mm 0,9 UV-I 223 W/m 13,4 C 16,7 C 8,0 km/h (2 Bft) 100,00 %
30.05.2016 08:35 16,7 C 81 % 1005,4 hPa 0,0 l/m 9,7 km/h (2 Bft) SW 232 0 min 0,000 mm 0,9 UV-I 233 W/m 13,4 C 15,1 C 17,7 km/h (3 Bft) 100,00 %
30.05.2016 08:36 16,7 C 81 % 1005,4 hPa 0,0 l/m 10,0 km/h (2 Bft) W-SW 241 0 min 0,000 mm 0,9 UV-I 243 W/m 13,4 C 15,0 C 12,9 km/h (3 Bft) 100,00 %
30.05.2016 08:37 16,7 C 81 % 1005,4 hPa 0,0 l/m 7,1 km/h (2 Bft) SW 223 0 min 0,000 mm 0,9 UV-I 254 W/m 13,4 C 16,3 C 11,3 km/h (2 Bft) 100,00 %
30.05.2016 08:38 16,8 C 81 % 1005,4 hPa 0,0 l/m 4,6 km/h (1 Bft) W-SW 250 0 min 0,000 mm 1,0 UV-I 273 W/m 13,5 C 16,8 C 6,4 km/h (2 Bft) 100,00 %
30.05.2016 08:39 16,8 C 81 % 1005,4 hPa 0,0 l/m 8,2 km/h (2 Bft) W 271 1 min 0,000 mm 1,1 UV-I 289 W/m 13,5 C 15,9 C 12,9 km/h (3 Bft) 100,00 %
30.05.2016 08:40 16,8 C 80 % 1005,4 hPa 0,0 l/m 7,6 km/h (2 Bft) W 259 1 min 0,000 mm 1,1 UV-I 330 W/m 13,3 C 16,2 C 12,9 km/h (3 Bft) 100,00 %
30.05.2016 08:41 16,9 C 80 % 1005,4 hPa 0,0 l/m 7,6 km/h (2 Bft) SW 232 1 min 0,000 mm 1,3 UV-I 400 W/m 13,4 C 16,3 C 11,3 km/h (2 Bft) 100,00 %
30.05.2016 08:42 16,9 C 82 % 1005,4 hPa 0,0 l/m 6,3 km/h (2 Bft) W-SW 253 1 min 0,000 mm 1,3 UV-I 375 W/m 13,8 C 16,9 C 9,7 km/h (2 Bft) 95,65 %
30.05.2016 08:43 17,0 C 79 % 1005,4 hPa 0,0 l/m 9,3 km/h (2 Bft) S 183 1 min 0,000 mm 1,2 UV-I 326 W/m 13,3 C 15,6 C 14,5 km/h (3 Bft) 100,00 %
30.05.2016 08:44 17,1 C 78 % 1005,5 hPa 0,0 l/m 13,2 km/h (3 Bft) SW 221 1 min 0,000 mm 1,0 UV-I 304 W/m 13,2 C 14,3 C 17,7 km/h (3 Bft) 100,00 %
30.05.2016 08:45 17,0 C 78 % 1005,5 hPa 0,0 l/m 12,7 km/h (3 Bft) SW 232 0 min 0,000 mm 0,9 UV-I 256 W/m 13,1 C 14,3 C 20,9 km/h (4 Bft) 100,00 %
30.05.2016 08:46 17,0 C 78 % 1005,5 hPa 0,0 l/m 10,2 km/h (2 Bft) W-SW 251 0 min 0,000 mm 0,9 UV-I 225 W/m 13,1 C 15,2 C 12,9 km/h (3 Bft) 100,00 %
30.05.2016 08:47 17,0 C 78 % 1005,5 hPa 0,0 l/m 8,9 km/h (2 Bft) SW 230 0 min 0,000 mm 0,8 UV-I 210 W/m 13,1 C 15,8 C 14,5 km/h (3 Bft) 100,00 %
30.05.2016 08:48 16,9 C 79 % 1005,5 hPa 0,0 l/m 6,2 km/h (2 Bft) SW 221 0 min 0,000 mm 0,8 UV-I 209 W/m 13,2 C 16,9 C 9,7 km/h (2 Bft) 100,00 %
30.05.2016 08:49 16,9 C 79 % 1005,5 hPa 0,0 l/m 12,0 km/h (2 Bft) W-SW 246 0 min 0,000 mm 0,9 UV-I 218 W/m 13,2 C 14,5 C 14,5 km/h (3 Bft) 100,00 %
30.05.2016 08:50 17,0 C 79 % 1005,5 hPa 0,0 l/m 11,5 km/h (2 Bft) W 259 0 min 0,000 mm 0,9 UV-I 226 W/m 13,3 C 14,8 C 14,5 km/h (3 Bft) 100,00 %
30.05.2016 08:51 16,9 C 79 % 1005,5 hPa 0,0 l/m 12,1 km/h (2 Bft) W-SW 251 0 min 0,000 mm 0,9 UV-I 228 W/m 13,2 C 14,4 C 16,1 km/h (3 Bft) 100,00 %
30.05.2016 08:52 16,9 C 79 % 1005,5 hPa 0,0 l/m 10,4 km/h (2 Bft) W-SW 248 0 min 0,000 mm 0,9 UV-I 233 W/m 13,2 C 15,1 C 14,5 km/h (3 Bft) 100,00 %
30.05.2016 08:53 16,9 C 79 % 1005,5 hPa 0,0 l/m 10,9 km/h (2 Bft) W-SW 245 0 min 0,000 mm 0,9 UV-I 233 W/m 13,2 C 14,9 C 16,1 km/h (3 Bft) 100,00 %
30.05.2016 08:54 16,9 C 79 % 1005,5 hPa 0,0 l/m 10,1 km/h (2 Bft) W-SW 242 0 min 0,000 mm 0,9 UV-I 232 W/m 13,2 C 15,2 C 14,5 km/h (3 Bft) 100,00 %
30.05.2016 08:55 16,9 C 80 % 1005,5 hPa 0,0 l/m 7,6 km/h (2 Bft) W 266 0 min 0,000 mm 0,9 UV-I 232 W/m 13,4 C 16,3 C 11,3 km/h (2 Bft) 100,00 %
30.05.2016 08:56 16,9 C 79 % 1005,5 hPa 0,0 l/m 8,4 km/h (2 Bft) SW 226 0 min 0,000 mm 0,9 UV-I 227 W/m 13,2 C 15,9 C 14,5 km/h (3 Bft) 100,00 %
30.05.2016 08:57 16,9 C 79 % 1005,5 hPa 0,0 l/m 9,7 km/h (2 Bft) SW 231 0 min 0,000 mm 0,9 UV-I 219 W/m 13,2 C 15,3 C 14,5 km/h (3 Bft) 100,00 %
30.05.2016 08:58 16,8 C 79 % 1005,5 hPa 0,0 l/m 10,1 km/h (2 Bft) SW 224 0 min 0,000 mm 0,9 UV-I 226 W/m 13,1 C 15,1 C 16,1 km/h (3 Bft) 100,00 %
30.05.2016 08:59 16,8 C 79 % 1005,5 hPa 0,0 l/m 14,1 km/h (3 Bft) S-SW 196 0 min 0,000 mm 0,9 UV-I 221 W/m 13,1 C 13,6 C 20,9 km/h (4 Bft) 100,00 %
30.05.2016 09:00 16,8 C 78 % 1005,5 hPa 0,0 l/m 16,6 km/h (3 Bft) W-SW 248 0 min 0,000 mm 0,9 UV-I 221 W/m 12,9 C 12,9 C 20,9 km/h (4 Bft) 100,00 %
30.05.2016 09:02 16,8 C 77 % 1005,5 hPa 0,0 l/m 12,7 km/h (3 Bft) W-SW 252 0 min 0,153 mm 0,9 UV-I 242 W/m 12,7 C 14,1 C 19,3 km/h (3 Bft) 95,74 %
30.05.2016 09:03 16,7 C 78 % 1005,5 hPa 0,0 l/m 6,8 km/h (2 Bft) W-SW 244 0 min 0,000 mm 1,0 UV-I 263 W/m 12,8 C 16,5 C 11,3 km/h (2 Bft) 95,83 %
30.05.2016 09:04 16,7 C 79 % 1005,5 hPa 0,0 l/m 8,5 km/h (2 Bft) W-SW 240 0 min 0,000 mm 1,0 UV-I 257 W/m 13,0 C 15,6 C 11,3 km/h (2 Bft) 100,00 %
30.05.2016 09:05 16,8 C 79 % 1005,5 hPa 0,0 l/m 6,5 km/h (2 Bft) W-SW 250 0 min 0,000 mm 1,0 UV-I 249 W/m 13,1 C 16,8 C 9,7 km/h (2 Bft) 100,00 %
30.05.2016 09:06 16,8 C 79 % 1005,5 hPa 0,0 l/m 5,9 km/h (2 Bft) SW 221 0 min 0,000 mm 1,0 UV-I 240 W/m 13,1 C 16,8 C 6,4 km/h (2 Bft) 100,00 %
30.05.2016 09:07 16,8 C 79 % 1005,5 hPa 0,0 l/m 4,3 km/h (1 Bft) SW 236 0 min 0,000 mm 1,0 UV-I 241 W/m 13,1 C 16,8 C 4,8 km/h (1 Bft) 95,65 %
30.05.2016 09:08 16,8 C 79 % 1005,5 hPa 0,0 l/m 4,6 km/h (1 Bft) SW 232 0 min 0,000 mm 1,0 UV-I 235 W/m 13,1 C 16,8 C 6,4 km/h (2 Bft) 100,00 %
30.05.2016 09:09 16,8 C 80 % 1005,5 hPa 0,0 l/m 8,9 km/h (2 Bft) SW 214 0 min 0,000 mm 1,0 UV-I 233 W/m 13,3 C 15,6 C 12,9 km/h (3 Bft) 92,31 %
30.05.2016 09:10 16,9 C 80 % 1005,5 hPa 0,0 l/m 10,5 km/h (2 Bft) S-SW 194 0 min 0,000 mm 1,0 UV-I 229 W/m 13,4 C 15,0 C 14,5 km/h (3 Bft) 100,00 %
30.05.2016 09:11 16,9 C 79 % 1005,5 hPa 0,0 l/m 10,3 km/h (2 Bft) SW 227 0 min 0,000 mm 1,0 UV-I 227 W/m 13,2 C 15,1 C 14,5 km/h (3 Bft) 95,83 %
30.05.2016 09:12 16,9 C 79 % 1005,5 hPa 0,0 l/m 11,0 km/h (2 Bft) SW 220 0 min 0,000 mm 1,0 UV-I 229 W/m 13,2 C 14,8 C 16,1 km/h (3 Bft) 100,00 %
30.05.2016 09:13 16,9 C 79 % 1005,5 hPa 0,0 l/m 10,8 km/h (2 Bft) SW 223 0 min 0,000 mm 1,1 UV-I 238 W/m 13,2 C 14,9 C 14,5 km/h (3 Bft) 93,33 %
30.05.2016 09:14 16,9 C 79 % 1005,5 hPa 0,0 l/m 6,4 km/h (2 Bft) W 260 0 min 0,000 mm 1,1 UV-I 248 W/m 13,2 C 16,9 C 8,0 km/h (2 Bft) 100,00 %
30.05.2016 09:15 16,9 C 80 % 1005,5 hPa 0,0 l/m 8,5 km/h (2 Bft) SW 223 0 min 0,000 mm 1,2 UV-I 260 W/m 13,4 C 15,9 C 12,9 km/h (3 Bft) 95,83 %
30.05.2016 09:16 16,9 C 79 % 1005,5 hPa 0,0 l/m 8,4 km/h (2 Bft) W-SW 254 0 min 0,000 mm 1,2 UV-I 266 W/m 13,2 C 15,9 C 12,9 km/h (3 Bft) 100,00 %
30.05.2016 09:17 16,9 C 79 % 1005,4 hPa 0,0 l/m 7,4 km/h (2 Bft) SW 223 0 min 0,000 mm 1,2 UV-I 269 W/m 13,2 C 16,4 C 11,3 km/h (2 Bft) 87,50 %
30.05.2016 09:18 16,9 C 78 % 1005,4 hPa 0,0 l/m 7,2 km/h (2 Bft) SW 236 0 min 0,000 mm 1,3 UV-I 267 W/m 13,0 C 16,5 C 11,3 km/h (2 Bft) 96,15 %
30.05.2016 09:19 16,9 C 79 % 1005,5 hPa 0,0 l/m 8,6 km/h (2 Bft) S-SW 208 0 min 0,000 mm 1,3 UV-I 272 W/m 13,2 C 15,8 C 11,3 km/h (2 Bft) 100,00 %
30.05.2016 09:20 16,9 C 79 % 1005,4 hPa 0,0 l/m 8,6 km/h (2 Bft) SW 229 0 min 0,000 mm 1,4 UV-I 282 W/m 13,2 C 15,8 C 12,9 km/h (3 Bft) 86,96 %
30.05.2016 09:21 16,9 C 80 % 1005,5 hPa 0,0 l/m 8,2 km/h (2 Bft) S-SW 206 0 min 0,000 mm 1,4 UV-I 299 W/m 13,4 C 16,0 C 17,7 km/h (3 Bft) 100,00 %
30.05.2016 09:22 17,0 C 80 % 1005,5 hPa 0,0 l/m 11,3 km/h (2 Bft) S-SW 207 0 min 0,000 mm 1,5 UV-I 306 W/m 13,5 C 14,8 C 14,5 km/h (3 Bft) 95,65 %
30.05.2016 09:23 17,0 C 79 % 1005,5 hPa 0,0 l/m 10,6 km/h (2 Bft) W 259 0 min 0,000 mm 1,5 UV-I 306 W/m 13,3 C 15,1 C 14,5 km/h (3 Bft) 100,00 %
30.05.2016 09:24 17,1 C 79 % 1005,5 hPa 0,0 l/m 10,7 km/h (2 Bft) SW 221 0 min 0,000 mm 1,4 UV-I 286 W/m 13,4 C 15,2 C 16,1 km/h (3 Bft) 91,30 %
30.05.2016 09:25 17,1 C 78 % 1005,5 hPa 0,0 l/m 8,4 km/h (2 Bft) S-SW 207 0 min 0,000 mm 1,5 UV-I 279 W/m 13,2 C 16,1 C 12,9 km/h (3 Bft) 95,83 %
30.05.2016 09:26 17,1 C 79 % 1005,4 hPa 0,0 l/m 10,2 km/h (2 Bft) W-SW 257 0 min 0,000 mm 1,7 UV-I 308 W/m 13,4 C 15,4 C 17,7 km/h (3 Bft) 95,65 %
30.05.2016 09:27 17,2 C 79 % 1005,5 hPa 0,0 l/m 11,5 km/h (2 Bft) W 261 0 min 0,000 mm 1,8 UV-I 346 W/m 13,5 C 15,0 C 16,1 km/h (3 Bft) 95,83 %
30.05.2016 09:28 17,2 C 79 % 1005,5 hPa 0,0 l/m 7,9 km/h (2 Bft) S-SW 205 0 min 0,000 mm 1,8 UV-I 348 W/m 13,5 C 16,5 C 12,9 km/h (3 Bft) 95,83 %
30.05.2016 09:29 17,2 C 78 % 1005,5 hPa 0,0 l/m 10,5 km/h (2 Bft) SW 236 0 min 0,000 mm 1,9 UV-I 348 W/m 13,3 C 15,4 C 12,9 km/h (3 Bft) 73,91 %
30.05.2016 09:30 17,2 C 78 % 1005,5 hPa 0,0 l/m 12,2 km/h (2 Bft) W-SW 237 0 min 0,000 mm 1,9 UV-I 348 W/m 13,3 C 14,7 C 17,7 km/h (3 Bft) 87,50 %
30.05.2016 09:31 17,2 C 77 % 1005,5 hPa 0,0 l/m 12,7 km/h (3 Bft) S-SW 203 1 min 0,000 mm 2,0 UV-I 359 W/m 13,1 C 14,6 C 16,1 km/h (3 Bft) 88,46 %
30.05.2016 09:32 17,2 C 77 % 1005,5 hPa 0,0 l/m 11,7 km/h (2 Bft) S-SW 201 1 min 0,000 mm 2,0 UV-I 360 W/m 13,1 C 14,9 C 17,7 km/h (3 Bft) 87,50 %
30.05.2016 09:33 17,2 C 77 % 1005,5 hPa 0,0 l/m 8,4 km/h (2 Bft) W 261 1 min 0,000 mm 2,0 UV-I 362 W/m 13,1 C 16,2 C 14,5 km/h (3 Bft) 91,30 %
30.05.2016 09:34 17,2 C 76 % 1005,5 hPa 0,0 l/m 11,3 km/h (2 Bft) SW 223 1 min 0,000 mm 2,1 UV-I 391 W/m 12,9 C 15,1 C 17,7 km/h (3 Bft) 91,67 %
30.05.2016 09:35 17,2 C 77 % 1005,5 hPa 0,0 l/m 9,7 km/h (2 Bft) W 260 1 min 0,000 mm 2,2 UV-I 441 W/m 13,1 C 15,7 C 12,9 km/h (3 Bft) 100,00 %
30.05.2016 09:36 17,3 C 78 % 1005,5 hPa 0,0 l/m 6,5 km/h (2 Bft) W 262 1 min 0,000 mm 2,3 UV-I 462 W/m 13,4 C 17,3 C 11,3 km/h (2 Bft) 91,67 %
30.05.2016 09:37 17,3 C 77 % 1005,6 hPa 0,0 l/m 7,6 km/h (2 Bft) W 271 1 min 0,000 mm 2,4 UV-I 461 W/m 13,2 C 16,7 C 16,1 km/h (3 Bft) 100,00 %
30.05.2016 09:38 17,3 C 77 % 1005,6 hPa 0,0 l/m 11,1 km/h (2 Bft) W-SW 257 1 min 0,000 mm 2,5 UV-I 475 W/m 13,2 C 15,2 C 14,5 km/h (3 Bft) 58,33 %
30.05.2016 09:39 17,3 C 77 % 1005,6 hPa 0,0 l/m 8,3 km/h (2 Bft) W-SW 253 1 min 0,000 mm 2,6 UV-I 529 W/m 13,2 C 16,4 C 14,5 km/h (3 Bft) 92,31 %
30.05.2016 09:40 17,4 C 77 % 1005,5 hPa 0,0 l/m 9,9 km/h (2 Bft) S-SW 202 1 min 0,000 mm 2,4 UV-I 529 W/m 13,3 C 15,8 C 14,5 km/h (3 Bft) 87,50 %
30.05.2016 09:41 17,4 C 76 % 1005,5 hPa 0,0 l/m 9,2 km/h (2 Bft) S 176 1 min 0,000 mm 2,4 UV-I 529 W/m 13,1 C 16,1 C 12,9 km/h (3 Bft) 80,77 %
30.05.2016 09:42 17,3 C 77 % 1005,5 hPa 0,0 l/m 11,3 km/h (2 Bft) W-NW 289 1 min 0,000 mm 2,5 UV-I 529 W/m 13,2 C 15,2 C 17,7 km/h (3 Bft) 87,50 %
30.05.2016 09:43 17,4 C 79 % 1005,6 hPa 0,0 l/m 9,4 km/h (2 Bft) W-SW 250 1 min 0,000 mm 2,5 UV-I 563 W/m 13,7 C 16,0 C 16,1 km/h (3 Bft) 76,92 %
30.05.2016 09:44 17,6 C 78 % 1005,6 hPa 0,0 l/m 16,1 km/h (3 Bft) W 265 1 min 0,000 mm 2,5 UV-I 535 W/m 13,7 C 14,0 C 22,5 km/h (4 Bft) 95,83 %
30.05.2016 09:45 17,6 C 77 % 1005,6 hPa 0,0 l/m 16,4 km/h (3 Bft) SW 229 1 min 0,000 mm 2,2 UV-I 433 W/m 13,5 C 14,0 C 24,1 km/h (4 Bft) 82,61 %
30.05.2016 09:46 17,5 C 76 % 1005,6 hPa 0,0 l/m 11,0 km/h (2 Bft) W-SW 254 1 min 0,000 mm 2,0 UV-I 388 W/m 13,2 C 15,5 C 16,1 km/h (3 Bft) 91,67 %
30.05.2016 09:47 17,5 C 76 % 1005,6 hPa 0,0 l/m 6,0 km/h (2 Bft) SW 222 1 min 0,000 mm 2,3 UV-I 388 W/m 13,2 C 17,5 C 8,0 km/h (2 Bft) 91,30 %
30.05.2016 09:48 17,4 C 78 % 1005,6 hPa 0,0 l/m 7,0 km/h (2 Bft) W 274 1 min 0,000 mm 2,5 UV-I 432 W/m 13,5 C 17,1 C 12,9 km/h (3 Bft) 100,00 %
30.05.2016 09:49 17,4 C 78 % 1005,6 hPa 0,0 l/m 6,4 km/h (2 Bft) W-NW 288 1 min 0,000 mm 2,2 UV-I 392 W/m 13,5 C 17,4 C 11,3 km/h (2 Bft) 95,83 %
30.05.2016 09:50 17,4 C 77 % 1005,6 hPa 0,0 l/m 10,9 km/h (2 Bft) W-SW 245 1 min 0,000 mm 2,1 UV-I 383 W/m 13,3 C 15,4 C 17,7 km/h (3 Bft) 91,30 %
30.05.2016 09:51 17,4 C 79 % 1005,6 hPa 0,0 l/m 8,0 km/h (2 Bft) SW 231 0 min 0,000 mm 2,1 UV-I 366 W/m 13,7 C 16,6 C 11,3 km/h (2 Bft) 100,00 %
30.05.2016 09:52 17,4 C 77 % 1005,6 hPa 0,0 l/m 8,9 km/h (2 Bft) SW 228 0 min 0,000 mm 2,1 UV-I 369 W/m 13,3 C 16,2 C 12,9 km/h (3 Bft) 94,29 %
30.05.2016 09:53 17,3 C 77 % 1005,6 hPa 0,0 l/m 11,8 km/h (2 Bft) SW 217 0 min 0,000 mm 2,1 UV-I 366 W/m 13,2 C 15,0 C 16,1 km/h (3 Bft) 100,00 %
30.05.2016 09:54 17,3 C 77 % 1005,7 hPa 0,0 l/m 8,0 km/h (2 Bft) S 191 0 min 0,000 mm 2,2 UV-I 366 W/m 13,2 C 16,5 C 11,3 km/h (2 Bft) 91,30 %
30.05.2016 09:55 17,3 C 77 % 1005,7 hPa 0,0 l/m 4,5 km/h (1 Bft) SW 225 0 min 0,000 mm 2,2 UV-I 369 W/m 13,2 C 17,3 C 6,4 km/h (2 Bft) 95,83 %
30.05.2016 09:56 17,3 C 77 % 1005,6 hPa 0,0 l/m 6,2 km/h (2 Bft) W 266 0 min 0,000 mm 2,2 UV-I 377 W/m 13,2 C 17,3 C 9,7 km/h (2 Bft) 100,00 %
30.05.2016 09:57 17,3 C 78 % 1005,6 hPa 0,0 l/m 6,8 km/h (2 Bft) W 261 1 min 0,000 mm 2,2 UV-I 386 W/m 13,4 C 17,1 C 11,3 km/h (2 Bft) 100,00 %
30.05.2016 09:58 17,3 C 77 % 1005,7 hPa 0,0 l/m 9,0 km/h (2 Bft) W-SW 248 1 min 0,000 mm 2,3 UV-I 394 W/m 13,2 C 16,1 C 14,5 km/h (3 Bft) 95,65 %
30.05.2016 09:59 17,2 C 77 % 1005,6 hPa 0,0 l/m 6,8 km/h (2 Bft) W 277 1 min 0,000 mm 2,3 UV-I 400 W/m 13,1 C 17,0 C 11,3 km/h (2 Bft) 91,67 %
30.05.2016 10:00 17,2 C 77 % 1005,6 hPa 0,0 l/m 5,2 km/h (1 Bft) W-SW 253 1 min 0,000 mm 2,3 UV-I 403 W/m 13,1 C 17,2 C 11,3 km/h (2 Bft) 100,00 %
30.05.2016 10:02 17,2 C 79 % 1005,7 hPa 0,0 l/m 5,3 km/h (1 Bft) W 259 2 min 0,203 mm 2,3 UV-I 406 W/m 13,5 C 17,2 C 9,7 km/h (2 Bft) 98,00 %
30.05.2016 10:03 17,2 C 78 % 1005,7 hPa 0,0 l/m 3,6 km/h (1 Bft) SW 219 1 min 0,000 mm 2,3 UV-I 407 W/m 13,3 C 17,2 C 6,4 km/h (2 Bft) 95,83 %
30.05.2016 10:04 17,2 C 79 % 1005,7 hPa 0,0 l/m 7,9 km/h (2 Bft) W-SW 253 1 min 0,000 mm 2,3 UV-I 406 W/m 13,5 C 16,5 C 11,3 km/h (2 Bft) 91,30 %
30.05.2016 10:05 17,2 C 79 % 1005,7 hPa 0,0 l/m 7,7 km/h (2 Bft) SW 227 1 min 0,000 mm 2,4 UV-I 417 W/m 13,5 C 16,6 C 11,3 km/h (2 Bft) 95,83 %
30.05.2016 10:06 17,2 C 80 % 1005,7 hPa 0,0 l/m 8,3 km/h (2 Bft) S-SW 205 1 min 0,000 mm 2,4 UV-I 424 W/m 13,7 C 16,3 C 19,3 km/h (3 Bft) 100,00 %
30.05.2016 10:07 17,2 C 78 % 1005,6 hPa 0,0 l/m 10,5 km/h (2 Bft) W-SW 253 1 min 0,000 mm 2,4 UV-I 423 W/m 13,3 C 15,4 C 17,7 km/h (3 Bft) 96,15 %
30.05.2016 10:08 17,2 C 80 % 1005,7 hPa 0,0 l/m 12,8 km/h (3 Bft) W-SW 254 1 min 0,000 mm 2,4 UV-I 415 W/m 13,7 C 14,5 C 17,7 km/h (3 Bft) 95,83 %
30.05.2016 10:09 17,2 C 79 % 1005,7 hPa 0,0 l/m 12,1 km/h (2 Bft) SW 235 1 min 0,000 mm 2,4 UV-I 410 W/m 13,5 C 14,8 C 14,5 km/h (3 Bft) 96,15 %
30.05.2016 10:10 17,2 C 78 % 1005,7 hPa 0,0 l/m 9,5 km/h (2 Bft) W-SW 240 1 min 0,000 mm 2,4 UV-I 397 W/m 13,3 C 15,8 C 14,5 km/h (3 Bft) 100,00 %
30.05.2016 10:11 17,1 C 79 % 1005,7 hPa 0,0 l/m 7,4 km/h (2 Bft) W-SW 240 0 min 0,000 mm 2,4 UV-I 391 W/m 13,4 C 16,6 C 11,3 km/h (2 Bft) 91,30 %
30.05.2016 10:12 17,1 C 79 % 1005,7 hPa 0,0 l/m 5,4 km/h (1 Bft) SW 217 0 min 0,000 mm 2,4 UV-I 395 W/m 13,4 C 17,1 C 8,0 km/h (2 Bft) 100,00 %
30.05.2016 10:13 17,2 C 80 % 1005,7 hPa 0,0 l/m 9,7 km/h (2 Bft) SW 236 1 min 0,000 mm 2,5 UV-I 404 W/m 13,7 C 15,7 C 12,9 km/h (3 Bft) 91,30 %
30.05.2016 10:14 17,2 C 79 % 1005,7 hPa 0,0 l/m 9,1 km/h (2 Bft) W-SW 242 1 min 0,000 mm 2,5 UV-I 416 W/m 13,5 C 15,9 C 14,5 km/h (3 Bft) 100,00 %
30.05.2016 10:15 17,1 C 77 % 1005,7 hPa 0,0 l/m 7,2 km/h (2 Bft) S 181 1 min 0,000 mm 2,6 UV-I 431 W/m 13,0 C 16,7 C 12,9 km/h (3 Bft) 91,30 %
30.05.2016 10:16 17,2 C 77 % 1005,7 hPa 0,0 l/m 6,1 km/h (2 Bft) S 180 1 min 0,000 mm 2,6 UV-I 441 W/m 13,1 C 17,2 C 9,7 km/h (2 Bft) 100,00 %
30.05.2016 10:17 17,1 C 77 % 1005,7 hPa 0,0 l/m 8,3 km/h (2 Bft) S-SW 213 1 min 0,000 mm 2,6 UV-I 436 W/m 13,0 C 16,2 C 14,5 km/h (3 Bft) 95,65 %
30.05.2016 10:18 17,1 C 79 % 1005,7 hPa 0,0 l/m 12,3 km/h (3 Bft) S 187 1 min 0,000 mm 2,6 UV-I 436 W/m 13,4 C 14,6 C 17,7 km/h (3 Bft) 100,00 %
30.05.2016 10:19 17,1 C 79 % 1005,7 hPa 0,0 l/m 5,2 km/h (1 Bft) SW 214 1 min 0,000 mm 2,7 UV-I 451 W/m 13,4 C 17,1 C 9,7 km/h (2 Bft) 96,55 %
30.05.2016 10:20 17,1 C 78 % 1005,8 hPa 0,0 l/m 4,9 km/h (1 Bft) S-SO 161 1 min 0,000 mm 2,8 UV-I 500 W/m 13,2 C 17,1 C 11,3 km/h (2 Bft) 100,00 %
30.05.2016 10:21 17,2 C 79 % 1005,8 hPa 0,0 l/m 3,0 km/h (1 Bft) S 177 1 min 0,000 mm 3,0 UV-I 560 W/m 13,5 C 17,2 C 4,8 km/h (1 Bft) 95,65 %
30.05.2016 10:22 17,2 C 79 % 1005,7 hPa 0,0 l/m 3,1 km/h (1 Bft) S 169 1 min 0,000 mm 3,1 UV-I 544 W/m 13,5 C 17,2 C 6,4 km/h (2 Bft) 91,67 %
30.05.2016 10:23 17,2 C 77 % 1005,8 hPa 0,0 l/m 4,2 km/h (1 Bft) S-SO 167 1 min 0,000 mm 3,1 UV-I 534 W/m 13,1 C 17,2 C 8,0 km/h (2 Bft) 96,15 %
30.05.2016 10:24 17,2 C 78 % 1005,7 hPa 0,0 l/m 7,0 km/h (2 Bft) S-SO 167 1 min 0,000 mm 3,2 UV-I 553 W/m 13,3 C 16,9 C 11,3 km/h (2 Bft) 95,83 %
30.05.2016 10:25 17,2 C 77 % 1005,7 hPa 0,0 l/m 4,7 km/h (1 Bft) S-SO 157 1 min 0,000 mm 3,5 UV-I 642 W/m 13,1 C 17,2 C 8,0 km/h (2 Bft) 95,65 %
30.05.2016 10:26 17,2 C 77 % 1005,7 hPa 0,0 l/m 3,3 km/h (1 Bft) S-SO 157 1 min 0,000 mm 3,8 UV-I 682 W/m 13,1 C 17,2 C 8,0 km/h (2 Bft) 100,00 %
30.05.2016 10:27 17,3 C 78 % 1005,7 hPa 0,0 l/m 3,9 km/h (1 Bft) S-SO 162 1 min 0,000 mm 4,3 UV-I 682 W/m 13,4 C 17,3 C 9,7 km/h (2 Bft) 100,00 %
30.05.2016 10:28 17,6 C 79 % 1005,7 hPa 0,0 l/m 3,4 km/h (1 Bft) W 259 1 min 0,000 mm 4,7 UV-I 682 W/m 13,9 C 17,6 C 6,4 km/h (2 Bft) 91,67 %
30.05.2016 10:29 17,9 C 80 % 1005,6 hPa 0,0 l/m 5,2 km/h (1 Bft) W-SW 240 1 min 0,000 mm 4,9 UV-I 682 W/m 14,4 C 17,9 C 11,3 km/h (2 Bft) 93,33 %
30.05.2016 10:30 18,1 C 76 % 1005,6 hPa 0,0 l/m 3,3 km/h (1 Bft) S 186 1 min 0,000 mm 4,3 UV-I 682 W/m 13,8 C 18,1 C 6,4 km/h (2 Bft) 95,65 %
30.05.2016 10:31 18,2 C 76 % 1005,7 hPa 0,0 l/m 4,4 km/h (1 Bft) S-SW 196 1 min 0,000 mm 3,7 UV-I 654 W/m 13,9 C 18,2 C 6,4 km/h (2 Bft) 100,00 %
30.05.2016 10:32 18,1 C 74 % 1005,6 hPa 0,0 l/m 4,7 km/h (1 Bft) S-SO 162 1 min 0,000 mm 3,5 UV-I 551 W/m 13,4 C 18,1 C 8,0 km/h (2 Bft) 100,00 %
30.05.2016 10:33 18,0 C 75 % 1005,7 hPa 0,0 l/m 7,2 km/h (2 Bft) S-SO 161 1 min 0,000 mm 3,3 UV-I 520 W/m 13,5 C 17,6 C 11,3 km/h (2 Bft) 96,30 %
30.05.2016 10:34 17,9 C 75 % 1005,7 hPa 0,0 l/m 8,3 km/h (2 Bft) W-SW 242 1 min 0,000 mm 3,4 UV-I 537 W/m 13,4 C 17,0 C 12,9 km/h (3 Bft) 96,15 %
30.05.2016 10:35 17,9 C 76 % 1005,7 hPa 0,0 l/m 5,0 km/h (1 Bft) W 264 1 min 0,000 mm 3,6 UV-I 591 W/m 13,6 C 17,9 C 8,0 km/h (2 Bft) 95,83 %
30.05.2016 10:36 17,9 C 76 % 1005,6 hPa 0,0 l/m 5,0 km/h (1 Bft) SW 223 1 min 0,000 mm 3,5 UV-I 541 W/m 13,6 C 17,9 C 6,4 km/h (2 Bft) 95,65 %
30.05.2016 10:37 17,9 C 76 % 1005,6 hPa 0,0 l/m 5,6 km/h (1 Bft) S 190 1 min 0,000 mm 3,4 UV-I 541 W/m 13,6 C 17,9 C 8,0 km/h (2 Bft) 91,67 %
30.05.2016 10:38 17,9 C 75 % 1005,7 hPa 0,0 l/m 5,9 km/h (2 Bft) W 274 1 min 0,000 mm 3,4 UV-I 532 W/m 13,4 C 17,9 C 9,7 km/h (2 Bft) 95,65 %
30.05.2016 10:39 18,0 C 77 % 1005,7 hPa 0,0 l/m 4,9 km/h (1 Bft) SW 236 1 min 0,000 mm 3,4 UV-I 531 W/m 13,9 C 18,0 C 8,0 km/h (2 Bft) 95,83 %
30.05.2016 10:40 18,1 C 78 % 1005,7 hPa 0,0 l/m 7,7 km/h (2 Bft) W 264 1 min 0,000 mm 3,4 UV-I 522 W/m 14,2 C 17,5 C 14,5 km/h (3 Bft) 97,21 %
30.05.2016 10:41 18,2 C 77 % 1005,7 hPa 0,0 l/m 7,3 km/h (2 Bft) W 261 1 min 0,000 mm 3,4 UV-I 513 W/m 14,1 C 17,8 C 11,3 km/h (2 Bft) 97,30 %
30.05.2016 10:42 18,2 C 73 % 1005,7 hPa 0,0 l/m 7,2 km/h (2 Bft) S-SO 163 1 min 0,000 mm 3,4 UV-I 516 W/m 13,3 C 17,8 C 12,9 km/h (3 Bft) 87,50 %
30.05.2016 10:43 18,2 C 74 % 1005,7 hPa 0,0 l/m 8,0 km/h (2 Bft) S 169 1 min 0,000 mm 3,4 UV-I 501 W/m 13,5 C 17,5 C 14,5 km/h (3 Bft) 100,00 %
30.05.2016 10:44 18,2 C 73 % 1005,7 hPa 0,0 l/m 6,6 km/h (2 Bft) S-SO 167 1 min 0,000 mm 3,4 UV-I 501 W/m 13,3 C 18,1 C 11,3 km/h (2 Bft) 87,50 %
30.05.2016 10:45 18,1 C 72 % 1005,7 hPa 0,0 l/m 6,0 km/h (2 Bft) SW 216 1 min 0,000 mm 3,4 UV-I 522 W/m 13,0 C 18,1 C 9,7 km/h (2 Bft) 95,65 %
30.05.2016 10:46 18,1 C 73 % 1005,7 hPa 0,0 l/m 8,5 km/h (2 Bft) S 188 1 min 0,000 mm 3,6 UV-I 540 W/m 13,2 C 17,1 C 11,3 km/h (2 Bft) 95,83 %
30.05.2016 10:47 18,1 C 76 % 1005,8 hPa 0,0 l/m 5,6 km/h (1 Bft) S 181 1 min 0,000 mm 3,7 UV-I 540 W/m 13,8 C 18,1 C 8,0 km/h (2 Bft) 69,57 %
30.05.2016 10:48 18,1 C 75 % 1005,7 hPa 0,0 l/m 6,2 km/h (2 Bft) W 269 1 min 0,000 mm 3,9 UV-I 540 W/m 13,6 C 18,1 C 11,3 km/h (2 Bft) 79,17 %
30.05.2016 10:49 18,2 C 74 % 1005,7 hPa 0,0 l/m 6,8 km/h (2 Bft) W-SW 252 1 min 0,000 mm 4,4 UV-I 540 W/m 13,5 C 18,0 C 11,3 km/h (2 Bft) 91,30 %
30.05.2016 10:50 18,2 C 74 % 1005,8 hPa 0,0 l/m 2,8 km/h (1 Bft) W-SW 252 1 min 0,000 mm 4,2 UV-I 625 W/m 13,5 C 18,2 C 4,8 km/h (1 Bft) 91,67 %
30.05.2016 10:51 18,2 C 75 % 1005,8 hPa 0,0 l/m 4,0 km/h (1 Bft) W 265 1 min 0,000 mm 4,4 UV-I 745 W/m 13,7 C 18,2 C 9,7 km/h (2 Bft) 91,30 %
30.05.2016 10:52 18,3 C 76 % 1005,8 hPa 0,0 l/m 7,7 km/h (2 Bft) S-SW 201 1 min 0,000 mm 3,8 UV-I 745 W/m 14,0 C 17,7 C 12,9 km/h (3 Bft) 75,00 %
30.05.2016 10:53 18,4 C 76 % 1005,8 hPa 0,0 l/m 5,4 km/h (1 Bft) W-SW 242 1 min 0,000 mm 3,6 UV-I 572 W/m 14,1 C 18,4 C 8,0 km/h (2 Bft) 82,61 %
30.05.2016 10:54 18,5 C 74 % 1005,8 hPa 0,0 l/m 5,8 km/h (2 Bft) W-SW 254 1 min 0,000 mm 3,6 UV-I 547 W/m 13,8 C 18,5 C 8,0 km/h (2 Bft) 66,67 %
30.05.2016 10:55 18,5 C 74 % 1005,8 hPa 0,0 l/m 7,4 km/h (2 Bft) S 176 1 min 0,000 mm 3,7 UV-I 547 W/m 13,8 C 18,0 C 12,9 km/h (3 Bft) 60,87 %
30.05.2016 10:56 18,4 C 73 % 1005,8 hPa 0,0 l/m 7,3 km/h (2 Bft) S 186 1 min 0,000 mm 3,5 UV-I 547 W/m 13,5 C 18,0 C 9,7 km/h (2 Bft) 62,50 %
30.05.2016 10:57 18,4 C 74 % 1005,8 hPa 0,0 l/m 8,0 km/h (2 Bft) S-SW 192 1 min 0,000 mm 3,6 UV-I 547 W/m 13,7 C 17,7 C 9,7 km/h (2 Bft) 56,52 %
30.05.2016 10:58 18,3 C 74 % 1005,8 hPa 0,0 l/m 9,7 km/h (2 Bft) S-SW 204 1 min 0,000 mm 3,9 UV-I 547 W/m 13,6 C 16,9 C 14,5 km/h (3 Bft) 58,33 %
30.05.2016 10:59 18,3 C 74 % 1005,8 hPa 0,0 l/m 7,8 km/h (2 Bft) SW 224 1 min 0,000 mm 3,9 UV-I 547 W/m 13,6 C 17,7 C 9,7 km/h (2 Bft) 56,52 %
30.05.2016 11:00 18,3 C 74 % 1005,8 hPa 0,0 l/m 8,1 km/h (2 Bft) W-SW 244 1 min 0,000 mm 4,4 UV-I 547 W/m 13,6 C 17,5 C 12,9 km/h (3 Bft) 58,33 %
30.05.2016 11:02 18,3 C 75 % 1005,8 hPa 0,0 l/m 8,6 km/h (2 Bft) W-SW 248 2 min 0,305 mm 3,8 UV-I 547 W/m 13,8 C 17,3 C 16,1 km/h (3 Bft) 58,00 %
30.05.2016 11:03 18,3 C 73 % 1005,8 hPa 0,0 l/m 9,9 km/h (2 Bft) W-SW 255 1 min 0,000 mm 3,4 UV-I 547 W/m 13,4 C 16,8 C 12,9 km/h (3 Bft) 56,52 %
30.05.2016 11:04 18,3 C 71 % 1005,8 hPa 0,0 l/m 7,4 km/h (2 Bft) W-SW 244 1 min 0,000 mm 3,2 UV-I 547 W/m 12,9 C 17,8 C 11,3 km/h (2 Bft) 66,67 %
30.05.2016 11:05 18,3 C 72 % 1005,8 hPa 0,0 l/m 6,1 km/h (2 Bft) W 261 1 min 0,000 mm 3,1 UV-I 547 W/m 13,2 C 18,3 C 9,7 km/h (2 Bft) 60,87 %
30.05.2016 11:06 18,3 C 73 % 1005,8 hPa 0,0 l/m 7,5 km/h (2 Bft) S 184 1 min 0,000 mm 3,1 UV-I 547 W/m 13,4 C 17,8 C 11,3 km/h (2 Bft) 54,17 %
30.05.2016 11:07 18,3 C 73 % 1005,8 hPa 0,0 l/m 6,9 km/h (2 Bft) SW 227 1 min 0,000 mm 2,9 UV-I 547 W/m 13,4 C 18,1 C 14,5 km/h (3 Bft) 75,00 %
30.05.2016 11:08 18,3 C 73 % 1005,8 hPa 0,0 l/m 7,0 km/h (2 Bft) SW 232 1 min 0,000 mm 2,8 UV-I 478 W/m 13,4 C 18,0 C 11,3 km/h (2 Bft) 91,30 %
30.05.2016 11:09 18,3 C 73 % 1005,8 hPa 0,0 l/m 6,7 km/h (2 Bft) SW 221 0 min 0,000 mm 2,7 UV-I 399 W/m 13,4 C 18,2 C 9,7 km/h (2 Bft) 75,00 %
30.05.2016 11:10 18,3 C 73 % 1005,8 hPa 0,0 l/m 8,5 km/h (2 Bft) S 169 0 min 0,000 mm 2,6 UV-I 389 W/m 13,4 C 17,4 C 14,5 km/h (3 Bft) 82,61 %
30.05.2016 11:11 18,2 C 72 % 1005,8 hPa 0,0 l/m 7,6 km/h (2 Bft) SW 226 0 min 0,000 mm 2,6 UV-I 372 W/m 13,1 C 17,6 C 12,9 km/h (3 Bft) 87,50 %
30.05.2016 11:12 18,2 C 74 % 1005,8 hPa 0,0 l/m 9,5 km/h (2 Bft) W-SW 246 0 min 0,000 mm 2,6 UV-I 366 W/m 13,5 C 16,8 C 16,1 km/h (3 Bft) 95,65 %
30.05.2016 11:13 18,3 C 75 % 1005,8 hPa 0,0 l/m 7,8 km/h (2 Bft) W-SW 243 0 min 0,000 mm 2,6 UV-I 363 W/m 13,8 C 17,7 C 9,7 km/h (2 Bft) 91,67 %
30.05.2016 11:14 18,2 C 72 % 1005,8 hPa 0,0 l/m 7,6 km/h (2 Bft) S-SW 209 0 min 0,000 mm 2,6 UV-I 363 W/m 13,1 C 17,6 C 11,3 km/h (2 Bft) 95,65 %
30.05.2016 11:15 18,3 C 74 % 1005,8 hPa 0,0 l/m 6,2 km/h (2 Bft) SW 222 0 min 0,000 mm 2,6 UV-I 365 W/m 13,6 C 18,3 C 11,3 km/h (2 Bft) 95,83 %
30.05.2016 11:16 18,3 C 73 % 1005,8 hPa 0,0 l/m 4,8 km/h (1 Bft) S 190 0 min 0,000 mm 2,6 UV-I 367 W/m 13,4 C 18,3 C 9,7 km/h (2 Bft) 95,65 %
30.05.2016 11:17 18,3 C 74 % 1005,9 hPa 0,0 l/m 9,0 km/h (2 Bft) SW 232 0 min 0,000 mm 2,7 UV-I 369 W/m 13,6 C 17,1 C 14,5 km/h (3 Bft) 95,83 %
30.05.2016 11:18 18,3 C 73 % 1005,9 hPa 0,0 l/m 6,6 km/h (2 Bft) S-SW 207 0 min 0,000 mm 2,7 UV-I 374 W/m 13,4 C 18,2 C 12,9 km/h (3 Bft) 95,65 %
30.05.2016 11:19 18,2 C 73 % 1005,9 hPa 0,0 l/m 4,7 km/h (1 Bft) S-SW 208 0 min 0,000 mm 2,8 UV-I 384 W/m 13,3 C 18,2 C 8,0 km/h (2 Bft) 100,00 %
30.05.2016 11:20 18,1 C 72 % 1005,9 hPa 0,0 l/m 7,7 km/h (2 Bft) W-SW 244 0 min 0,000 mm 2,9 UV-I 398 W/m 13,0 C 17,5 C 12,9 km/h (3 Bft) 96,88 %
30.05.2016 11:21 18,1 C 74 % 1005,9 hPa 0,0 l/m 6,2 km/h (2 Bft) W-SW 241 0 min 0,000 mm 3,0 UV-I 419 W/m 13,4 C 18,1 C 8,0 km/h (2 Bft) 100,00 %
30.05.2016 11:22 18,1 C 74 % 1005,9 hPa 0,0 l/m 7,0 km/h (2 Bft) S 182 0 min 0,000 mm 3,2 UV-I 425 W/m 13,4 C 17,8 C 9,7 km/h (2 Bft) 86,96 %
30.05.2016 11:23 18,1 C 72 % 1005,9 hPa 0,0 l/m 8,4 km/h (2 Bft) S-SW 196 1 min 0,000 mm 3,4 UV-I 478 W/m 13,0 C 17,2 C 9,7 km/h (2 Bft) 100,00 %
30.05.2016 11:24 18,1 C 72 % 1005,8 hPa 0,0 l/m 5,8 km/h (2 Bft) W 281 1 min 0,000 mm 3,6 UV-I 521 W/m 13,0 C 18,1 C 8,0 km/h (2 Bft) 95,65 %
30.05.2016 11:25 18,2 C 76 % 1005,8 hPa 0,0 l/m 4,9 km/h (1 Bft) W 276 1 min 0,000 mm 3,7 UV-I 555 W/m 13,9 C 18,2 C 6,4 km/h (2 Bft) 95,83 %
30.05.2016 11:26 18,2 C 72 % 1005,8 hPa 0,0 l/m 4,6 km/h (1 Bft) S 190 1 min 0,000 mm 3,9 UV-I 631 W/m 13,1 C 18,2 C 6,4 km/h (2 Bft) 95,83 %
30.05.2016 11:27 18,2 C 73 % 1005,9 hPa 0,0 l/m 4,0 km/h (1 Bft) W 272 1 min 0,000 mm 4,4 UV-I 671 W/m 13,3 C 18,2 C 9,7 km/h (2 Bft) 91,30 %
30.05.2016 11:28 18,3 C 74 % 1005,8 hPa 0,0 l/m 5,5 km/h (1 Bft) W 273 1 min 0,000 mm 4,6 UV-I 690 W/m 13,6 C 18,3 C 9,7 km/h (2 Bft) 100,00 %
30.05.2016 11:29 18,4 C 73 % 1005,9 hPa 0,0 l/m 5,6 km/h (1 Bft) SW 236 1 min 0,000 mm 4,7 UV-I 715 W/m 13,5 C 18,4 C 9,7 km/h (2 Bft) 95,65 %
30.05.2016 11:30 18,6 C 74 % 1005,9 hPa 0,0 l/m 8,1 km/h (2 Bft) W 273 1 min 0,000 mm 4,9 UV-I 768 W/m 13,9 C 17,8 C 16,1 km/h (3 Bft) 95,83 %
30.05.2016 11:31 18,6 C 71 % 1005,9 hPa 0,0 l/m 5,5 km/h (1 Bft) S 170 1 min 0,000 mm 4,5 UV-I 716 W/m 13,2 C 18,6 C 9,7 km/h (2 Bft) 95,65 %
30.05.2016 11:32 18,6 C 68 % 1005,9 hPa 0,0 l/m 3,6 km/h (1 Bft) S 172 1 min 0,000 mm 5,0 UV-I 643 W/m 12,6 C 18,6 C 6,4 km/h (2 Bft) 88,89 %
30.05.2016 11:33 18,6 C 71 % 1005,9 hPa 0,0 l/m 6,5 km/h (2 Bft) SW 229 1 min 0,000 mm 5,7 UV-I 643 W/m 13,2 C 18,6 C 9,7 km/h (2 Bft) 73,91 %
30.05.2016 11:34 18,8 C 71 % 1005,8 hPa 0,0 l/m 7,5 km/h (2 Bft) S-SW 200 1 min 0,000 mm 6,1 UV-I 643 W/m 13,4 C 18,3 C 9,7 km/h (2 Bft) 91,67 %
30.05.2016 11:35 18,8 C 68 % 1005,9 hPa 0,0 l/m 4,4 km/h (1 Bft) S-SO 158 1 min 0,000 mm 6,5 UV-I 643 W/m 12,8 C 18,8 C 9,7 km/h (2 Bft) 95,65 %
30.05.2016 11:36 18,8 C 69 % 1005,8 hPa 0,0 l/m 4,2 km/h (1 Bft) W-SW 254 1 min 0,000 mm 6,3 UV-I 767 W/m 13,0 C 18,8 C 11,3 km/h (2 Bft) 91,67 %
30.05.2016 11:37 18,9 C 72 % 1005,8 hPa 0,0 l/m 8,4 km/h (2 Bft) S-SW 212 1 min 0,000 mm 6,6 UV-I 1082 W/m 13,7 C 18,0 C 14,5 km/h (3 Bft) 90,91 %
30.05.2016 11:38 19,1 C 71 % 1005,8 hPa 0,0 l/m 8,5 km/h (2 Bft) W-SW 240 1 min 0,000 mm 7,0 UV-I 1178 W/m 13,7 C 18,2 C 11,3 km/h (2 Bft) 96,67 %
30.05.2016 11:39 19,2 C 70 % 1005,8 hPa 0,0 l/m 6,2 km/h (2 Bft) S-SW 198 1 min 0,000 mm 7,0 UV-I 1203 W/m 13,6 C 19,2 C 9,7 km/h (2 Bft) 91,30 %
30.05.2016 11:40 19,3 C 68 % 1005,8 hPa 0,0 l/m 9,5 km/h (2 Bft) SW 230 1 min 0,000 mm 6,7 UV-I 1206 W/m 13,2 C 18,0 C 12,9 km/h (3 Bft) 87,50 %
30.05.2016 11:41 19,4 C 71 % 1005,8 hPa 0,0 l/m 7,2 km/h (2 Bft) S-SW 205 1 min 0,000 mm 6,6 UV-I 1206 W/m 14,0 C 19,1 C 9,7 km/h (2 Bft) 88,46 %
30.05.2016 11:42 19,4 C 68 % 1005,8 hPa 0,0 l/m 4,4 km/h (1 Bft) S-SO 159 1 min 0,000 mm 5,5 UV-I 1068 W/m 13,3 C 19,4 C 8,0 km/h (2 Bft) 87,50 %
30.05.2016 11:43 19,4 C 67 % 1005,8 hPa 0,0 l/m 5,0 km/h (1 Bft) S-SW 200 1 min 0,000 mm 5,2 UV-I 736 W/m 13,1 C 19,4 C 8,0 km/h (2 Bft) 86,96 %
30.05.2016 11:44 19,3 C 70 % 1005,8 hPa 0,0 l/m 8,7 km/h (2 Bft) S-SW 202 1 min 0,000 mm 5,0 UV-I 660 W/m 13,7 C 18,3 C 14,5 km/h (3 Bft) 83,33 %
30.05.2016 11:45 19,3 C 68 % 1005,8 hPa 0,0 l/m 9,0 km/h (2 Bft) S 175 1 min 0,000 mm 4,7 UV-I 619 W/m 13,2 C 18,2 C 16,1 km/h (3 Bft) 82,61 %
30.05.2016 11:46 19,2 C 68 % 1005,8 hPa 0,0 l/m 9,5 km/h (2 Bft) S-SW 209 1 min 0,000 mm 4,2 UV-I 614 W/m 13,1 C 17,9 C 14,5 km/h (3 Bft) 79,17 %
30.05.2016 11:47 19,2 C 69 % 1005,8 hPa 0,0 l/m 9,5 km/h (2 Bft) W-SW 238 1 min 0,000 mm 4,1 UV-I 501 W/m 13,4 C 17,9 C 16,1 km/h (3 Bft) 100,00 %
30.05.2016 11:48 19,1 C 69 % 1005,8 hPa 0,0 l/m 10,9 km/h (2 Bft) S-SW 192 1 min 0,000 mm 4,0 UV-I 489 W/m 13,3 C 17,3 C 16,1 km/h (3 Bft) 73,08 %
30.05.2016 11:49 19,2 C 72 % 1005,9 hPa 0,0 l/m 10,5 km/h (2 Bft) S-SW 197 1 min 0,000 mm 4,1 UV-I 521 W/m 14,0 C 17,6 C 14,5 km/h (3 Bft) 75,00 %
30.05.2016 11:50 19,1 C 70 % 1005,9 hPa 0,0 l/m 11,1 km/h (2 Bft) S-SW 211 1 min 0,000 mm 4,6 UV-I 531 W/m 13,5 C 17,3 C 16,1 km/h (3 Bft) 82,61 %
30.05.2016 11:51 19,2 C 70 % 1005,8 hPa 0,0 l/m 12,7 km/h (3 Bft) W-SW 237 1 min 0,000 mm 5,2 UV-I 531 W/m 13,6 C 16,9 C 16,1 km/h (3 Bft) 70,83 %
30.05.2016 11:52 19,2 C 69 % 1005,9 hPa 0,0 l/m 9,0 km/h (2 Bft) SW 219 1 min 0,000 mm 4,9 UV-I 531 W/m 13,4 C 18,1 C 16,1 km/h (3 Bft) 84,62 %
30.05.2016 11:53 19,1 C 71 % 1005,9 hPa 0,0 l/m 8,2 km/h (2 Bft) S-SO 155 1 min 0,000 mm 4,8 UV-I 562 W/m 13,7 C 18,3 C 11,3 km/h (2 Bft) 95,83 %
30.05.2016 11:54 19,1 C 69 % 1005,9 hPa 0,0 l/m 6,8 km/h (2 Bft) S-SO 157 1 min 0,000 mm 4,9 UV-I 682 W/m 13,3 C 18,9 C 9,7 km/h (2 Bft) 86,96 %
30.05.2016 11:55 19,1 C 69 % 1005,9 hPa 0,0 l/m 5,0 km/h (1 Bft) S 172 1 min 0,000 mm 5,5 UV-I 794 W/m 13,3 C 19,1 C 8,0 km/h (2 Bft) 87,50 %
30.05.2016 11:56 19,1 C 70 % 1005,9 hPa 0,0 l/m 7,1 km/h (2 Bft) SO 143 1 min 0,000 mm 4,8 UV-I 905 W/m 13,5 C 18,8 C 11,3 km/h (2 Bft) 92,31 %
30.05.2016 11:57 19,2 C 70 % 1005,8 hPa 0,0 l/m 8,3 km/h (2 Bft) S-SW 204 1 min 0,000 mm 4,2 UV-I 628 W/m 13,6 C 18,4 C 17,7 km/h (3 Bft) 87,50 %
30.05.2016 11:58 19,2 C 69 % 1005,9 hPa 0,0 l/m 10,8 km/h (2 Bft) SW 220 1 min 0,000 mm 4,0 UV-I 521 W/m 13,4 C 17,5 C 14,5 km/h (3 Bft) 73,91 %
30.05.2016 11:59 19,2 C 69 % 1005,9 hPa 0,0 l/m 10,3 km/h (2 Bft) S 169 1 min 0,000 mm 3,9 UV-I 496 W/m 13,4 C 17,7 C 16,1 km/h (3 Bft) 91,67 %
30.05.2016 12:00 19,1 C 70 % 1005,9 hPa 0,0 l/m 6,7 km/h (2 Bft) O-SO 119 1 min 0,000 mm 3,8 UV-I 483 W/m 13,5 C 19,0 C 12,9 km/h (3 Bft) 86,96 %
30.05.2016 12:02 19,1 C 69 % 1005,9 hPa 0,0 l/m 6,4 km/h (2 Bft) S-SO 165 2 min 0,381 mm 3,7 UV-I 475 W/m 13,3 C 19,1 C 11,3 km/h (2 Bft) 94,00 %
30.05.2016 12:03 18,9 C 69 % 1005,9 hPa 0,0 l/m 6,2 km/h (2 Bft) SO 146 0 min 0,000 mm 3,6 UV-I 465 W/m 13,1 C 18,9 C 9,7 km/h (2 Bft) 87,50 %
30.05.2016 12:04 18,9 C 69 % 1005,9 hPa 0,0 l/m 10,1 km/h (2 Bft) S-SO 166 0 min 0,000 mm 3,6 UV-I 459 W/m 13,1 C 17,4 C 17,7 km/h (3 Bft) 82,61 %
30.05.2016 12:05 18,9 C 70 % 1005,8 hPa 0,0 l/m 11,1 km/h (2 Bft) S 181 0 min 0,000 mm 3,6 UV-I 454 W/m 13,3 C 17,0 C 17,7 km/h (3 Bft) 86,67 %
30.05.2016 12:06 18,9 C 71 % 1005,9 hPa 0,0 l/m 5,4 km/h (1 Bft) S-SO 163 0 min 0,000 mm 3,5 UV-I 451 W/m 13,5 C 18,9 C 11,3 km/h (2 Bft) 88,89 %
30.05.2016 12:07 18,9 C 69 % 1005,9 hPa 0,0 l/m 8,4 km/h (2 Bft) S 169 0 min 0,000 mm 3,5 UV-I 449 W/m 13,1 C 18,0 C 11,3 km/h (2 Bft) 92,31 %
30.05.2016 12:08 18,9 C 69 % 1005,9 hPa 0,0 l/m 5,2 km/h (1 Bft) S-SO 167 0 min 0,000 mm 3,5 UV-I 447 W/m 13,1 C 18,9 C 9,7 km/h (2 Bft) 91,67 %
30.05.2016 12:09 18,8 C 71 % 1005,8 hPa 0,0 l/m 6,3 km/h (2 Bft) S-SO 168 0 min 0,000 mm 3,5 UV-I 448 W/m 13,4 C 18,8 C 9,7 km/h (2 Bft) 91,30 %
30.05.2016 12:10 18,8 C 70 % 1005,9 hPa 0,0 l/m 3,9 km/h (1 Bft) S 169 0 min 0,000 mm 3,5 UV-I 450 W/m 13,2 C 18,8 C 6,4 km/h (2 Bft) 91,67 %
30.05.2016 12:11 18,8 C 70 % 1005,9 hPa 0,0 l/m 5,0 km/h (1 Bft) W-SW 257 0 min 0,000 mm 3,6 UV-I 453 W/m 13,2 C 18,8 C 9,7 km/h (2 Bft) 95,65 %
30.05.2016 12:12 18,9 C 73 % 1005,8 hPa 0,0 l/m 6,3 km/h (2 Bft) W-SW 254 0 min 0,000 mm 3,6 UV-I 455 W/m 13,9 C 18,9 C 11,3 km/h (2 Bft) 100,00 %
30.05.2016 12:13 18,9 C 72 % 1005,8 hPa 0,0 l/m 4,8 km/h (1 Bft) W 276 0 min 0,000 mm 3,6 UV-I 455 W/m 13,7 C 18,9 C 6,4 km/h (2 Bft) 82,61 %
30.05.2016 12:14 19,0 C 72 % 1005,8 hPa 0,0 l/m 4,0 km/h (1 Bft) S-SO 163 0 min 0,000 mm 3,6 UV-I 458 W/m 13,8 C 19,0 C 6,4 km/h (2 Bft) 87,50 %
30.05.2016 12:15 19,1 C 70 % 1005,8 hPa 0,0 l/m 6,3 km/h (2 Bft) S-SW 201 0 min 0,000 mm 3,7 UV-I 461 W/m 13,5 C 19,1 C 9,7 km/h (2 Bft) 86,96 %
30.05.2016 12:16 19,0 C 69 % 1005,8 hPa 0,0 l/m 3,8 km/h (1 Bft) SW 218 0 min 0,000 mm 3,7 UV-I 462 W/m 13,2 C 19,0 C 6,4 km/h (2 Bft) 80,00 %
30.05.2016 12:17 19,0 C 71 % 1005,8 hPa 0,0 l/m 7,8 km/h (2 Bft) SW 228 0 min 0,000 mm 3,7 UV-I 464 W/m 13,6 C 18,4 C 12,9 km/h (3 Bft) 78,26 %
30.05.2016 12:18 19,1 C 72 % 1005,8 hPa 0,0 l/m 8,1 km/h (2 Bft) S 180 0 min 0,000 mm 3,7 UV-I 467 W/m 13,9 C 18,4 C 12,9 km/h (3 Bft) 79,17 %
30.05.2016 12:19 19,1 C 70 % 1005,8 hPa 0,0 l/m 6,2 km/h (2 Bft) S 178 0 min 0,000 mm 3,7 UV-I 470 W/m 13,5 C 19,1 C 11,3 km/h (2 Bft) 76,92 %
30.05.2016 12:20 19,1 C 71 % 1005,8 hPa 0,0 l/m 6,6 km/h (2 Bft) W-SW 245 0 min 0,000 mm 3,8 UV-I 475 W/m 13,7 C 19,0 C 11,3 km/h (2 Bft) 79,17 %
30.05.2016 12:21 19,2 C 69 % 1005,8 hPa 0,0 l/m 6,4 km/h (2 Bft) S-SO 159 1 min 0,000 mm 3,8 UV-I 481 W/m 13,4 C 19,2 C 9,7 km/h (2 Bft) 79,17 %
30.05.2016 12:22 19,2 C 69 % 1005,8 hPa 0,0 l/m 3,4 km/h (1 Bft) SW 223 1 min 0,000 mm 3,9 UV-I 491 W/m 13,4 C 19,2 C 4,8 km/h (1 Bft) 82,61 %
30.05.2016 12:23 19,2 C 70 % 1005,8 hPa 0,0 l/m 3,7 km/h (1 Bft) S-SW 202 1 min 0,000 mm 3,9 UV-I 496 W/m 13,6 C 19,2 C 4,8 km/h (1 Bft) 79,17 %
30.05.2016 12:24 19,2 C 70 % 1005,8 hPa 0,0 l/m 3,7 km/h (1 Bft) S 191 1 min 0,000 mm 3,9 UV-I 497 W/m 13,6 C 19,2 C 6,4 km/h (2 Bft) 73,91 %
30.05.2016 12:25 19,2 C 70 % 1005,8 hPa 0,0 l/m 7,6 km/h (2 Bft) S 188 1 min 0,000 mm 3,9 UV-I 496 W/m 13,6 C 18,7 C 12,9 km/h (3 Bft) 87,50 %
30.05.2016 12:26 19,2 C 70 % 1005,8 hPa 0,0 l/m 8,9 km/h (2 Bft) S-SW 194 1 min 0,000 mm 3,9 UV-I 494 W/m 13,6 C 18,2 C 14,5 km/h (3 Bft) 69,23 %
30.05.2016 12:27 19,2 C 69 % 1005,9 hPa 0,0 l/m 4,6 km/h (1 Bft) S-SO 158 1 min 0,000 mm 3,9 UV-I 494 W/m 13,4 C 19,2 C 8,0 km/h (2 Bft) 79,17 %
30.05.2016 12:28 19,2 C 68 % 1005,8 hPa 0,0 l/m 3,6 km/h (1 Bft) S 186 1 min 0,000 mm 3,9 UV-I 486 W/m 13,1 C 19,2 C 6,4 km/h (2 Bft) 78,26 %
30.05.2016 12:29 19,2 C 67 % 1005,8 hPa 0,0 l/m 1,6 km/h (1 Bft) S 179 1 min 0,000 mm 3,9 UV-I 488 W/m 12,9 C 19,2 C 4,8 km/h (1 Bft) 79,17 %
30.05.2016 12:30 19,2 C 69 % 1005,8 hPa 0,0 l/m 5,7 km/h (1 Bft) S-SO 163 1 min 0,000 mm 3,8 UV-I 483 W/m 13,4 C 19,2 C 11,3 km/h (2 Bft) 69,57 %
30.05.2016 12:31 19,2 C 68 % 1005,8 hPa 0,0 l/m 6,4 km/h (2 Bft) S-SO 163 0 min 0,000 mm 3,9 UV-I 482 W/m 13,1 C 19,2 C 9,7 km/h (2 Bft) 62,96 %
30.05.2016 12:32 19,1 C 69 % 1005,8 hPa 0,0 l/m 3,8 km/h (1 Bft) S 177 0 min 0,000 mm 3,9 UV-I 482 W/m 13,3 C 19,1 C 6,4 km/h (2 Bft) 68,18 %
30.05.2016 12:33 19,2 C 71 % 1005,8 hPa 0,0 l/m 5,2 km/h (1 Bft) SO 129 0 min 0,000 mm 3,9 UV-I 482 W/m 13,8 C 19,2 C 11,3 km/h (2 Bft) 60,00 %
30.05.2016 12:34 19,2 C 68 % 1005,8 hPa 0,0 l/m 5,1 km/h (1 Bft) S-SO 150 0 min 0,000 mm 4,0 UV-I 482 W/m 13,1 C 19,2 C 9,7 km/h (2 Bft) 60,87 %
30.05.2016 12:35 19,2 C 69 % 1005,8 hPa 0,0 l/m 4,2 km/h (1 Bft) S-SO 159 1 min 0,000 mm 4,0 UV-I 492 W/m 13,4 C 19,2 C 6,4 km/h (2 Bft) 66,67 %
30.05.2016 12:36 19,2 C 69 % 1005,8 hPa 0,0 l/m 2,4 km/h (1 Bft) S-SO 156 1 min 0,000 mm 4,0 UV-I 516 W/m 13,4 C 19,2 C 4,8 km/h (1 Bft) 88,46 %
30.05.2016 12:37 19,2 C 70 % 1005,8 hPa 0,0 l/m 4,4 km/h (1 Bft) S-SO 163 1 min 0,000 mm 4,0 UV-I 519 W/m 13,6 C 19,2 C 6,4 km/h (2 Bft) 62,50 %
30.05.2016 12:38 19,3 C 68 % 1005,8 hPa 0,0 l/m 5,2 km/h (1 Bft) S-SO 162 1 min 0,000 mm 4,2 UV-I 544 W/m 13,2 C 19,3 C 11,3 km/h (2 Bft) 73,91 %
30.05.2016 12:39 19,3 C 68 % 1005,8 hPa 0,0 l/m 6,2 km/h (2 Bft) S-SW 208 1 min 0,000 mm 4,2 UV-I 550 W/m 13,2 C 19,3 C 11,3 km/h (2 Bft) 58,33 %
30.05.2016 12:40 19,3 C 70 % 1005,8 hPa 0,0 l/m 8,9 km/h (2 Bft) S-SO 157 1 min 0,000 mm 4,2 UV-I 550 W/m 13,7 C 18,3 C 14,5 km/h (3 Bft) 50,00 %
30.05.2016 12:41 19,4 C 67 % 1005,8 hPa 0,0 l/m 4,3 km/h (1 Bft) SO 139 1 min 0,000 mm 4,2 UV-I 555 W/m 13,1 C 19,4 C 9,7 km/h (2 Bft) 66,67 %
30.05.2016 12:42 19,3 C 68 % 1005,8 hPa 0,0 l/m 8,8 km/h (2 Bft) S 178 1 min 0,000 mm 4,4 UV-I 564 W/m 13,2 C 18,3 C 16,1 km/h (3 Bft) 69,57 %
30.05.2016 12:43 19,3 C 68 % 1005,8 hPa 0,0 l/m 5,8 km/h (2 Bft) S 182 1 min 0,000 mm 4,6 UV-I 564 W/m 13,2 C 19,3 C 11,3 km/h (2 Bft) 70,83 %
30.05.2016 12:44 19,3 C 67 % 1005,8 hPa 0,0 l/m 7,2 km/h (2 Bft) S-SW 200 1 min 0,000 mm 4,4 UV-I 564 W/m 13,0 C 19,0 C 14,5 km/h (3 Bft) 69,57 %
30.05.2016 12:45 19,2 C 68 % 1005,8 hPa 0,0 l/m 7,4 km/h (2 Bft) S 179 1 min 0,000 mm 4,2 UV-I 564 W/m 13,1 C 18,8 C 9,7 km/h (2 Bft) 60,00 %
30.05.2016 12:46 19,2 C 68 % 1005,9 hPa 0,0 l/m 4,4 km/h (1 Bft) S-SO 163 1 min 0,000 mm 4,1 UV-I 564 W/m 13,1 C 19,2 C 9,7 km/h (2 Bft) 54,17 %
30.05.2016 12:47 19,2 C 68 % 1005,8 hPa 0,0 l/m 4,6 km/h (1 Bft) S-SO 163 1 min 0,000 mm 4,0 UV-I 564 W/m 13,1 C 19,2 C 8,0 km/h (2 Bft) 56,52 %
30.05.2016 12:48 19,3 C 70 % 1005,9 hPa 0,0 l/m 4,6 km/h (1 Bft) SW 233 1 min 0,000 mm 4,0 UV-I 564 W/m 13,7 C 19,3 C 9,7 km/h (2 Bft) 62,50 %
30.05.2016 12:49 19,3 C 68 % 1005,8 hPa 0,0 l/m 3,7 km/h (1 Bft) S-SO 158 1 min 0,000 mm 4,0 UV-I 524 W/m 13,2 C 19,3 C 6,4 km/h (2 Bft) 65,38 %
30.05.2016 12:50 19,3 C 68 % 1005,9 hPa 0,0 l/m 3,6 km/h (1 Bft) S 170 1 min 0,000 mm 3,9 UV-I 504 W/m 13,2 C 19,3 C 8,0 km/h (2 Bft) 75,00 %
30.05.2016 12:51 19,3 C 69 % 1005,9 hPa 0,0 l/m 4,8 km/h (1 Bft) S-SO 163 1 min 0,000 mm 3,9 UV-I 497 W/m 13,5 C 19,3 C 9,7 km/h (2 Bft) 69,57 %
30.05.2016 12:52 19,3 C 70 % 1005,9 hPa 0,0 l/m 5,6 km/h (1 Bft) SW 217 1 min 0,000 mm 3,9 UV-I 494 W/m 13,7 C 19,3 C 11,3 km/h (2 Bft) 91,67 %
30.05.2016 12:53 19,4 C 68 % 1005,9 hPa 0,0 l/m 8,2 km/h (2 Bft) S-SW 203 1 min 0,000 mm 3,9 UV-I 491 W/m 13,3 C 18,6 C 11,3 km/h (2 Bft) 69,57 %
30.05.2016 12:54 19,5 C 66 % 1005,9 hPa 0,0 l/m 3,5 km/h (1 Bft) S-SO 157 0 min 0,000 mm 3,8 UV-I 482 W/m 13,0 C 19,5 C 8,0 km/h (2 Bft) 91,67 %
30.05.2016 12:55 19,4 C 70 % 1005,8 hPa 0,0 l/m 2,1 km/h (1 Bft) SW 232 0 min 0,000 mm 3,7 UV-I 476 W/m 13,8 C 19,4 C 8,0 km/h (2 Bft) 91,30 %
30.05.2016 12:56 19,6 C 69 % 1005,8 hPa 0,0 l/m 8,7 km/h (2 Bft) W 260 0 min 0,000 mm 3,7 UV-I 472 W/m 13,8 C 18,7 C 11,3 km/h (2 Bft) 100,00 %
30.05.2016 12:57 19,6 C 69 % 1005,8 hPa 0,0 l/m 7,6 km/h (2 Bft) W-SW 252 0 min 0,000 mm 3,6 UV-I 468 W/m 13,8 C 19,1 C 11,3 km/h (2 Bft) 100,00 %
30.05.2016 12:58 19,7 C 68 % 1005,8 hPa 0,0 l/m 2,6 km/h (1 Bft) S-SW 202 0 min 0,000 mm 3,6 UV-I 468 W/m 13,6 C 19,7 C 4,8 km/h (1 Bft) 95,83 %
30.05.2016 12:59 19,7 C 68 % 1005,8 hPa 0,0 l/m 3,7 km/h (1 Bft) S 175 0 min 0,000 mm 3,6 UV-I 468 W/m 13,6 C 19,7 C 8,0 km/h (2 Bft) 100,00 %
30.05.2016 13:00 19,7 C 68 % 1005,8 hPa 0,0 l/m 6,2 km/h (2 Bft) S 173 0 min 0,000 mm 3,6 UV-I 470 W/m 13,6 C 19,7 C 11,3 km/h (2 Bft) 100,00 %
30.05.2016 13:02 19,6 C 67 % 1005,8 hPa 0,0 l/m 4,4 km/h (1 Bft) S 184 0 min 0,305 mm 3,6 UV-I 473 W/m 13,3 C 19,6 C 8,0 km/h (2 Bft) 96,00 %
30.05.2016 13:03 19,5 C 66 % 1005,8 hPa 0,0 l/m 3,7 km/h (1 Bft) S 185 1 min 0,000 mm 3,7 UV-I 485 W/m 13,0 C 19,5 C 8,0 km/h (2 Bft) 100,00 %
30.05.2016 13:04 19,4 C 67 % 1005,8 hPa 0,0 l/m 5,6 km/h (1 Bft) S-SO 163 1 min 0,000 mm 3,7 UV-I 497 W/m 13,1 C 19,4 C 9,7 km/h (2 Bft) 95,83 %
30.05.2016 13:05 19,4 C 66 % 1005,8 hPa 0,0 l/m 4,8 km/h (1 Bft) S-SO 150 1 min 0,000 mm 3,8 UV-I 505 W/m 12,9 C 19,4 C 8,0 km/h (2 Bft) 95,83 %
30.05.2016 13:06 19,5 C 69 % 1005,8 hPa 0,0 l/m 5,0 km/h (1 Bft) O-SO 122 1 min 0,000 mm 3,8 UV-I 511 W/m 13,7 C 19,5 C 9,7 km/h (2 Bft) 92,86 %
30.05.2016 13:07 19,6 C 68 % 1005,8 hPa 0,0 l/m 5,7 km/h (1 Bft) O-SO 107 1 min 0,000 mm 3,7 UV-I 502 W/m 13,5 C 19,6 C 9,7 km/h (2 Bft) 100,00 %
30.05.2016 13:08 19,6 C 67 % 1005,8 hPa 0,0 l/m 4,2 km/h (1 Bft) O-SO 120 1 min 0,000 mm 3,8 UV-I 502 W/m 13,3 C 19,6 C 6,4 km/h (2 Bft) 95,65 %
30.05.2016 13:09 19,6 C 68 % 1005,8 hPa 0,0 l/m 5,2 km/h (1 Bft) S 169 1 min 0,000 mm 4,0 UV-I 517 W/m 13,5 C 19,6 C 9,7 km/h (2 Bft) 100,00 %
30.05.2016 13:10 19,6 C 67 % 1005,8 hPa 0,0 l/m 8,1 km/h (2 Bft) SW 234 0 min 0,000 mm 3,6 UV-I 474 W/m 13,3 C 18,9 C 11,3 km/h (2 Bft) 95,65 %
30.05.2016 13:11 19,7 C 69 % 1005,8 hPa 0,0 l/m 8,5 km/h (2 Bft) W-SW 242 0 min 0,000 mm 3,5 UV-I 460 W/m 13,8 C 18,8 C 12,9 km/h (3 Bft) 100,00 %
30.05.2016 13:12 19,7 C 68 % 1005,8 hPa 0,0 l/m 6,7 km/h (2 Bft) SW 235 0 min 0,000 mm 3,5 UV-I 448 W/m 13,6 C 19,6 C 8,0 km/h (2 Bft) 96,15 %
30.05.2016 13:13 19,7 C 67 % 1005,8 hPa 0,0 l/m 7,3 km/h (2 Bft) SW 232 0 min 0,000 mm 3,4 UV-I 438 W/m 13,4 C 19,3 C 9,7 km/h (2 Bft) 95,83 %
30.05.2016 13:14 19,7 C 66 % 1005,8 hPa 0,0 l/m 6,0 km/h (2 Bft) W-SW 257 0 min 0,000 mm 3,3 UV-I 427 W/m 13,2 C 19,7 C 8,0 km/h (2 Bft) 95,65 %
30.05.2016 13:15 19,7 C 67 % 1005,8 hPa 0,0 l/m 4,8 km/h (1 Bft) W-SW 242 0 min 0,000 mm 3,2 UV-I 416 W/m 13,4 C 19,7 C 6,4 km/h (2 Bft) 95,83 %
30.05.2016 13:16 19,7 C 67 % 1005,8 hPa 0,0 l/m 5,0 km/h (1 Bft) SW 228 0 min 0,000 mm 3,2 UV-I 405 W/m 13,4 C 19,7 C 6,4 km/h (2 Bft) 100,00 %
30.05.2016 13:17 19,6 C 65 % 1005,8 hPa 0,0 l/m 2,5 km/h (1 Bft) SW 227 0 min 0,000 mm 3,1 UV-I 396 W/m 12,8 C 19,6 C 4,8 km/h (1 Bft) 91,67 %
30.05.2016 13:18 19,6 C 66 % 1005,8 hPa 0,0 l/m 0,7 km/h (0 Bft) SW 227 0 min 0,000 mm 3,1 UV-I 387 W/m 13,1 C 19,6 C 1,6 km/h (1 Bft) 100,00 %
30.05.2016 13:19 19,6 C 69 % 1005,7 hPa 0,0 l/m 0,2 km/h (0 Bft) SW 227 0 min 0,000 mm 3,0 UV-I 385 W/m 13,8 C 19,6 C 1,6 km/h (1 Bft) 87,50 %
30.05.2016 13:20 19,6 C 67 % 1005,8 hPa 0,0 l/m 0,4 km/h (0 Bft) SW 227 0 min 0,000 mm 3,0 UV-I 380 W/m 13,3 C 19,6 C 1,6 km/h (1 Bft) 91,67 %
30.05.2016 13:21 19,6 C 67 % 1005,8 hPa 0,0 l/m 1,7 km/h (1 Bft) SO 136 0 min 0,000 mm 3,0 UV-I 382 W/m 13,3 C 19,6 C 3,2 km/h (1 Bft) 91,30 %
30.05.2016 13:22 19,6 C 68 % 1005,7 hPa 0,0 l/m 3,1 km/h (1 Bft) SO 128 0 min 0,000 mm 3,1 UV-I 390 W/m 13,5 C 19,6 C 4,8 km/h (1 Bft) 95,83 %
30.05.2016 13:23 19,6 C 68 % 1005,8 hPa 0,0 l/m 2,9 km/h (1 Bft) SO 127 0 min 0,000 mm 3,1 UV-I 398 W/m 13,5 C 19,6 C 6,4 km/h (2 Bft) 95,65 %
30.05.2016 13:24 19,6 C 69 % 1005,7 hPa 0,0 l/m 5,9 km/h (2 Bft) O-SO 105 0 min 0,000 mm 3,1 UV-I 404 W/m 13,8 C 19,6 C 9,7 km/h (2 Bft) 95,83 %
30.05.2016 13:25 19,6 C 67 % 1005,8 hPa 0,0 l/m 4,6 km/h (1 Bft) O-SO 105 0 min 0,000 mm 3,2 UV-I 410 W/m 13,3 C 19,6 C 6,4 km/h (2 Bft) 95,65 %
30.05.2016 13:26 19,6 C 66 % 1005,7 hPa 0,0 l/m 2,9 km/h (1 Bft) O-SO 107 0 min 0,000 mm 3,3 UV-I 417 W/m 13,1 C 19,6 C 4,8 km/h (1 Bft) 95,83 %
30.05.2016 13:27 19,6 C 67 % 1005,7 hPa 0,0 l/m 1,5 km/h (1 Bft) O-SO 107 0 min 0,000 mm 3,3 UV-I 421 W/m 13,3 C 19,6 C 3,2 km/h (1 Bft) 96,15 %
30.05.2016 13:28 19,6 C 66 % 1005,7 hPa 0,0 l/m 2,7 km/h (1 Bft) O-SO 112 0 min 0,000 mm 3,3 UV-I 426 W/m 13,1 C 19,6 C 4,8 km/h (1 Bft) 100,00 %
30.05.2016 13:29 19,6 C 69 % 1005,7 hPa 0,0 l/m 3,6 km/h (1 Bft) O-SO 110 0 min 0,000 mm 3,4 UV-I 432 W/m 13,8 C 19,6 C 4,8 km/h (1 Bft) 91,30 %
30.05.2016 13:30 19,6 C 65 % 1005,7 hPa 0,0 l/m 3,4 km/h (1 Bft) O 94 0 min 0,000 mm 3,5 UV-I 437 W/m 12,8 C 19,6 C 4,8 km/h (1 Bft) 100,00 %
30.05.2016 13:31 19,6 C 66 % 1005,7 hPa 0,0 l/m 2,8 km/h (1 Bft) O 94 0 min 0,000 mm 3,5 UV-I 445 W/m 13,1 C 19,6 C 3,2 km/h (1 Bft) 95,65 %
30.05.2016 13:32 19,6 C 65 % 1005,8 hPa 0,0 l/m 1,9 km/h (1 Bft) O 94 0 min 0,000 mm 3,6 UV-I 455 W/m 12,8 C 19,6 C 3,2 km/h (1 Bft) 100,00 %
30.05.2016 13:33 19,6 C 68 % 1005,7 hPa 0,0 l/m 1,6 km/h (1 Bft) O 94 0 min 0,000 mm 3,6 UV-I 462 W/m 13,5 C 19,6 C 3,2 km/h (1 Bft) 95,65 %
30.05.2016 13:34 19,7 C 69 % 1005,7 hPa 0,0 l/m 1,5 km/h (1 Bft) O 94 0 min 0,000 mm 3,6 UV-I 467 W/m 13,8 C 19,7 C 3,2 km/h (1 Bft) 100,00 %
30.05.2016 13:35 19,8 C 71 % 1005,7 hPa 0,0 l/m 1,7 km/h (1 Bft) O 94 0 min 0,000 mm 3,7 UV-I 469 W/m 14,4 C 19,8 C 3,2 km/h (1 Bft) 100,00 %
30.05.2016 13:36 19,9 C 69 % 1005,8 hPa 0,0 l/m 4,7 km/h (1 Bft) S 178 0 min 0,000 mm 3,7 UV-I 469 W/m 14,0 C 19,9 C 6,4 km/h (2 Bft) 100,00 %
30.05.2016 13:37 20,0 C 65 % 1005,7 hPa 0,0 l/m 5,6 km/h (1 Bft) SW 228 0 min 0,000 mm 3,6 UV-I 466 W/m 13,2 C 20,0 C 8,0 km/h (2 Bft) 95,83 %
30.05.2016 13:38 20,1 C 67 % 1005,7 hPa 0,0 l/m 5,4 km/h (1 Bft) SW 235 0 min 0,000 mm 3,6 UV-I 464 W/m 13,8 C 20,1 C 8,0 km/h (2 Bft) 95,65 %
30.05.2016 13:39 20,1 C 67 % 1005,7 hPa 0,0 l/m 6,0 km/h (2 Bft) S-SW 200 0 min 0,000 mm 3,6 UV-I 462 W/m 13,8 C 20,1 C 9,7 km/h (2 Bft) 100,00 %
30.05.2016 13:40 20,1 C 64 % 1005,7 hPa 0,0 l/m 6,1 km/h (2 Bft) S 188 0 min 0,000 mm 3,6 UV-I 461 W/m 13,1 C 20,1 C 9,7 km/h (2 Bft) 91,30 %
30.05.2016 13:41 20,0 C 67 % 1005,7 hPa 0,0 l/m 2,6 km/h (1 Bft) S 188 0 min 0,000 mm 3,7 UV-I 463 W/m 13,7 C 20,0 C 4,8 km/h (1 Bft) 100,00 %
30.05.2016 13:42 19,9 C 64 % 1005,7 hPa 0,0 l/m 2,1 km/h (1 Bft) W-SW 237 0 min 0,000 mm 3,7 UV-I 465 W/m 12,9 C 19,9 C 3,2 km/h (1 Bft) 100,00 %
30.05.2016 13:43 19,8 C 64 % 1005,7 hPa 0,0 l/m 3,3 km/h (1 Bft) S-SW 213 0 min 0,000 mm 3,7 UV-I 469 W/m 12,8 C 19,8 C 4,8 km/h (1 Bft) 100,00 %
30.05.2016 13:44 19,8 C 64 % 1005,7 hPa 0,0 l/m 1,3 km/h (1 Bft) S-SW 213 0 min 0,000 mm 3,8 UV-I 476 W/m 12,8 C 19,8 C 1,6 km/h (1 Bft) 95,65 %
30.05.2016 13:45 19,8 C 66 % 1005,6 hPa 0,0 l/m 1,3 km/h (1 Bft) W 267 1 min 0,000 mm 3,8 UV-I 483 W/m 13,3 C 19,8 C 3,2 km/h (1 Bft) 100,00 %
30.05.2016 13:46 19,9 C 67 % 1005,7 hPa 0,0 l/m 4,1 km/h (1 Bft) S-SW 200 1 min 0,000 mm 3,9 UV-I 496 W/m 13,6 C 19,9 C 4,8 km/h (1 Bft) 95,65 %
30.05.2016 13:47 20,0 C 65 % 1005,6 hPa 0,0 l/m 4,7 km/h (1 Bft) S-SO 157 1 min 0,000 mm 4,1 UV-I 526 W/m 13,2 C 20,0 C 6,4 km/h (2 Bft) 100,00 %
30.05.2016 13:48 20,0 C 66 % 1005,7 hPa 0,0 l/m 1,6 km/h (1 Bft) S-SO 157 1 min 0,000 mm 4,2 UV-I 541 W/m 13,4 C 20,0 C 3,2 km/h (1 Bft) 100,00 %
30.05.2016 13:49 19,9 C 65 % 1005,7 hPa 0,0 l/m 0,7 km/h (0 Bft) S-SO 157 1 min 0,000 mm 4,2 UV-I 543 W/m 13,1 C 19,9 C 1,6 km/h (1 Bft) 100,00 %
30.05.2016 13:50 20,0 C 67 % 1005,6 hPa 0,0 l/m 3,0 km/h (1 Bft) O-SO 102 1 min 0,000 mm 4,4 UV-I 614 W/m 13,7 C 20,0 C 4,8 km/h (1 Bft) 100,00 %
30.05.2016 13:51 20,2 C 70 % 1005,6 hPa 0,0 l/m 5,1 km/h (1 Bft) O-SO 123 1 min 0,000 mm 4,2 UV-I 565 W/m 14,5 C 20,2 C 8,0 km/h (2 Bft) 100,00 %
30.05.2016 13:52 20,2 C 66 % 1005,6 hPa 0,0 l/m 3,8 km/h (1 Bft) O-SO 118 1 min 0,000 mm 4,3 UV-I 565 W/m 13,6 C 20,2 C 4,8 km/h (1 Bft) 100,00 %
30.05.2016 13:53 20,2 C 64 % 1005,7 hPa 0,0 l/m 0,5 km/h (0 Bft) O-SO 118 1 min 0,000 mm 4,5 UV-I 605 W/m 13,2 C 20,2 C 1,6 km/h (1 Bft) 100,00 %
30.05.2016 13:54 20,1 C 66 % 1005,6 hPa 0,0 l/m 1,1 km/h (1 Bft) S-SO 155 1 min 0,000 mm 5,6 UV-I 622 W/m 13,5 C 20,1 C 3,2 km/h (1 Bft) 100,00 %
30.05.2016 13:55 20,2 C 65 % 1005,7 hPa 0,0 l/m 3,8 km/h (1 Bft) SO 140 1 min 0,000 mm 5,4 UV-I 791 W/m 13,4 C 20,2 C 6,4 km/h (2 Bft) 100,00 %
30.05.2016 13:56 20,2 C 64 % 1005,6 hPa 0,0 l/m 3,4 km/h (1 Bft) O-SO 115 1 min 0,000 mm 4,8 UV-I 776 W/m 13,2 C 20,2 C 6,4 km/h (2 Bft) 100,00 %
30.05.2016 13:57 20,3 C 67 % 1005,7 hPa 0,0 l/m 3,4 km/h (1 Bft) S-SO 162 1 min 0,000 mm 5,0 UV-I 650 W/m 14,0 C 20,3 C 6,4 km/h (2 Bft) 95,83 %
30.05.2016 13:58 20,3 C 64 % 1005,6 hPa 0,0 l/m 4,4 km/h (1 Bft) S 173 1 min 0,000 mm 5,5 UV-I 750 W/m 13,3 C 20,3 C 6,4 km/h (2 Bft) 95,65 %
30.05.2016 13:59 20,4 C 64 % 1005,6 hPa 0,0 l/m 4,1 km/h (1 Bft) S-SO 167 1 min 0,000 mm 6,5 UV-I 851 W/m 13,4 C 20,4 C 6,4 km/h (2 Bft) 100,00 %
30.05.2016 14:00 20,6 C 63 % 1005,7 hPa 0,0 l/m 2,7 km/h (1 Bft) SO 128 1 min 0,000 mm 6,3 UV-I 851 W/m 13,3 C 20,6 C 8,0 km/h (2 Bft) 100,00 %
30.05.2016 14:02 20,5 C 63 % 1005,7 hPa 0,0 l/m 5,3 km/h (1 Bft) O 96 2 min 0,304 mm 5,1 UV-I 682 W/m 13,2 C 20,5 C 11,3 km/h (2 Bft) 97,96 %
30.05.2016 14:03 20,4 C 64 % 1005,6 hPa 0,0 l/m 1,8 km/h (1 Bft) O 101 1 min 0,000 mm 4,6 UV-I 611 W/m 13,4 C 20,4 C 3,2 km/h (1 Bft) 100,00 %
30.05.2016 14:04 20,3 C 66 % 1005,6 hPa 0,0 l/m 2,3 km/h (1 Bft) O-SO 114 1 min 0,000 mm 4,8 UV-I 658 W/m 13,7 C 20,3 C 4,8 km/h (1 Bft) 100,00 %
30.05.2016 14:05 20,4 C 67 % 1005,6 hPa 0,0 l/m 3,0 km/h (1 Bft) O-NO 61 1 min 0,000 mm 5,0 UV-I 666 W/m 14,1 C 20,4 C 6,4 km/h (2 Bft) 100,00 %
30.05.2016 14:06 20,6 C 68 % 1005,6 hPa 0,0 l/m 5,6 km/h (1 Bft) O-NO 68 1 min 0,000 mm 4,6 UV-I 619 W/m 14,5 C 20,6 C 8,0 km/h (2 Bft) 100,00 %
30.05.2016 14:07 20,6 C 64 % 1005,6 hPa 0,0 l/m 3,1 km/h (1 Bft) O 87 1 min 0,000 mm 4,7 UV-I 636 W/m 13,5 C 20,6 C 4,8 km/h (1 Bft) 95,65 %
30.05.2016 14:08 20,6 C 67 % 1005,6 hPa 0,0 l/m 8,1 km/h (2 Bft) O-SO 109 1 min 0,000 mm 5,2 UV-I 636 W/m 14,3 C 19,9 C 12,9 km/h (3 Bft) 95,83 %
30.05.2016 14:09 20,7 C 64 % 1005,6 hPa 0,0 l/m 6,0 km/h (2 Bft) O-SO 104 1 min 0,000 mm 4,5 UV-I 608 W/m 13,6 C 20,7 C 11,3 km/h (2 Bft) 100,00 %
30.05.2016 14:10 20,7 C 67 % 1005,6 hPa 0,0 l/m 8,5 km/h (2 Bft) O-SO 119 1 min 0,000 mm 4,3 UV-I 560 W/m 14,3 C 19,9 C 12,9 km/h (3 Bft) 100,00 %
30.05.2016 14:11 20,7 C 65 % 1005,6 hPa 0,0 l/m 5,9 km/h (2 Bft) SO 139 1 min 0,000 mm 4,6 UV-I 591 W/m 13,9 C 20,7 C 11,3 km/h (2 Bft) 100,00 %
30.05.2016 14:12 20,7 C 65 % 1005,6 hPa 0,0 l/m 9,3 km/h (2 Bft) O-SO 103 1 min 0,000 mm 4,3 UV-I 564 W/m 13,9 C 19,6 C 12,9 km/h (3 Bft) 100,00 %
30.05.2016 14:13 20,7 C 66 % 1005,6 hPa 0,0 l/m 6,7 km/h (2 Bft) SO 126 1 min 0,000 mm 4,2 UV-I 540 W/m 14,1 C 20,6 C 12,9 km/h (3 Bft) 100,00 %
30.05.2016 14:14 20,7 C 64 % 1005,6 hPa 0,0 l/m 8,7 km/h (2 Bft) S-SO 159 1 min 0,000 mm 4,3 UV-I 557 W/m 13,6 C 19,8 C 12,9 km/h (3 Bft) 96,30 %
30.05.2016 14:15 20,7 C 64 % 1005,6 hPa 0,0 l/m 6,8 km/h (2 Bft) S 179 1 min 0,000 mm 4,1 UV-I 524 W/m 13,6 C 20,5 C 9,7 km/h (2 Bft) 95,65 %
30.05.2016 14:16 20,7 C 63 % 1005,6 hPa 0,0 l/m 6,5 km/h (2 Bft) S-SO 165 1 min 0,000 mm 4,1 UV-I 520 W/m 13,4 C 20,7 C 9,7 km/h (2 Bft) 100,00 %
30.05.2016 14:17 20,7 C 63 % 1005,6 hPa 0,0 l/m 5,6 km/h (1 Bft) S-SW 212 1 min 0,000 mm 4,1 UV-I 521 W/m 13,4 C 20,7 C 9,7 km/h (2 Bft) 95,83 %
30.05.2016 14:18 20,6 C 63 % 1005,5 hPa 0,0 l/m 8,2 km/h (2 Bft) S 188 1 min 0,000 mm 4,1 UV-I 522 W/m 13,3 C 19,9 C 12,9 km/h (3 Bft) 100,00 %
30.05.2016 14:19 20,5 C 64 % 1005,5 hPa 0,0 l/m 7,0 km/h (2 Bft) SW 223 1 min 0,000 mm 4,1 UV-I 529 W/m 13,5 C 20,3 C 11,3 km/h (2 Bft) 100,00 %
30.05.2016 14:20 20,5 C 65 % 1005,5 hPa 0,0 l/m 5,2 km/h (1 Bft) W-SW 242 1 min 0,000 mm 4,8 UV-I 529 W/m 13,7 C 20,5 C 6,4 km/h (2 Bft) 95,65 %
30.05.2016 14:21 20,6 C 67 % 1005,5 hPa 0,0 l/m 4,5 km/h (1 Bft) SW 236 1 min 0,000 mm 4,2 UV-I 538 W/m 14,3 C 20,6 C 6,4 km/h (2 Bft) 100,00 %
30.05.2016 14:22 20,6 C 63 % 1005,5 hPa 0,0 l/m 2,2 km/h (1 Bft) SW 223 1 min 0,000 mm 4,2 UV-I 563 W/m 13,3 C 20,6 C 4,8 km/h (1 Bft) 95,65 %
30.05.2016 14:23 20,5 C 63 % 1005,5 hPa 0,0 l/m 1,9 km/h (1 Bft) SW 223 1 min 0,000 mm 4,7 UV-I 575 W/m 13,2 C 20,5 C 3,2 km/h (1 Bft) 96,30 %
30.05.2016 14:24 20,6 C 68 % 1005,5 hPa 0,0 l/m 1,9 km/h (1 Bft) SW 223 1 min 0,000 mm 4,8 UV-I 672 W/m 14,5 C 20,6 C 3,2 km/h (1 Bft) 100,00 %
30.05.2016 14:25 20,6 C 66 % 1005,5 hPa 0,0 l/m 1,3 km/h (1 Bft) SO 137 1 min 0,000 mm 4,5 UV-I 610 W/m 14,0 C 20,6 C 3,2 km/h (1 Bft) 100,00 %
30.05.2016 14:26 20,8 C 67 % 1005,5 hPa 0,0 l/m 4,7 km/h (1 Bft) SO 145 1 min 0,000 mm 4,6 UV-I 635 W/m 14,4 C 20,8 C 8,0 km/h (2 Bft) 95,65 %
30.05.2016 14:27 20,8 C 65 % 1005,5 hPa 0,0 l/m 9,5 km/h (2 Bft) O-SO 117 1 min 0,000 mm 5,0 UV-I 710 W/m 14,0 C 19,7 C 14,5 km/h (3 Bft) 100,00 %
30.05.2016 14:28 20,8 C 66 % 1005,5 hPa 0,0 l/m 9,0 km/h (2 Bft) O-SO 110 1 min 0,000 mm 5,3 UV-I 775 W/m 14,2 C 19,8 C 12,9 km/h (3 Bft) 100,00 %
30.05.2016 14:29 20,8 C 64 % 1005,5 hPa 0,0 l/m 8,0 km/h (2 Bft) O-SO 109 1 min 0,000 mm 5,6 UV-I 788 W/m 13,7 C 20,2 C 11,3 km/h (2 Bft) 100,00 %
30.05.2016 14:30 20,9 C 64 % 1005,6 hPa 0,0 l/m 4,6 km/h (1 Bft) S-SO 149 1 min 0,000 mm 5,7 UV-I 792 W/m 13,8 C 20,9 C 9,7 km/h (2 Bft) 100,00 %
30.05.2016 14:31 20,8 C 63 % 1005,5 hPa 0,0 l/m 3,6 km/h (1 Bft) S-SO 159 1 min 0,000 mm 5,9 UV-I 879 W/m 13,5 C 20,8 C 6,4 km/h (2 Bft) 100,00 %
30.05.2016 14:32 20,9 C 63 % 1005,5 hPa 0,0 l/m 5,6 km/h (1 Bft) O-NO 78 1 min 0,000 mm 5,8 UV-I 804 W/m 13,6 C 20,9 C 9,7 km/h (2 Bft) 100,00 %
30.05.2016 14:33 21,1 C 68 % 1005,5 hPa 0,0 l/m 8,4 km/h (2 Bft) O-NO 77 1 min 0,000 mm 5,3 UV-I 789 W/m 15,0 C 20,4 C 11,3 km/h (2 Bft) 95,83 %
30.05.2016 14:34 21,1 C 63 % 1005,5 hPa 0,0 l/m 10,7 km/h (2 Bft) O 84 1 min 0,000 mm 5,2 UV-I 769 W/m 13,8 C 19,7 C 12,9 km/h (3 Bft) 100,00 %
30.05.2016 14:35 21,1 C 65 % 1005,5 hPa 0,0 l/m 12,0 km/h (2 Bft) O 89 1 min 0,000 mm 4,8 UV-I 770 W/m 14,3 C 19,3 C 14,5 km/h (3 Bft) 100,00 %
30.05.2016 14:36 21,1 C 65 % 1005,5 hPa 0,0 l/m 7,0 km/h (2 Bft) SO 126 1 min 0,000 mm 4,3 UV-I 615 W/m 14,3 C 20,9 C 14,5 km/h (3 Bft) 95,65 %
30.05.2016 14:37 21,1 C 62 % 1005,5 hPa 0,0 l/m 2,9 km/h (1 Bft) SO 133 1 min 0,000 mm 4,4 UV-I 614 W/m 13,5 C 21,1 C 8,0 km/h (2 Bft) 100,00 %
30.05.2016 14:38 21,0 C 63 % 1005,5 hPa 0,0 l/m 5,1 km/h (1 Bft) NO 49 1 min 0,000 mm 4,5 UV-I 633 W/m 13,7 C 21,0 C 8,0 km/h (2 Bft) 100,00 %
30.05.2016 14:39 21,0 C 63 % 1005,5 hPa 0,0 l/m 6,0 km/h (2 Bft) O 83 1 min 0,000 mm 4,4 UV-I 631 W/m 13,7 C 21,0 C 8,0 km/h (2 Bft) 100,00 %
30.05.2016 14:40 20,9 C 62 % 1005,5 hPa 0,0 l/m 7,6 km/h (2 Bft) O-SO 116 1 min 0,000 mm 4,5 UV-I 628 W/m 13,3 C 20,4 C 12,9 km/h (3 Bft) 100,00 %
30.05.2016 14:41 21,0 C 66 % 1005,5 hPa 0,0 l/m 5,5 km/h (1 Bft) O-SO 116 1 min 0,000 mm 4,5 UV-I 628 W/m 14,4 C 21,0 C 8,0 km/h (2 Bft) 91,30 %
30.05.2016 14:42 21,0 C 63 % 1005,5 hPa 0,0 l/m 7,8 km/h (2 Bft) O 101 1 min 0,000 mm 4,5 UV-I 623 W/m 13,7 C 20,5 C 11,3 km/h (2 Bft) 100,00 %
30.05.2016 14:43 21,1 C 66 % 1005,5 hPa 0,0 l/m 9,2 km/h (2 Bft) O-SO 111 1 min 0,000 mm 5,2 UV-I 622 W/m 14,5 C 20,1 C 11,3 km/h (2 Bft) 100,00 %
30.05.2016 14:44 21,1 C 64 % 1005,5 hPa 0,0 l/m 10,8 km/h (2 Bft) O-SO 105 1 min 0,000 mm 5,5 UV-I 622 W/m 14,0 C 19,6 C 14,5 km/h (3 Bft) 100,00 %
30.05.2016 14:45 21,2 C 65 % 1005,5 hPa 0,0 l/m 6,8 km/h (2 Bft) SO 130 1 min 0,000 mm 4,9 UV-I 630 W/m 14,4 C 21,1 C 11,3 km/h (2 Bft) 91,30 %
30.05.2016 14:46 21,2 C 63 % 1005,4 hPa 0,0 l/m 4,9 km/h (1 Bft) SO 142 1 min 0,000 mm 4,7 UV-I 650 W/m 13,9 C 21,2 C 8,0 km/h (2 Bft) 100,00 %
30.05.2016 14:47 21,2 C 65 % 1005,5 hPa 0,0 l/m 6,4 km/h (2 Bft) O 91 1 min 0,000 mm 4,6 UV-I 660 W/m 14,4 C 21,2 C 11,3 km/h (2 Bft) 97,14 %
30.05.2016 14:48 21,3 C 64 % 1005,5 hPa 0,0 l/m 6,8 km/h (2 Bft) O 101 1 min 0,000 mm 5,0 UV-I 682 W/m 14,2 C 21,2 C 11,3 km/h (2 Bft) 100,00 %
30.05.2016 14:49 21,4 C 63 % 1005,5 hPa 0,0 l/m 3,1 km/h (1 Bft) S 175 1 min 0,000 mm 5,3 UV-I 898 W/m 14,1 C 21,4 C 4,8 km/h (1 Bft) 100,00 %
30.05.2016 14:50 21,4 C 61 % 1005,5 hPa 0,0 l/m 1,4 km/h (1 Bft) S 175 1 min 0,000 mm 4,7 UV-I 794 W/m 13,6 C 21,4 C 3,2 km/h (1 Bft) 100,00 %
30.05.2016 14:51 21,3 C 61 % 1005,5 hPa 0,0 l/m 6,4 km/h (2 Bft) O 98 1 min 0,000 mm 4,5 UV-I 594 W/m 13,5 C 21,3 C 14,5 km/h (3 Bft) 100,00 %
30.05.2016 14:52 21,3 C 62 % 1005,5 hPa 0,0 l/m 10,8 km/h (2 Bft) O 91 1 min 0,000 mm 4,5 UV-I 557 W/m 13,7 C 19,8 C 14,5 km/h (3 Bft) 100,00 %
30.05.2016 14:53 21,2 C 61 % 1005,5 hPa 0,0 l/m 5,0 km/h (1 Bft) O-SO 103 1 min 0,000 mm 4,3 UV-I 519 W/m 13,4 C 21,2 C 11,3 km/h (2 Bft) 100,00 %
30.05.2016 14:54 21,1 C 64 % 1005,5 hPa 0,0 l/m 4,3 km/h (1 Bft) NO 45 1 min 0,000 mm 4,2 UV-I 510 W/m 14,0 C 21,1 C 6,4 km/h (2 Bft) 100,00 %
30.05.2016 14:55 21,1 C 67 % 1005,5 hPa 0,0 l/m 8,3 km/h (2 Bft) NO 38 1 min 0,000 mm 5,5 UV-I 510 W/m 14,7 C 20,4 C 11,3 km/h (2 Bft) 95,65 %
30.05.2016 14:56 21,3 C 66 % 1005,5 hPa 0,0 l/m 10,9 km/h (2 Bft) NO 53 1 min 0,000 mm 6,1 UV-I 751 W/m 14,7 C 19,8 C 14,5 km/h (3 Bft) 100,00 %
30.05.2016 14:57 21,4 C 62 % 1005,5 hPa 0,0 l/m 10,5 km/h (2 Bft) O-NO 66 1 min 0,000 mm 6,2 UV-I 1088 W/m 13,8 C 20,0 C 16,1 km/h (3 Bft) 95,83 %
30.05.2016 14:58 21,4 C 64 % 1005,4 hPa 0,0 l/m 11,7 km/h (2 Bft) NO 35 1 min 0,000 mm 6,1 UV-I 1088 W/m 14,3 C 19,7 C 14,5 km/h (3 Bft) 91,30 %
30.05.2016 14:59 21,6 C 68 % 1005,4 hPa 0,0 l/m 8,6 km/h (2 Bft) NO 49 1 min 0,000 mm 6,1 UV-I 1088 W/m 15,4 C 20,8 C 12,9 km/h (3 Bft) 95,83 %
30.05.2016 15:00 21,7 C 67 % 1005,4 hPa 0,0 l/m 8,1 km/h (2 Bft) N-NO 28 1 min 0,000 mm 5,7 UV-I 1025 W/m 15,3 C 21,1 C 9,7 km/h (2 Bft) 100,00 %
30.05.2016 15:02 21,9 C 67 % 1005,4 hPa 0,0 l/m 8,2 km/h (2 Bft) NO 51 2 min 0,432 mm 5,1 UV-I 966 W/m 15,5 C 21,3 C 14,5 km/h (3 Bft) 91,49 %
30.05.2016 15:03 21,9 C 62 % 1005,5 hPa 0,0 l/m 6,2 km/h (2 Bft) N-NO 20 1 min 0,000 mm 5,1 UV-I 730 W/m 14,3 C 21,9 C 9,7 km/h (2 Bft) 100,00 %
30.05.2016 15:04 21,9 C 63 % 1005,4 hPa 0,0 l/m 3,9 km/h (1 Bft) N 11 1 min 0,000 mm 5,4 UV-I 721 W/m 14,5 C 21,9 C 6,4 km/h (2 Bft) 91,30 %
30.05.2016 15:05 21,7 C 61 % 1005,4 hPa 0,0 l/m 2,9 km/h (1 Bft) N 5 1 min 0,000 mm 4,4 UV-I 721 W/m 13,8 C 21,7 C 6,4 km/h (2 Bft) 100,00 %
30.05.2016 15:06 21,7 C 64 % 1005,5 hPa 0,0 l/m 4,8 km/h (1 Bft) NO 49 0 min 0,000 mm 3,8 UV-I 422 W/m 14,6 C 21,7 C 6,4 km/h (2 Bft) 96,15 %
30.05.2016 15:07 21,7 C 66 % 1005,5 hPa 0,0 l/m 5,6 km/h (1 Bft) NO 44 1 min 0,000 mm 5,9 UV-I 645 W/m 15,1 C 21,7 C 6,4 km/h (2 Bft) 100,00 %
30.05.2016 15:08 21,7 C 62 % 1005,5 hPa 0,0 l/m 2,2 km/h (1 Bft) NO 44 1 min 0,000 mm 5,7 UV-I 1058 W/m 14,1 C 21,7 C 3,2 km/h (1 Bft) 100,00 %
30.05.2016 15:11 21,6 C 63 % 1005,5 hPa 0,0 l/m 5,6 km/h (1 Bft) O-SO 116 0 min 0,000 mm 3,0 UV-I 299 W/m 14,2 C 21,6 C 11,3 km/h (2 Bft) 94,19 %
30.05.2016 15:12 21,6 C 64 % 1005,5 hPa 0,0 l/m 7,6 km/h (2 Bft) O-SO 111 0 min 0,000 mm 3,0 UV-I 348 W/m 14,5 C 21,2 C 9,7 km/h (2 Bft) 95,65 %
30.05.2016 15:13 21,6 C 64 % 1005,5 hPa 0,0 l/m 2,3 km/h (1 Bft) O-SO 111 0 min 0,000 mm 3,0 UV-I 369 W/m 14,5 C 21,6 C 4,8 km/h (1 Bft) 96,30 %
30.05.2016 15:14 21,5 C 61 % 1005,5 hPa 0,0 l/m 1,7 km/h (1 Bft) SW 218 0 min 0,000 mm 3,6 UV-I 383 W/m 13,7 C 21,5 C 4,8 km/h (1 Bft) 100,00 %
30.05.2016 15:15 21,4 C 61 % 1005,4 hPa 0,0 l/m 4,2 km/h (1 Bft) O 88 0 min 0,000 mm 4,2 UV-I 383 W/m 13,6 C 21,4 C 6,4 km/h (2 Bft) 96,55 %
30.05.2016 15:16 21,4 C 63 % 1005,5 hPa 0,0 l/m 5,7 km/h (1 Bft) O-NO 74 0 min 0,000 mm 3,2 UV-I 383 W/m 14,1 C 21,4 C 9,7 km/h (2 Bft) 100,00 %
30.05.2016 15:17 21,4 C 63 % 1005,4 hPa 0,0 l/m 2,2 km/h (1 Bft) O 98 0 min 0,000 mm 3,6 UV-I 383 W/m 14,1 C 21,4 C 3,2 km/h (1 Bft) 95,83 %
30.05.2016 15:18 21,3 C 61 % 1005,4 hPa 0,0 l/m 3,2 km/h (1 Bft) O 100 1 min 0,000 mm 4,6 UV-I 526 W/m 13,5 C 21,3 C 4,8 km/h (1 Bft) 100,00 %
30.05.2016 15:19 21,4 C 66 % 1005,4 hPa 0,0 l/m 6,2 km/h (2 Bft) N-NO 21 1 min 0,000 mm 4,7 UV-I 1067 W/m 14,8 C 21,4 C 14,5 km/h (3 Bft) 96,30 %
30.05.2016 15:20 21,5 C 64 % 1005,4 hPa 0,0 l/m 7,1 km/h (2 Bft) NO 34 1 min 0,000 mm 2,8 UV-I 774 W/m 14,4 C 21,2 C 9,7 km/h (2 Bft) 100,00 %
30.05.2016 15:21 21,5 C 66 % 1005,4 hPa 0,0 l/m 5,5 km/h (1 Bft) NO 48 0 min 0,000 mm 2,7 UV-I 327 W/m 14,9 C 21,5 C 8,0 km/h (2 Bft) 100,00 %
30.05.2016 15:22 21,5 C 68 % 1005,4 hPa 0,0 l/m 3,9 km/h (1 Bft) NO 36 0 min 0,000 mm 2,5 UV-I 308 W/m 15,3 C 21,5 C 8,0 km/h (2 Bft) 100,00 %
30.05.2016 15:23 21,5 C 67 % 1005,4 hPa 0,0 l/m 5,6 km/h (1 Bft) O 98 0 min 0,000 mm 2,3 UV-I 289 W/m 15,1 C 21,5 C 9,7 km/h (2 Bft) 97,56 %
30.05.2016 15:24 21,4 C 65 % 1005,4 hPa 0,0 l/m 4,9 km/h (1 Bft) O 100 0 min 0,000 mm 2,3 UV-I 277 W/m 14,5 C 21,4 C 6,4 km/h (2 Bft) 95,83 %
30.05.2016 15:25 21,4 C 67 % 1005,4 hPa 0,0 l/m 2,4 km/h (1 Bft) SO 144 0 min 0,000 mm 2,0 UV-I 256 W/m 15,0 C 21,4 C 4,8 km/h (1 Bft) 100,00 %
30.05.2016 15:26 21,4 C 66 % 1005,4 hPa 0,0 l/m 0,2 km/h (0 Bft) SO 144 0 min 0,000 mm 1,9 UV-I 248 W/m 14,8 C 21,4 C 1,6 km/h (1 Bft) 96,67 %
30.05.2016 15:27 21,3 C 66 % 1005,4 hPa 0,0 l/m 5,6 km/h (1 Bft) NO 52 0 min 0,000 mm 1,8 UV-I 240 W/m 14,7 C 21,3 C 6,4 km/h (2 Bft) 100,00 %
30.05.2016 15:28 21,3 C 64 % 1005,4 hPa 0,0 l/m 5,7 km/h (1 Bft) O-NO 60 0 min 0,000 mm 1,7 UV-I 235 W/m 14,2 C 21,3 C 8,0 km/h (2 Bft) 96,30 %
30.05.2016 15:29 21,2 C 64 % 1005,4 hPa 0,0 l/m 5,2 km/h (1 Bft) O-NO 62 0 min 0,000 mm 1,7 UV-I 227 W/m 14,1 C 21,2 C 8,0 km/h (2 Bft) 94,12 %
30.05.2016 15:30 21,1 C 65 % 1005,4 hPa 0,0 l/m 3,3 km/h (1 Bft) O-NO 75 0 min 0,000 mm 1,6 UV-I 222 W/m 14,3 C 21,1 C 6,4 km/h (2 Bft) 100,00 %
30.05.2016 15:31 21,0 C 64 % 1005,4 hPa 0,0 l/m 3,8 km/h (1 Bft) O-NO 75 0 min 0,000 mm 1,6 UV-I 214 W/m 13,9 C 21,0 C 4,8 km/h (1 Bft) 100,00 %
30.05.2016 15:32 20,9 C 66 % 1005,4 hPa 0,0 l/m 8,2 km/h (2 Bft) O 80 0 min 0,000 mm 1,5 UV-I 199 W/m 14,3 C 20,2 C 12,9 km/h (3 Bft) 100,00 %
30.05.2016 15:33 20,8 C 66 % 1005,4 hPa 0,0 l/m 7,2 km/h (2 Bft) SO 127 0 min 0,000 mm 1,4 UV-I 185 W/m 14,2 C 20,5 C 11,3 km/h (2 Bft) 94,24 %
30.05.2016 15:34 20,7 C 66 % 1005,4 hPa 0,0 l/m 6,1 km/h (2 Bft) O-SO 113 0 min 0,000 mm 1,3 UV-I 175 W/m 14,1 C 20,7 C 11,3 km/h (2 Bft) 97,87 %
30.05.2016 15:35 20,7 C 65 % 1005,4 hPa 0,0 l/m 6,6 km/h (2 Bft) O-NO 76 0 min 0,000 mm 1,3 UV-I 169 W/m 13,9 C 20,6 C 9,7 km/h (2 Bft) 100,00 %
30.05.2016 15:36 20,6 C 65 % 1005,4 hPa 0,0 l/m 5,8 km/h (2 Bft) O-NO 67 0 min 0,000 mm 1,3 UV-I 171 W/m 13,8 C 20,6 C 9,7 km/h (2 Bft) 96,88 %
30.05.2016 15:37 20,6 C 66 % 1005,4 hPa 0,0 l/m 6,0 km/h (2 Bft) O-NO 74 0 min 0,000 mm 1,3 UV-I 178 W/m 14,0 C 20,6 C 8,0 km/h (2 Bft) 100,00 %
30.05.2016 15:38 20,7 C 65 % 1005,3 hPa 0,0 l/m 3,6 km/h (1 Bft) O-NO 71 0 min 0,000 mm 1,4 UV-I 184 W/m 13,9 C 20,7 C 4,8 km/h (1 Bft) 100,00 %
30.05.2016 15:39 20,7 C 65 % 1005,3 hPa 0,0 l/m 5,3 km/h (1 Bft) O 82 0 min 0,000 mm 1,4 UV-I 184 W/m 13,9 C 20,7 C 8,0 km/h (2 Bft) 100,00 %
30.05.2016 15:40 20,7 C 67 % 1005,3 hPa 0,0 l/m 3,8 km/h (1 Bft) O-NO 71 0 min 0,000 mm 1,4 UV-I 186 W/m 14,3 C 20,7 C 6,4 km/h (2 Bft) 100,00 %
30.05.2016 15:41 20,7 C 65 % 1005,3 hPa 0,0 l/m 3,7 km/h (1 Bft) O-NO 71 0 min 0,000 mm 1,4 UV-I 188 W/m 13,9 C 20,7 C 4,8 km/h (1 Bft) 100,00 %
30.05.2016 15:42 20,7 C 65 % 1005,3 hPa 0,0 l/m 3,4 km/h (1 Bft) O-NO 64 0 min 0,000 mm 1,3 UV-I 183 W/m 13,9 C 20,7 C 4,8 km/h (1 Bft) 92,31 %
30.05.2016 15:43 20,6 C 68 % 1005,3 hPa 0,0 l/m 4,9 km/h (1 Bft) O-SO 109 0 min 0,000 mm 1,3 UV-I 174 W/m 14,5 C 20,6 C 6,4 km/h (2 Bft) 100,00 %
30.05.2016 15:44 20,6 C 64 % 1005,4 hPa 0,0 l/m 3,2 km/h (1 Bft) O-SO 115 0 min 0,000 mm 1,3 UV-I 170 W/m 13,5 C 20,6 C 4,8 km/h (1 Bft) 95,65 %
30.05.2016 15:45 20,6 C 64 % 1005,3 hPa 0,0 l/m 6,2 km/h (2 Bft) SO 142 0 min 0,000 mm 1,2 UV-I 170 W/m 13,5 C 20,6 C 11,3 km/h (2 Bft) 100,00 %
30.05.2016 15:46 20,6 C 65 % 1005,4 hPa 0,0 l/m 5,8 km/h (2 Bft) O-SO 110 0 min 0,000 mm 1,2 UV-I 172 W/m 13,8 C 20,6 C 9,7 km/h (2 Bft) 100,00 %
30.05.2016 15:47 20,5 C 67 % 1005,4 hPa 0,0 l/m 4,4 km/h (1 Bft) O-SO 106 0 min 0,000 mm 1,2 UV-I 177 W/m 14,2 C 20,5 C 6,4 km/h (2 Bft) 96,30 %
30.05.2016 15:48 20,5 C 65 % 1005,4 hPa 0,0 l/m 2,7 km/h (1 Bft) O-SO 106 0 min 0,000 mm 1,2 UV-I 179 W/m 13,7 C 20,5 C 4,8 km/h (1 Bft) 95,65 %
30.05.2016 15:49 20,4 C 64 % 1005,4 hPa 0,0 l/m 2,0 km/h (1 Bft) O-SO 106 0 min 0,000 mm 1,2 UV-I 180 W/m 13,4 C 20,4 C 3,2 km/h (1 Bft) 100,00 %
30.05.2016 15:50 20,4 C 64 % 1005,4 hPa 0,0 l/m 1,2 km/h (1 Bft) O-SO 106 0 min 0,000 mm 1,2 UV-I 179 W/m 13,4 C 20,4 C 1,6 km/h (1 Bft) 96,15 %
30.05.2016 15:51 20,5 C 66 % 1005,4 hPa 0,0 l/m 3,1 km/h (1 Bft) O-NO 60 0 min 0,000 mm 1,2 UV-I 182 W/m 13,9 C 20,5 C 6,4 km/h (2 Bft) 100,00 %
30.05.2016 15:52 20,5 C 65 % 1005,4 hPa 0,0 l/m 8,0 km/h (2 Bft) O 96 0 min 0,000 mm 1,3 UV-I 185 W/m 13,7 C 19,9 C 11,3 km/h (2 Bft) 100,00 %
30.05.2016 15:53 20,6 C 65 % 1005,4 hPa 0,0 l/m 7,2 km/h (2 Bft) O-NO 71 0 min 0,000 mm 1,3 UV-I 191 W/m 13,8 C 20,3 C 11,3 km/h (2 Bft) 96,97 %
30.05.2016 15:54 20,5 C 63 % 1005,4 hPa 0,0 l/m 5,4 km/h (1 Bft) O 94 0 min 0,000 mm 1,3 UV-I 194 W/m 13,2 C 20,5 C 8,0 km/h (2 Bft) 95,65 %
30.05.2016 15:55 20,6 C 63 % 1005,4 hPa 0,0 l/m 3,3 km/h (1 Bft) O-NO 78 0 min 0,000 mm 1,4 UV-I 196 W/m 13,3 C 20,6 C 4,8 km/h (1 Bft) 100,00 %
30.05.2016 15:56 20,6 C 65 % 1005,4 hPa 0,0 l/m 4,3 km/h (1 Bft) NO 48 0 min 0,000 mm 1,4 UV-I 199 W/m 13,8 C 20,6 C 6,4 km/h (2 Bft) 100,00 %
30.05.2016 15:57 20,6 C 63 % 1005,4 hPa 0,0 l/m 4,8 km/h (1 Bft) O-NO 68 0 min 0,000 mm 1,4 UV-I 204 W/m 13,3 C 20,6 C 6,4 km/h (2 Bft) 100,00 %
30.05.2016 15:58 20,6 C 63 % 1005,4 hPa 0,0 l/m 2,5 km/h (1 Bft) O-NO 68 0 min 0,000 mm 1,4 UV-I 208 W/m 13,3 C 20,6 C 3,2 km/h (1 Bft) 100,00 %
30.05.2016 16:01 20,7 C 63 % 1005,4 hPa 0,0 l/m 3,9 km/h (1 Bft) O-NO 71 0 min 0,229 mm 1,4 UV-I 197 W/m 13,4 C 20,7 C 4,8 km/h (1 Bft) 100,00 %
30.05.2016 16:03 20,7 C 64 % 1005,4 hPa 0,0 l/m 5,0 km/h (1 Bft) NO 51 0 min 0,000 mm 1,4 UV-I 203 W/m 13,6 C 20,7 C 6,4 km/h (2 Bft) 100,00 %
30.05.2016 16:04 20,7 C 65 % 1005,5 hPa 0,0 l/m 8,2 km/h (2 Bft) NO 56 0 min 0,000 mm 1,5 UV-I 209 W/m 13,9 C 20,0 C 9,7 km/h (2 Bft) 100,00 %
30.05.2016 16:05 20,7 C 65 % 1005,5 hPa 0,0 l/m 6,3 km/h (2 Bft) NO 48 0 min 0,000 mm 1,5 UV-I 213 W/m 13,9 C 20,7 C 8,0 km/h (2 Bft) 96,15 %
30.05.2016 16:06 20,7 C 64 % 1005,4 hPa 0,0 l/m 4,4 km/h (1 Bft) O-NO 63 0 min 0,000 mm 1,5 UV-I 214 W/m 13,6 C 20,7 C 6,4 km/h (2 Bft) 100,00 %
30.05.2016 16:07 20,7 C 63 % 1005,4 hPa 0,0 l/m 4,5 km/h (1 Bft) O-NO 65 0 min 0,000 mm 1,5 UV-I 220 W/m 13,4 C 20,7 C 6,4 km/h (2 Bft) 100,00 %
30.05.2016 16:08 20,8 C 64 % 1005,4 hPa 0,0 l/m 4,7 km/h (1 Bft) O-NO 65 0 min 0,000 mm 1,6 UV-I 229 W/m 13,7 C 20,8 C 4,8 km/h (1 Bft) 100,00 %
30.05.2016 16:09 20,8 C 63 % 1005,4 hPa 0,0 l/m 5,7 km/h (1 Bft) O 94 0 min 0,000 mm 1,7 UV-I 235 W/m 13,5 C 20,8 C 6,4 km/h (2 Bft) 100,00 %
30.05.2016 16:10 20,7 C 64 % 1005,4 hPa 0,0 l/m 5,3 km/h (1 Bft) O-SO 108 0 min 0,000 mm 1,7 UV-I 241 W/m 13,6 C 20,7 C 9,7 km/h (2 Bft) 100,00 %
30.05.2016 16:11 20,7 C 63 % 1005,4 hPa 0,0 l/m 3,5 km/h (1 Bft) O 90 0 min 0,000 mm 1,7 UV-I 247 W/m 13,4 C 20,7 C 6,4 km/h (2 Bft) 100,00 %
30.05.2016 16:12 20,7 C 62 % 1005,4 hPa 0,0 l/m 4,4 km/h (1 Bft) O-SO 103 0 min 0,000 mm 1,7 UV-I 253 W/m 13,2 C 20,7 C 6,4 km/h (2 Bft) 95,83 %
30.05.2016 16:13 20,7 C 64 % 1005,4 hPa 0,0 l/m 3,9 km/h (1 Bft) O-SO 103 0 min 0,000 mm 1,8 UV-I 256 W/m 13,6 C 20,7 C 6,4 km/h (2 Bft) 100,00 %
30.05.2016 16:14 20,7 C 63 % 1005,4 hPa 0,0 l/m 5,1 km/h (1 Bft) O-NO 69 0 min 0,000 mm 1,8 UV-I 258 W/m 13,4 C 20,7 C 6,4 km/h (2 Bft) 100,00 %
30.05.2016 16:15 20,7 C 62 % 1005,4 hPa 0,0 l/m 4,8 km/h (1 Bft) O-NO 73 0 min 0,000 mm 1,8 UV-I 257 W/m 13,2 C 20,7 C 6,4 km/h (2 Bft) 100,00 %
30.05.2016 16:16 20,7 C 63 % 1005,4 hPa 0,0 l/m 3,0 km/h (1 Bft) O-NO 71 0 min 0,000 mm 1,8 UV-I 257 W/m 13,4 C 20,7 C 4,8 km/h (1 Bft) 100,00 %
30.05.2016 16:17 20,7 C 64 % 1005,4 hPa 0,0 l/m 2,6 km/h (1 Bft) O-NO 71 0 min 0,000 mm 1,8 UV-I 257 W/m 13,6 C 20,7 C 4,8 km/h (1 Bft) 88,89 %
30.05.2016 16:18 20,7 C 66 % 1005,4 hPa 0,0 l/m 0,8 km/h (0 Bft) O-NO 71 0 min 0,000 mm 1,8 UV-I 257 W/m 14,1 C 20,7 C 1,6 km/h (1 Bft) 100,00 %
30.05.2016 16:19 20,7 C 62 % 1005,4 hPa 0,0 l/m 0,1 km/h (0 Bft) O-NO 71 0 min 0,000 mm 1,8 UV-I 259 W/m 13,2 C 20,7 C 1,6 km/h (1 Bft) 100,00 %
30.05.2016 16:20 20,7 C 62 % 1005,3 hPa 0,0 l/m 0,7 km/h (0 Bft) O-NO 71 0 min 0,000 mm 1,8 UV-I 260 W/m 13,2 C 20,7 C 1,6 km/h (1 Bft) 100,00 %
30.05.2016 16:21 20,8 C 65 % 1005,4 hPa 0,0 l/m 1,3 km/h (1 Bft) O-NO 71 0 min 0,000 mm 1,8 UV-I 258 W/m 14,0 C 20,8 C 3,2 km/h (1 Bft) 100,00 %
30.05.2016 16:22 20,8 C 65 % 1005,4 hPa 0,0 l/m 4,8 km/h (1 Bft) SO 130 0 min 0,000 mm 1,7 UV-I 258 W/m 14,0 C 20,8 C 14,5 km/h (3 Bft) 96,55 %
30.05.2016 16:23 20,8 C 65 % 1005,4 hPa 0,0 l/m 6,9 km/h (2 Bft) S-SO 163 0 min 0,000 mm 1,7 UV-I 257 W/m 14,0 C 20,6 C 9,7 km/h (2 Bft) 100,00 %
30.05.2016 16:24 20,9 C 62 % 1005,4 hPa 0,0 l/m 6,0 km/h (2 Bft) S 188 0 min 0,000 mm 1,7 UV-I 258 W/m 13,3 C 20,9 C 11,3 km/h (2 Bft) 100,00 %
30.05.2016 16:25 20,9 C 64 % 1005,4 hPa 0,0 l/m 9,2 km/h (2 Bft) S 188 0 min 0,000 mm 1,7 UV-I 257 W/m 13,8 C 19,9 C 11,3 km/h (2 Bft) 100,00 %
30.05.2016 16:26 21,0 C 61 % 1005,4 hPa 0,0 l/m 6,6 km/h (2 Bft) S-SO 155 0 min 0,000 mm 1,6 UV-I 256 W/m 13,2 C 20,9 C 9,7 km/h (2 Bft) 100,00 %
30.05.2016 16:27 21,0 C 62 % 1005,4 hPa 0,0 l/m 4,7 km/h (1 Bft) S 190 0 min 0,000 mm 1,6 UV-I 253 W/m 13,4 C 21,0 C 8,0 km/h (2 Bft) 100,00 %
30.05.2016 16:28 21,0 C 63 % 1005,4 hPa 0,0 l/m 9,3 km/h (2 Bft) S 184 0 min 0,000 mm 1,6 UV-I 250 W/m 13,7 C 20,0 C 11,3 km/h (2 Bft) 96,15 %
30.05.2016 16:29 20,9 C 61 % 1005,4 hPa 0,0 l/m 4,0 km/h (1 Bft) S 175 0 min 0,000 mm 1,5 UV-I 245 W/m 13,1 C 20,9 C 6,4 km/h (2 Bft) 100,00 %
30.05.2016 16:30 20,9 C 61 % 1005,4 hPa 0,0 l/m 2,1 km/h (1 Bft) SO 132 0 min 0,000 mm 1,5 UV-I 242 W/m 13,1 C 20,9 C 6,4 km/h (2 Bft) 100,00 %
30.05.2016 16:31 20,9 C 65 % 1005,4 hPa 0,0 l/m 3,1 km/h (1 Bft) S 184 0 min 0,000 mm 1,5 UV-I 242 W/m 14,1 C 20,9 C 4,8 km/h (1 Bft) 100,00 %
30.05.2016 16:32 21,0 C 63 % 1005,4 hPa 0,0 l/m 4,7 km/h (1 Bft) S-SO 168 0 min 0,000 mm 1,5 UV-I 244 W/m 13,7 C 21,0 C 8,0 km/h (2 Bft) 100,00 %
30.05.2016 16:33 21,0 C 63 % 1005,3 hPa 0,0 l/m 4,1 km/h (1 Bft) S 185 0 min 0,000 mm 1,5 UV-I 246 W/m 13,7 C 21,0 C 6,4 km/h (2 Bft) 100,00 %
30.05.2016 16:34 20,9 C 62 % 1005,4 hPa 0,0 l/m 4,5 km/h (1 Bft) S-SW 193 0 min 0,000 mm 1,5 UV-I 250 W/m 13,3 C 20,9 C 6,4 km/h (2 Bft) 100,00 %
30.05.2016 16:35 21,0 C 64 % 1005,4 hPa 0,0 l/m 5,9 km/h (2 Bft) W-SW 252 0 min 0,000 mm 1,5 UV-I 253 W/m 13,9 C 21,0 C 9,7 km/h (2 Bft) 100,00 %
30.05.2016 16:36 21,0 C 64 % 1005,3 hPa 0,0 l/m 5,3 km/h (1 Bft) S-SW 194 0 min 0,000 mm 1,5 UV-I 258 W/m 13,9 C 21,0 C 6,4 km/h (2 Bft) 100,00 %
30.05.2016 16:37 21,0 C 64 % 1005,4 hPa 0,0 l/m 4,2 km/h (1 Bft) S-SW 204 0 min 0,000 mm 1,6 UV-I 264 W/m 13,9 C 21,0 C 6,4 km/h (2 Bft) 100,00 %
30.05.2016 16:38 21,1 C 62 % 1005,4 hPa 0,0 l/m 4,4 km/h (1 Bft) S-SW 194 0 min 0,000 mm 1,6 UV-I 273 W/m 13,5 C 21,1 C 6,4 km/h (2 Bft) 100,00 %
30.05.2016 16:39 21,0 C 62 % 1005,4 hPa 0,0 l/m 3,9 km/h (1 Bft) S-SW 195 0 min 0,000 mm 1,6 UV-I 279 W/m 13,4 C 21,0 C 6,4 km/h (2 Bft) 100,00 %
30.05.2016 16:40 21,0 C 63 % 1005,4 hPa 0,0 l/m 4,8 km/h (1 Bft) S-SO 158 0 min 0,000 mm 1,6 UV-I 286 W/m 13,7 C 21,0 C 6,4 km/h (2 Bft) 100,00 %
30.05.2016 16:41 21,0 C 63 % 1005,4 hPa 0,0 l/m 5,4 km/h (1 Bft) S-SO 161 0 min 0,000 mm 1,6 UV-I 293 W/m 13,7 C 21,0 C 9,7 km/h (2 Bft) 100,00 %
30.05.2016 16:42 21,0 C 64 % 1005,4 hPa 0,0 l/m 4,3 km/h (1 Bft) S 179 0 min 0,000 mm 1,6 UV-I 299 W/m 13,9 C 21,0 C 6,4 km/h (2 Bft) 100,00 %
30.05.2016 16:43 21,1 C 64 % 1005,4 hPa 0,0 l/m 5,6 km/h (1 Bft) S 186 0 min 0,000 mm 1,7 UV-I 303 W/m 14,0 C 21,1 C 8,0 km/h (2 Bft) 100,00 %
30.05.2016 16:44 21,1 C 62 % 1005,4 hPa 0,0 l/m 7,8 km/h (2 Bft) S 175 0 min 0,000 mm 1,6 UV-I 298 W/m 13,5 C 20,6 C 14,5 km/h (3 Bft) 100,00 %
30.05.2016 16:45 21,1 C 63 % 1005,4 hPa 0,0 l/m 3,4 km/h (1 Bft) S 180 0 min 0,000 mm 1,7 UV-I 311 W/m 13,8 C 21,1 C 6,4 km/h (2 Bft) 100,00 %
30.05.2016 16:46 21,1 C 61 % 1005,4 hPa 0,0 l/m 2,1 km/h (1 Bft) S 180 0 min 0,000 mm 1,7 UV-I 321 W/m 13,3 C 21,1 C 3,2 km/h (1 Bft) 100,00 %
30.05.2016 16:47 21,1 C 62 % 1005,4 hPa 0,0 l/m 3,9 km/h (1 Bft) S-SO 167 0 min 0,000 mm 1,6 UV-I 291 W/m 13,5 C 21,1 C 6,4 km/h (2 Bft) 100,00 %
30.05.2016 16:48 21,1 C 62 % 1005,4 hPa 0,0 l/m 3,8 km/h (1 Bft) S 185 0 min 0,000 mm 1,6 UV-I 273 W/m 13,5 C 21,1 C 6,4 km/h (2 Bft) 100,00 %
30.05.2016 16:49 21,1 C 66 % 1005,4 hPa 0,0 l/m 4,5 km/h (1 Bft) S 185 0 min 0,000 mm 1,5 UV-I 247 W/m 14,5 C 21,1 C 6,4 km/h (2 Bft) 100,00 %
30.05.2016 16:50 21,2 C 63 % 1005,5 hPa 0,0 l/m 3,5 km/h (1 Bft) SW 214 0 min 0,000 mm 1,4 UV-I 233 W/m 13,9 C 21,2 C 4,8 km/h (1 Bft) 100,00 %
30.05.2016 16:51 21,1 C 61 % 1005,4 hPa 0,0 l/m 6,7 km/h (2 Bft) S 190 0 min 0,000 mm 1,4 UV-I 227 W/m 13,3 C 21,0 C 9,7 km/h (2 Bft) 100,00 %
30.05.2016 16:52 21,1 C 62 % 1005,5 hPa 0,0 l/m 4,8 km/h (1 Bft) S-SW 193 0 min 0,000 mm 1,4 UV-I 224 W/m 13,5 C 21,1 C 6,4 km/h (2 Bft) 96,15 %
30.05.2016 16:53 21,1 C 62 % 1005,5 hPa 0,0 l/m 3,5 km/h (1 Bft) S-SW 213 0 min 0,000 mm 1,4 UV-I 221 W/m 13,5 C 21,1 C 4,8 km/h (1 Bft) 100,00 %
30.05.2016 16:54 21,1 C 64 % 1005,4 hPa 0,0 l/m 3,8 km/h (1 Bft) S 190 0 min 0,000 mm 1,4 UV-I 219 W/m 14,0 C 21,1 C 6,4 km/h (2 Bft) 100,00 %
30.05.2016 16:55 21,1 C 61 % 1005,5 hPa 0,0 l/m 5,4 km/h (1 Bft) S 177 0 min 0,000 mm 1,4 UV-I 222 W/m 13,3 C 21,1 C 9,7 km/h (2 Bft) 95,65 %
30.05.2016 16:56 21,0 C 61 % 1005,5 hPa 0,0 l/m 6,1 km/h (2 Bft) S 173 0 min 0,000 mm 1,4 UV-I 226 W/m 13,2 C 21,0 C 9,7 km/h (2 Bft) 100,00 %
30.05.2016 16:57 20,9 C 60 % 1005,4 hPa 0,0 l/m 5,7 km/h (1 Bft) S-SO 159 0 min 0,000 mm 1,4 UV-I 230 W/m 12,8 C 20,9 C 9,7 km/h (2 Bft) 95,83 %
30.05.2016 16:58 20,9 C 61 % 1005,4 hPa 0,0 l/m 3,6 km/h (1 Bft) S 186 0 min 0,000 mm 1,4 UV-I 234 W/m 13,1 C 20,9 C 6,4 km/h (2 Bft) 100,00 %
30.05.2016 16:59 20,9 C 62 % 1005,4 hPa 0,0 l/m 2,9 km/h (1 Bft) S-SW 209 0 min 0,000 mm 1,4 UV-I 236 W/m 13,3 C 20,9 C 4,8 km/h (1 Bft) 93,33 %
30.05.2016 17:00 20,9 C 65 % 1005,4 hPa 0,0 l/m 4,6 km/h (1 Bft) W-SW 249 0 min 0,000 mm 1,4 UV-I 237 W/m 14,1 C 20,9 C 8,0 km/h (2 Bft) 100,00 %
30.05.2016 17:02 21,1 C 65 % 1005,4 hPa 0,0 l/m 3,7 km/h (1 Bft) W-SW 249 0 min 0,178 mm 1,4 UV-I 232 W/m 14,3 C 21,1 C 6,4 km/h (2 Bft) 97,87 %
30.05.2016 17:03 21,1 C 65 % 1005,5 hPa 0,0 l/m 4,5 km/h (1 Bft) W-SW 256 0 min 0,000 mm 1,3 UV-I 194 W/m 14,3 C 21,1 C 6,4 km/h (2 Bft) 95,83 %
30.05.2016 17:04 21,1 C 67 % 1005,4 hPa 0,0 l/m 4,3 km/h (1 Bft) W 264 0 min 0,000 mm 1,3 UV-I 184 W/m 14,7 C 21,1 C 6,4 km/h (2 Bft) 96,15 %
30.05.2016 17:05 20,9 C 67 % 1005,5 hPa 0,0 l/m 5,5 km/h (1 Bft) W-SW 237 0 min 0,000 mm 1,3 UV-I 180 W/m 14,5 C 20,9 C 8,0 km/h (2 Bft) 100,00 %
30.05.2016 17:06 20,9 C 66 % 1005,5 hPa 0,0 l/m 11,6 km/h (2 Bft) W-SW 256 0 min 0,000 mm 1,2 UV-I 178 W/m 14,3 C 19,2 C 14,5 km/h (3 Bft) 94,12 %
30.05.2016 17:07 20,8 C 67 % 1005,5 hPa 0,0 l/m 10,0 km/h (2 Bft) W 263 0 min 0,000 mm 1,2 UV-I 175 W/m 14,4 C 19,5 C 14,5 km/h (3 Bft) 96,30 %
30.05.2016 17:08 20,7 C 68 % 1005,4 hPa 0,0 l/m 8,2 km/h (2 Bft) SW 235 0 min 0,000 mm 1,2 UV-I 172 W/m 14,6 C 20,0 C 12,9 km/h (3 Bft) 94,80 %
30.05.2016 17:09 20,7 C 69 % 1005,4 hPa 0,0 l/m 5,2 km/h (1 Bft) SW 225 0 min 0,000 mm 1,2 UV-I 164 W/m 14,8 C 20,7 C 8,0 km/h (2 Bft) 97,56 %
30.05.2016 17:10 20,6 C 68 % 1005,4 hPa 0,0 l/m 5,8 km/h (2 Bft) W-NW 290 0 min 0,000 mm 1,2 UV-I 161 W/m 14,5 C 20,6 C 8,0 km/h (2 Bft) 91,30 %
30.05.2016 17:11 20,6 C 68 % 1005,5 hPa 0,0 l/m 4,4 km/h (1 Bft) W-NW 290 0 min 0,000 mm 1,2 UV-I 157 W/m 14,5 C 20,6 C 6,4 km/h (2 Bft) 100,00 %
30.05.2016 17:12 20,4 C 70 % 1005,4 hPa 0,0 l/m 3,7 km/h (1 Bft) W 274 0 min 0,000 mm 1,2 UV-I 155 W/m 14,7 C 20,4 C 6,4 km/h (2 Bft) 97,37 %
30.05.2016 17:13 20,4 C 69 % 1005,4 hPa 0,0 l/m 5,2 km/h (1 Bft) W 263 0 min 0,000 mm 1,2 UV-I 156 W/m 14,5 C 20,4 C 9,7 km/h (2 Bft) 95,83 %
30.05.2016 17:14 20,4 C 68 % 1005,4 hPa 0,0 l/m 5,5 km/h (1 Bft) W 276 0 min 0,000 mm 1,2 UV-I 156 W/m 14,3 C 20,4 C 9,7 km/h (2 Bft) 100,00 %
30.05.2016 17:15 20,3 C 67 % 1005,4 hPa 0,0 l/m 3,5 km/h (1 Bft) W-SW 240 0 min 0,000 mm 1,2 UV-I 159 W/m 14,0 C 20,3 C 6,4 km/h (2 Bft) 96,30 %
30.05.2016 17:16 20,3 C 68 % 1005,4 hPa 0,0 l/m 3,6 km/h (1 Bft) SW 215 0 min 0,000 mm 1,2 UV-I 162 W/m 14,2 C 20,3 C 4,8 km/h (1 Bft) 100,00 %
30.05.2016 17:17 20,3 C 68 % 1005,4 hPa 0,0 l/m 3,9 km/h (1 Bft) S-SW 213 0 min 0,000 mm 1,2 UV-I 162 W/m 14,2 C 20,3 C 6,4 km/h (2 Bft) 95,83 %
30.05.2016 17:18 20,2 C 68 % 1005,4 hPa 0,0 l/m 5,6 km/h (1 Bft) W-SW 247 0 min 0,000 mm 1,2 UV-I 162 W/m 14,1 C 20,2 C 8,0 km/h (2 Bft) 100,00 %
30.05.2016 17:19 20,2 C 68 % 1005,4 hPa 0,0 l/m 4,5 km/h (1 Bft) W-SW 257 0 min 0,000 mm 1,2 UV-I 162 W/m 14,1 C 20,2 C 8,0 km/h (2 Bft) 96,15 %
30.05.2016 17:20 20,1 C 68 % 1005,4 hPa 0,0 l/m 3,9 km/h (1 Bft) W-SW 240 0 min 0,000 mm 1,2 UV-I 162 W/m 14,0 C 20,1 C 6,4 km/h (2 Bft) 96,30 %
30.05.2016 17:21 20,1 C 69 % 1005,4 hPa 0,0 l/m 2,6 km/h (1 Bft) W 278 0 min 0,000 mm 1,2 UV-I 158 W/m 14,2 C 20,1 C 3,2 km/h (1 Bft) 92,86 %
30.05.2016 17:22 20,1 C 70 % 1005,4 hPa 0,0 l/m 3,7 km/h (1 Bft) W 259 0 min 0,000 mm 1,2 UV-I 155 W/m 14,5 C 20,1 C 6,4 km/h (2 Bft) 96,67 %
30.05.2016 17:23 20,1 C 70 % 1005,4 hPa 0,0 l/m 3,1 km/h (1 Bft) N-NW 329 0 min 0,000 mm 1,2 UV-I 155 W/m 14,5 C 20,1 C 6,4 km/h (2 Bft) 100,00 %
30.05.2016 17:24 20,1 C 70 % 1005,4 hPa 0,0 l/m 3,2 km/h (1 Bft) W-SW 244 0 min 0,000 mm 1,2 UV-I 157 W/m 14,5 C 20,1 C 6,4 km/h (2 Bft) 95,83 %
30.05.2016 17:25 20,0 C 69 % 1005,4 hPa 0,0 l/m 3,1 km/h (1 Bft) W-SW 257 0 min 0,000 mm 1,2 UV-I 161 W/m 14,1 C 20,0 C 6,4 km/h (2 Bft) 100,00 %
30.05.2016 17:26 20,0 C 69 % 1005,4 hPa 0,0 l/m 3,3 km/h (1 Bft) W-SW 238 0 min 0,000 mm 1,2 UV-I 165 W/m 14,1 C 20,0 C 6,4 km/h (2 Bft) 96,30 %
30.05.2016 17:27 20,0 C 69 % 1005,4 hPa 0,0 l/m 4,6 km/h (1 Bft) W 275 0 min 0,000 mm 1,2 UV-I 170 W/m 14,1 C 20,0 C 6,4 km/h (2 Bft) 100,00 %
30.05.2016 17:28 19,9 C 68 % 1005,4 hPa 0,0 l/m 2,1 km/h (1 Bft) W 275 0 min 0,000 mm 1,2 UV-I 178 W/m 13,8 C 19,9 C 3,2 km/h (1 Bft) 100,00 %
30.05.2016 17:29 19,9 C 69 % 1005,4 hPa 0,0 l/m 2,9 km/h (1 Bft) W 266 0 min 0,000 mm 1,2 UV-I 192 W/m 14,0 C 19,9 C 6,4 km/h (2 Bft) 100,00 %
30.05.2016 17:30 19,9 C 68 % 1005,4 hPa 0,0 l/m 3,4 km/h (1 Bft) W 279 0 min 0,000 mm 1,2 UV-I 204 W/m 13,8 C 19,9 C 6,4 km/h (2 Bft) 91,67 %
30.05.2016 17:31 19,9 C 69 % 1005,4 hPa 0,0 l/m 3,6 km/h (1 Bft) W 272 0 min 0,000 mm 1,3 UV-I 233 W/m 14,0 C 19,9 C 4,8 km/h (1 Bft) 100,00 %
30.05.2016 17:32 19,9 C 67 % 1005,4 hPa 0,0 l/m 4,3 km/h (1 Bft) W-SW 244 0 min 0,000 mm 1,4 UV-I 248 W/m 13,6 C 19,9 C 8,0 km/h (2 Bft) 100,00 %
30.05.2016 17:33 20,0 C 67 % 1005,4 hPa 0,0 l/m 3,9 km/h (1 Bft) W 261 1 min 0,000 mm 1,3 UV-I 322 W/m 13,7 C 20,0 C 4,8 km/h (1 Bft) 100,00 %
30.05.2016 17:34 20,1 C 68 % 1005,3 hPa 0,0 l/m 3,9 km/h (1 Bft) W-SW 248 1 min 0,000 mm 1,3 UV-I 295 W/m 14,0 C 20,1 C 6,4 km/h (2 Bft) 100,00 %
30.05.2016 17:35 20,1 C 67 % 1005,4 hPa 0,0 l/m 4,5 km/h (1 Bft) W 263 0 min 0,000 mm 1,3 UV-I 270 W/m 13,8 C 20,1 C 6,4 km/h (2 Bft) 100,00 %
30.05.2016 17:36 20,1 C 66 % 1005,4 hPa 0,0 l/m 5,8 km/h (2 Bft) W 261 0 min 0,000 mm 1,2 UV-I 232 W/m 13,5 C 20,1 C 11,3 km/h (2 Bft) 100,00 %
30.05.2016 17:37 20,1 C 64 % 1005,4 hPa 0,0 l/m 4,5 km/h (1 Bft) W-SW 246 0 min 0,000 mm 1,2 UV-I 211 W/m 13,1 C 20,1 C 6,4 km/h (2 Bft) 100,00 %
30.05.2016 17:38 20,1 C 65 % 1005,3 hPa 0,0 l/m 4,2 km/h (1 Bft) W-SW 246 0 min 0,000 mm 1,2 UV-I 217 W/m 13,3 C 20,1 C 6,4 km/h (2 Bft) 95,83 %
30.05.2016 17:39 20,1 C 64 % 1005,3 hPa 0,0 l/m 4,0 km/h (1 Bft) SW 232 0 min 0,000 mm 1,2 UV-I 229 W/m 13,1 C 20,1 C 9,7 km/h (2 Bft) 100,00 %
30.05.2016 17:40 20,1 C 63 % 1005,3 hPa 0,0 l/m 3,0 km/h (1 Bft) SW 236 0 min 0,000 mm 1,2 UV-I 217 W/m 12,8 C 20,1 C 4,8 km/h (1 Bft) 100,00 %
30.05.2016 17:41 20,1 C 64 % 1005,3 hPa 0,0 l/m 4,2 km/h (1 Bft) W 265 0 min 0,000 mm 1,2 UV-I 250 W/m 13,1 C 20,1 C 4,8 km/h (1 Bft) 100,00 %
30.05.2016 17:42 20,2 C 65 % 1005,3 hPa 0,0 l/m 2,6 km/h (1 Bft) W 269 1 min 0,000 mm 1,2 UV-I 274 W/m 13,4 C 20,2 C 4,8 km/h (1 Bft) 100,00 %
30.05.2016 17:43 20,2 C 64 % 1005,2 hPa 0,0 l/m 5,0 km/h (1 Bft) W 267 1 min 0,000 mm 1,4 UV-I 279 W/m 13,2 C 20,2 C 9,7 km/h (2 Bft) 100,00 %
30.05.2016 17:44 20,3 C 64 % 1005,2 hPa 0,0 l/m 3,1 km/h (1 Bft) W 267 1 min 0,000 mm 1,3 UV-I 435 W/m 13,3 C 20,3 C 4,8 km/h (1 Bft) 100,00 %
30.05.2016 17:45 20,4 C 64 % 1005,2 hPa 0,0 l/m 2,5 km/h (1 Bft) W 267 1 min 0,000 mm 1,4 UV-I 449 W/m 13,4 C 20,4 C 3,2 km/h (1 Bft) 100,00 %
30.05.2016 17:46 20,6 C 65 % 1005,2 hPa 0,0 l/m 2,0 km/h (1 Bft) W 267 1 min 0,000 mm 1,4 UV-I 517 W/m 13,8 C 20,6 C 3,2 km/h (1 Bft) 100,00 %
30.05.2016 17:47 20,6 C 62 % 1005,2 hPa 0,0 l/m 3,9 km/h (1 Bft) W 263 1 min 0,000 mm 1,4 UV-I 521 W/m 13,1 C 20,6 C 6,4 km/h (2 Bft) 100,00 %
30.05.2016 17:48 20,7 C 65 % 1005,3 hPa 0,0 l/m 1,4 km/h (1 Bft) W 263 1 min 0,000 mm 1,4 UV-I 492 W/m 13,9 C 20,7 C 1,6 km/h (1 Bft) 100,00 %
30.05.2016 17:49 20,8 C 63 % 1005,3 hPa 0,0 l/m 3,4 km/h (1 Bft) W-SW 254 1 min 0,000 mm 1,3 UV-I 446 W/m 13,5 C 20,8 C 6,4 km/h (2 Bft) 100,00 %
30.05.2016 17:50 20,9 C 64 % 1005,2 hPa 0,0 l/m 1,3 km/h (1 Bft) W-SW 254 1 min 0,000 mm 1,3 UV-I 433 W/m 13,8 C 20,9 C 3,2 km/h (1 Bft) 96,15 %
30.05.2016 17:51 21,0 C 63 % 1005,3 hPa 0,0 l/m 3,6 km/h (1 Bft) W-SW 240 1 min 0,000 mm 1,2 UV-I 290 W/m 13,7 C 21,0 C 6,4 km/h (2 Bft) 100,00 %
30.05.2016 17:52 21,0 C 61 % 1005,3 hPa 0,0 l/m 3,8 km/h (1 Bft) W-SW 243 0 min 0,000 mm 1,1 UV-I 245 W/m 13,2 C 21,0 C 6,4 km/h (2 Bft) 96,88 %
30.05.2016 17:53 21,0 C 61 % 1005,3 hPa 0,0 l/m 2,5 km/h (1 Bft) W 273 0 min 0,000 mm 1,0 UV-I 210 W/m 13,2 C 21,0 C 4,8 km/h (1 Bft) 100,00 %
30.05.2016 17:54 20,9 C 61 % 1005,3 hPa 0,0 l/m 3,6 km/h (1 Bft) SW 232 0 min 0,000 mm 1,0 UV-I 193 W/m 13,1 C 20,9 C 4,8 km/h (1 Bft) 100,00 %
30.05.2016 17:55 20,9 C 60 % 1005,3 hPa 0,0 l/m 4,4 km/h (1 Bft) W 261 0 min 0,000 mm 0,9 UV-I 190 W/m 12,8 C 20,9 C 6,4 km/h (2 Bft) 100,00 %
30.05.2016 17:56 20,8 C 60 % 1005,3 hPa 0,0 l/m 3,5 km/h (1 Bft) SW 236 0 min 0,000 mm 0,9 UV-I 190 W/m 12,7 C 20,8 C 6,4 km/h (2 Bft) 95,65 %
30.05.2016 17:57 20,8 C 61 % 1005,3 hPa 0,0 l/m 3,7 km/h (1 Bft) W 259 0 min 0,000 mm 0,9 UV-I 189 W/m 13,0 C 20,8 C 6,4 km/h (2 Bft) 100,00 %
30.05.2016 17:58 20,8 C 63 % 1005,3 hPa 0,0 l/m 5,9 km/h (2 Bft) W-SW 248 0 min 0,000 mm 0,9 UV-I 192 W/m 13,5 C 20,8 C 9,7 km/h (2 Bft) 100,00 %
30.05.2016 17:59 20,7 C 61 % 1005,4 hPa 0,0 l/m 4,3 km/h (1 Bft) SW 225 0 min 0,000 mm 0,9 UV-I 201 W/m 12,9 C 20,7 C 6,4 km/h (2 Bft) 96,15 %
30.05.2016 18:00 20,7 C 62 % 1005,3 hPa 0,0 l/m 4,4 km/h (1 Bft) W 266 1 min 0,000 mm 0,9 UV-I 247 W/m 13,2 C 20,7 C 6,4 km/h (2 Bft) 100,00 %
30.05.2016 18:02 20,7 C 63 % 1005,3 hPa 0,0 l/m 5,5 km/h (1 Bft) W 269 2 min 0,152 mm 0,9 UV-I 279 W/m 13,4 C 20,7 C 9,7 km/h (2 Bft) 100,00 %
30.05.2016 18:03 20,7 C 63 % 1005,4 hPa 0,0 l/m 6,2 km/h (2 Bft) W-SW 245 1 min 0,000 mm 1,0 UV-I 376 W/m 13,4 C 20,7 C 8,0 km/h (2 Bft) 90,91 %
30.05.2016 18:04 20,7 C 63 % 1005,4 hPa 0,0 l/m 6,0 km/h (2 Bft) W-SW 239 1 min 0,000 mm 1,0 UV-I 444 W/m 13,4 C 20,7 C 8,0 km/h (2 Bft) 100,00 %
30.05.2016 18:05 20,8 C 63 % 1005,3 hPa 0,0 l/m 7,4 km/h (2 Bft) W-SW 246 1 min 0,000 mm 1,0 UV-I 474 W/m 13,5 C 20,4 C 12,9 km/h (3 Bft) 100,00 %
30.05.2016 18:06 20,8 C 64 % 1005,4 hPa 0,0 l/m 8,0 km/h (2 Bft) S-SW 209 1 min 0,000 mm 1,0 UV-I 433 W/m 13,7 C 20,2 C 12,9 km/h (3 Bft) 96,30 %
30.05.2016 18:07 20,8 C 63 % 1005,3 hPa 0,0 l/m 9,9 km/h (2 Bft) W 266 1 min 0,000 mm 1,0 UV-I 418 W/m 13,5 C 19,6 C 14,5 km/h (3 Bft) 95,65 %
30.05.2016 18:08 20,8 C 64 % 1005,4 hPa 0,0 l/m 11,2 km/h (2 Bft) W-SW 247 1 min 0,000 mm 1,0 UV-I 472 W/m 13,7 C 19,2 C 17,7 km/h (3 Bft) 100,00 %
30.05.2016 18:09 20,9 C 66 % 1005,4 hPa 0,0 l/m 11,3 km/h (2 Bft) W 281 1 min 0,000 mm 1,0 UV-I 449 W/m 14,3 C 19,3 C 14,5 km/h (3 Bft) 100,00 %
30.05.2016 18:10 20,9 C 65 % 1005,4 hPa 0,0 l/m 12,5 km/h (3 Bft) S-SW 206 1 min 0,000 mm 0,9 UV-I 400 W/m 14,1 C 18,9 C 17,7 km/h (3 Bft) 95,83 %
30.05.2016 18:11 20,8 C 67 % 1005,4 hPa 0,0 l/m 7,6 km/h (2 Bft) SW 223 1 min 0,000 mm 0,9 UV-I 463 W/m 14,4 C 20,3 C 12,9 km/h (3 Bft) 100,00 %
30.05.2016 18:12 20,8 C 68 % 1005,4 hPa 0,0 l/m 6,8 km/h (2 Bft) W 260 1 min 0,000 mm 0,9 UV-I 474 W/m 14,7 C 20,7 C 14,5 km/h (3 Bft) 93,33 %
30.05.2016 18:13 20,6 C 68 % 1005,4 hPa 0,0 l/m 15,0 km/h (3 Bft) W-SW 250 1 min 0,000 mm 0,9 UV-I 375 W/m 14,5 C 18,0 C 17,7 km/h (3 Bft) 100,00 %
30.05.2016 18:14 20,4 C 68 % 1005,4 hPa 0,0 l/m 14,6 km/h (3 Bft) SW 222 1 min 0,000 mm 0,9 UV-I 336 W/m 14,3 C 17,8 C 17,7 km/h (3 Bft) 100,00 %
30.05.2016 18:15 20,3 C 69 % 1005,4 hPa 0,0 l/m 9,2 km/h (2 Bft) W-SW 247 1 min 0,000 mm 0,9 UV-I 424 W/m 14,4 C 19,2 C 14,5 km/h (3 Bft) 93,33 %
30.05.2016 18:16 20,3 C 69 % 1005,3 hPa 0,0 l/m 5,7 km/h (1 Bft) W-SW 244 1 min 0,000 mm 0,9 UV-I 505 W/m 14,4 C 20,3 C 8,0 km/h (2 Bft) 100,00 %
30.05.2016 18:17 20,2 C 69 % 1005,4 hPa 0,0 l/m 9,0 km/h (2 Bft) SW 221 1 min 0,000 mm 0,9 UV-I 501 W/m 14,3 C 19,2 C 12,9 km/h (3 Bft) 93,33 %
30.05.2016 18:20 20,1 C 70 % 1005,4 hPa 0,0 l/m 8,1 km/h (2 Bft) SW 224 3 min 0,000 mm 0,9 UV-I 497 W/m 14,5 C 19,4 C 11,3 km/h (2 Bft) 100,00 %
30.05.2016 18:21 20,2 C 70 % 1005,4 hPa 0,0 l/m 6,9 km/h (2 Bft) S-SW 211 1 min 0,000 mm 0,8 UV-I 481 W/m 14,5 C 20,0 C 8,0 km/h (2 Bft) 100,00 %
30.05.2016 18:22 20,2 C 69 % 1005,4 hPa 0,0 l/m 12,3 km/h (3 Bft) W 267 1 min 0,000 mm 0,8 UV-I 452 W/m 14,3 C 18,2 C 16,1 km/h (3 Bft) 100,00 %
30.05.2016 18:23 20,2 C 70 % 1005,4 hPa 0,0 l/m 12,7 km/h (3 Bft) W-SW 258 1 min 0,000 mm 0,8 UV-I 452 W/m 14,5 C 18,1 C 17,7 km/h (3 Bft) 100,00 %
30.05.2016 18:24 20,2 C 71 % 1005,4 hPa 0,0 l/m 9,6 km/h (2 Bft) S 170 1 min 0,000 mm 0,7 UV-I 454 W/m 14,8 C 19,0 C 16,1 km/h (3 Bft) 100,00 %
30.05.2016 18:25 20,1 C 70 % 1005,3 hPa 0,0 l/m 5,1 km/h (1 Bft) SW 218 1 min 0,000 mm 0,7 UV-I 274 W/m 14,5 C 20,1 C 8,0 km/h (2 Bft) 95,83 %
30.05.2016 18:26 19,9 C 70 % 1005,3 hPa 0,0 l/m 8,4 km/h (2 Bft) S-SW 201 1 min 0,000 mm 0,7 UV-I 256 W/m 14,3 C 19,1 C 12,9 km/h (3 Bft) 100,00 %
30.05.2016 18:27 19,7 C 69 % 1005,3 hPa 0,0 l/m 8,7 km/h (2 Bft) S-SW 196 1 min 0,000 mm 0,7 UV-I 252 W/m 13,8 C 18,8 C 12,9 km/h (3 Bft) 100,00 %
30.05.2016 18:28 19,6 C 71 % 1005,2 hPa 0,0 l/m 7,2 km/h (2 Bft) W-SW 240 1 min 0,000 mm 0,7 UV-I 248 W/m 14,2 C 19,3 C 12,9 km/h (3 Bft) 100,00 %
30.05.2016 18:29 19,4 C 72 % 1005,3 hPa 0,0 l/m 8,2 km/h (2 Bft) SW 230 1 min 0,000 mm 0,7 UV-I 248 W/m 14,2 C 18,6 C 11,3 km/h (2 Bft) 100,00 %
30.05.2016 18:30 19,4 C 73 % 1005,3 hPa 0,0 l/m 10,1 km/h (2 Bft) W-SW 244 1 min 0,000 mm 0,6 UV-I 231 W/m 14,4 C 17,9 C 14,5 km/h (3 Bft) 96,15 %
30.05.2016 18:31 19,4 C 73 % 1005,2 hPa 0,0 l/m 7,1 km/h (2 Bft) W-SW 257 1 min 0,000 mm 0,6 UV-I 223 W/m 14,4 C 19,1 C 11,3 km/h (2 Bft) 100,00 %
30.05.2016 18:32 19,4 C 73 % 1005,3 hPa 0,0 l/m 10,0 km/h (2 Bft) W-SW 255 1 min 0,000 mm 0,6 UV-I 214 W/m 14,4 C 18,0 C 12,9 km/h (3 Bft) 91,67 %
30.05.2016 18:33 19,4 C 73 % 1005,3 hPa 0,0 l/m 9,9 km/h (2 Bft) SW 225 1 min 0,000 mm 0,6 UV-I 206 W/m 14,4 C 18,0 C 12,9 km/h (3 Bft) 100,00 %
30.05.2016 18:34 19,3 C 72 % 1005,3 hPa 0,0 l/m 11,2 km/h (2 Bft) W-SW 255 1 min 0,000 mm 0,6 UV-I 196 W/m 14,1 C 17,5 C 17,7 km/h (3 Bft) 100,00 %
30.05.2016 18:35 19,3 C 73 % 1005,3 hPa 0,0 l/m 7,7 km/h (2 Bft) SW 218 1 min 0,000 mm 0,6 UV-I 190 W/m 14,3 C 18,7 C 11,3 km/h (2 Bft) 100,00 %
30.05.2016 18:36 19,2 C 72 % 1005,3 hPa 0,0 l/m 7,6 km/h (2 Bft) W 265 1 min 0,000 mm 0,6 UV-I 188 W/m 14,0 C 18,7 C 12,9 km/h (3 Bft) 96,30 %
30.05.2016 18:37 19,2 C 73 % 1005,3 hPa 0,0 l/m 11,3 km/h (2 Bft) SW 228 0 min 0,000 mm 0,5 UV-I 174 W/m 14,2 C 17,3 C 14,5 km/h (3 Bft) 100,00 %
30.05.2016 18:38 19,1 C 73 % 1005,3 hPa 0,0 l/m 5,8 km/h (2 Bft) SW 232 0 min 0,000 mm 0,5 UV-I 162 W/m 14,1 C 19,1 C 9,7 km/h (2 Bft) 100,00 %
30.05.2016 18:39 19,1 C 74 % 1005,4 hPa 0,0 l/m 3,8 km/h (1 Bft) W-SW 243 0 min 0,000 mm 0,5 UV-I 154 W/m 14,4 C 19,1 C 9,7 km/h (2 Bft) 95,65 %
30.05.2016 18:40 19,1 C 75 % 1005,4 hPa 0,0 l/m 10,1 km/h (2 Bft) S-SW 211 0 min 0,000 mm 0,5 UV-I 142 W/m 14,6 C 17,6 C 12,9 km/h (3 Bft) 100,00 %
30.05.2016 18:41 19,0 C 75 % 1005,5 hPa 0,0 l/m 9,2 km/h (2 Bft) W-SW 237 0 min 0,000 mm 0,5 UV-I 130 W/m 14,5 C 17,8 C 14,5 km/h (3 Bft) 100,00 %
30.05.2016 18:42 19,0 C 75 % 1005,5 hPa 0,0 l/m 7,7 km/h (2 Bft) W-SW 251 0 min 0,000 mm 0,5 UV-I 117 W/m 14,5 C 18,4 C 11,3 km/h (2 Bft) 100,00 %
30.05.2016 18:43 18,9 C 75 % 1005,4 hPa 0,0 l/m 8,5 km/h (2 Bft) S 177 0 min 0,000 mm 0,5 UV-I 110 W/m 14,4 C 18,0 C 11,3 km/h (2 Bft) 100,00 %
30.05.2016 18:44 18,9 C 75 % 1005,5 hPa 0,0 l/m 4,6 km/h (1 Bft) S 182 0 min 0,000 mm 0,5 UV-I 105 W/m 14,4 C 18,9 C 8,0 km/h (2 Bft) 100,00 %
30.05.2016 18:45 18,8 C 76 % 1005,5 hPa 0,0 l/m 11,2 km/h (2 Bft) S 180 0 min 0,000 mm 0,5 UV-I 101 W/m 14,5 C 16,9 C 16,1 km/h (3 Bft) 100,00 %
30.05.2016 18:46 18,8 C 75 % 1005,5 hPa 0,0 l/m 7,0 km/h (2 Bft) SW 218 0 min 0,000 mm 0,5 UV-I 98 W/m 14,3 C 18,5 C 9,7 km/h (2 Bft) 100,00 %
30.05.2016 18:47 18,7 C 75 % 1005,5 hPa 0,0 l/m 9,7 km/h (2 Bft) SW 235 0 min 0,000 mm 0,5 UV-I 97 W/m 14,2 C 17,3 C 16,1 km/h (3 Bft) 100,00 %
30.05.2016 18:48 18,6 C 76 % 1005,5 hPa 0,0 l/m 8,9 km/h (2 Bft) S 186 0 min 0,000 mm 0,5 UV-I 97 W/m 14,3 C 17,5 C 11,3 km/h (2 Bft) 100,00 %
30.05.2016 18:49 18,6 C 76 % 1005,5 hPa 0,0 l/m 5,9 km/h (2 Bft) S-SW 200 0 min 0,000 mm 0,5 UV-I 99 W/m 14,3 C 18,6 C 9,7 km/h (2 Bft) 100,00 %
30.05.2016 18:50 18,5 C 76 % 1005,5 hPa 0,0 l/m 8,1 km/h (2 Bft) S-SW 213 0 min 0,000 mm 0,0 UV-I 108 W/m 14,2 C 17,7 C 11,3 km/h (2 Bft) 96,15 %
30.05.2016 18:51 18,5 C 77 % 1005,5 hPa 0,0 l/m 4,6 km/h (1 Bft) SW 236 0 min 0,000 mm 0,0 UV-I 110 W/m 14,4 C 18,5 C 6,4 km/h (2 Bft) 96,55 %
30.05.2016 18:52 18,4 C 77 % 1005,5 hPa 0,0 l/m 7,1 km/h (2 Bft) SW 231 0 min 0,000 mm 0,0 UV-I 130 W/m 14,3 C 18,1 C 11,3 km/h (2 Bft) 95,83 %
30.05.2016 18:53 18,5 C 78 % 1005,5 hPa 0,0 l/m 9,2 km/h (2 Bft) SW 230 1 min 0,000 mm 0,0 UV-I 164 W/m 14,6 C 17,3 C 11,3 km/h (2 Bft) 100,00 %
30.05.2016 18:54 18,5 C 78 % 1005,5 hPa 0,0 l/m 9,0 km/h (2 Bft) SW 225 1 min 0,000 mm 0,0 UV-I 164 W/m 14,6 C 17,4 C 11,3 km/h (2 Bft) 96,15 %
30.05.2016 18:55 18,6 C 77 % 1005,4 hPa 0,0 l/m 7,0 km/h (2 Bft) SW 217 0 min 0,000 mm 0,0 UV-I 82 W/m 14,5 C 18,3 C 12,9 km/h (3 Bft) 100,00 %
30.05.2016 18:56 18,6 C 77 % 1005,4 hPa 0,0 l/m 8,9 km/h (2 Bft) SW 229 0 min 0,000 mm 0,0 UV-I 78 W/m 14,5 C 17,5 C 14,5 km/h (3 Bft) 91,30 %
30.05.2016 18:57 18,6 C 77 % 1005,5 hPa 0,0 l/m 6,6 km/h (2 Bft) SW 236 0 min 0,000 mm 0,0 UV-I 76 W/m 14,5 C 18,5 C 9,7 km/h (2 Bft) 100,00 %
30.05.2016 18:58 18,5 C 77 % 1005,4 hPa 0,0 l/m 8,2 km/h (2 Bft) SW 229 0 min 0,000 mm 0,0 UV-I 73 W/m 14,4 C 17,7 C 12,9 km/h (3 Bft) 96,15 %
30.05.2016 18:59 18,5 C 78 % 1005,4 hPa 0,0 l/m 7,6 km/h (2 Bft) SW 229 0 min 0,000 mm 0,0 UV-I 74 W/m 14,6 C 18,0 C 12,9 km/h (3 Bft) 96,67 %
30.05.2016 19:00 18,5 C 77 % 1005,5 hPa 0,0 l/m 6,8 km/h (2 Bft) W-SW 238 0 min 0,000 mm 0,0 UV-I 79 W/m 14,4 C 18,3 C 11,3 km/h (2 Bft) 100,00 %
30.05.2016 19:02 18,4 C 77 % 1005,5 hPa 0,0 l/m 7,1 km/h (2 Bft) W-SW 251 0 min 0,178 mm 0,0 UV-I 91 W/m 14,3 C 18,1 C 12,9 km/h (3 Bft) 98,11 %
30.05.2016 19:03 18,4 C 78 % 1005,4 hPa 0,0 l/m 6,0 km/h (2 Bft) SW 232 0 min 0,000 mm 0,0 UV-I 117 W/m 14,5 C 18,4 C 8,0 km/h (2 Bft) 96,30 %
30.05.2016 19:04 18,4 C 78 % 1005,5 hPa 0,0 l/m 6,6 km/h (2 Bft) SW 227 0 min 0,000 mm 0,0 UV-I 126 W/m 14,5 C 18,3 C 8,0 km/h (2 Bft) 95,27 %
30.05.2016 19:05 18,4 C 77 % 1005,5 hPa 0,0 l/m 7,3 km/h (2 Bft) SW 233 0 min 0,000 mm 0,0 UV-I 125 W/m 14,3 C 18,0 C 9,7 km/h (2 Bft) 95,45 %
30.05.2016 19:06 18,4 C 78 % 1005,5 hPa 0,0 l/m 6,8 km/h (2 Bft) W-SW 257 0 min 0,000 mm 0,0 UV-I 119 W/m 14,5 C 18,2 C 9,7 km/h (2 Bft) 95,65 %
30.05.2016 19:07 18,4 C 79 % 1005,5 hPa 0,0 l/m 7,0 km/h (2 Bft) W-SW 238 0 min 0,000 mm 0,0 UV-I 95 W/m 14,7 C 18,1 C 12,9 km/h (3 Bft) 100,00 %
30.05.2016 19:08 18,4 C 78 % 1005,5 hPa 0,0 l/m 6,6 km/h (2 Bft) W-SW 247 0 min 0,000 mm 0,0 UV-I 78 W/m 14,5 C 18,3 C 9,7 km/h (2 Bft) 95,65 %
30.05.2016 19:09 18,3 C 79 % 1005,5 hPa 0,0 l/m 6,5 km/h (2 Bft) W-SW 251 0 min 0,000 mm 0,0 UV-I 75 W/m 14,6 C 18,3 C 11,3 km/h (2 Bft) 100,00 %
30.05.2016 19:10 18,3 C 79 % 1005,5 hPa 0,0 l/m 7,6 km/h (2 Bft) W-SW 251 0 min 0,000 mm 0,0 UV-I 73 W/m 14,6 C 17,7 C 11,3 km/h (2 Bft) 95,65 %
30.05.2016 19:11 18,2 C 79 % 1005,6 hPa 0,0 l/m 6,5 km/h (2 Bft) W-SW 239 0 min 0,000 mm 0,0 UV-I 74 W/m 14,5 C 18,2 C 11,3 km/h (2 Bft) 100,00 %
30.05.2016 19:12 18,2 C 79 % 1005,5 hPa 0,0 l/m 4,6 km/h (1 Bft) SW 216 0 min 0,000 mm 0,0 UV-I 75 W/m 14,5 C 18,2 C 6,4 km/h (2 Bft) 96,15 %
30.05.2016 19:13 18,2 C 79 % 1005,6 hPa 0,0 l/m 7,7 km/h (2 Bft) W-SW 254 0 min 0,000 mm 0,0 UV-I 80 W/m 14,5 C 17,6 C 9,7 km/h (2 Bft) 100,00 %
30.05.2016 19:14 18,2 C 80 % 1005,6 hPa 0,0 l/m 6,0 km/h (2 Bft) W 261 0 min 0,000 mm 0,0 UV-I 81 W/m 14,7 C 18,2 C 9,7 km/h (2 Bft) 95,83 %
30.05.2016 19:15 18,1 C 80 % 1005,6 hPa 0,0 l/m 6,3 km/h (2 Bft) SW 236 0 min 0,000 mm 0,0 UV-I 82 W/m 14,6 C 18,1 C 8,0 km/h (2 Bft) 96,15 %
30.05.2016 19:16 18,1 C 80 % 1005,6 hPa 0,0 l/m 4,7 km/h (1 Bft) W-SW 250 0 min 0,000 mm 0,0 UV-I 81 W/m 14,6 C 18,1 C 6,4 km/h (2 Bft) 100,00 %
30.05.2016 19:17 18,1 C 80 % 1005,6 hPa 0,0 l/m 4,2 km/h (1 Bft) W 265 0 min 0,000 mm 0,0 UV-I 79 W/m 14,6 C 18,1 C 6,4 km/h (2 Bft) 92,86 %
30.05.2016 19:18 18,1 C 81 % 1005,6 hPa 0,0 l/m 5,0 km/h (1 Bft) W-SW 250 0 min 0,000 mm 0,0 UV-I 77 W/m 14,8 C 18,1 C 6,4 km/h (2 Bft) 100,00 %
30.05.2016 19:19 18,1 C 80 % 1005,6 hPa 0,0 l/m 6,0 km/h (2 Bft) SW 225 0 min 0,000 mm 0,0 UV-I 76 W/m 14,6 C 18,1 C 9,7 km/h (2 Bft) 96,55 %
30.05.2016 19:20 18,0 C 80 % 1005,6 hPa 0,0 l/m 9,0 km/h (2 Bft) SW 223 0 min 0,000 mm 0,0 UV-I 75 W/m 14,5 C 16,8 C 12,9 km/h (3 Bft) 100,00 %
30.05.2016 19:21 18,0 C 81 % 1005,6 hPa 0,0 l/m 6,7 km/h (2 Bft) SW 235 0 min 0,000 mm 0,0 UV-I 78 W/m 14,7 C 17,9 C 11,3 km/h (2 Bft) 91,30 %
30.05.2016 19:22 18,0 C 81 % 1005,6 hPa 0,0 l/m 7,9 km/h (2 Bft) SW 216 0 min 0,000 mm 0,0 UV-I 84 W/m 14,7 C 17,3 C 12,9 km/h (3 Bft) 100,00 %
30.05.2016 19:23 18,0 C 81 % 1005,6 hPa 0,0 l/m 5,5 km/h (1 Bft) SW 231 0 min 0,000 mm 0,0 UV-I 101 W/m 14,7 C 18,0 C 8,0 km/h (2 Bft) 96,15 %
30.05.2016 19:24 18,0 C 81 % 1005,6 hPa 0,0 l/m 5,9 km/h (2 Bft) W-SW 251 0 min 0,000 mm 0,0 UV-I 110 W/m 14,7 C 18,0 C 8,0 km/h (2 Bft) 91,67 %
30.05.2016 19:25 18,0 C 81 % 1005,6 hPa 0,0 l/m 4,5 km/h (1 Bft) SW 229 1 min 0,000 mm 0,0 UV-I 116 W/m 14,7 C 18,0 C 6,4 km/h (2 Bft) 95,30 %
30.05.2016 19:26 18,0 C 81 % 1005,6 hPa 0,0 l/m 5,4 km/h (1 Bft) W 274 1 min 0,000 mm 0,0 UV-I 116 W/m 14,7 C 18,0 C 9,7 km/h (2 Bft) 97,56 %
30.05.2016 19:27 18,1 C 81 % 1005,6 hPa 0,0 l/m 9,0 km/h (2 Bft) SW 229 1 min 0,000 mm 0,0 UV-I 126 W/m 14,8 C 16,9 C 14,5 km/h (3 Bft) 100,00 %
30.05.2016 19:28 18,1 C 81 % 1005,7 hPa 0,0 l/m 7,2 km/h (2 Bft) SW 236 1 min 0,000 mm 0,0 UV-I 134 W/m 14,8 C 17,7 C 11,3 km/h (2 Bft) 100,00 %
30.05.2016 19:29 18,1 C 80 % 1005,7 hPa 0,0 l/m 6,3 km/h (2 Bft) W-SW 254 1 min 0,000 mm 0,0 UV-I 141 W/m 14,6 C 18,1 C 8,0 km/h (2 Bft) 92,31 %
30.05.2016 19:30 18,1 C 80 % 1005,7 hPa 0,0 l/m 7,6 km/h (2 Bft) S-SW 193 1 min 0,000 mm 0,0 UV-I 146 W/m 14,6 C 17,5 C 11,3 km/h (2 Bft) 100,00 %
30.05.2016 19:31 18,2 C 81 % 1005,8 hPa 0,0 l/m 6,6 km/h (2 Bft) W-SW 257 1 min 0,000 mm 0,0 UV-I 144 W/m 14,9 C 18,1 C 11,3 km/h (2 Bft) 100,00 %
30.05.2016 19:32 18,2 C 80 % 1005,7 hPa 0,0 l/m 9,6 km/h (2 Bft) W-SW 258 1 min 0,000 mm 0,0 UV-I 140 W/m 14,7 C 16,8 C 12,9 km/h (3 Bft) 100,00 %
30.05.2016 19:33 18,2 C 80 % 1005,7 hPa 0,0 l/m 7,9 km/h (2 Bft) S-SW 199 1 min 0,000 mm 0,0 UV-I 123 W/m 14,7 C 17,5 C 12,9 km/h (3 Bft) 97,73 %
30.05.2016 19:34 18,2 C 80 % 1005,8 hPa 0,0 l/m 5,6 km/h (1 Bft) S-SW 211 1 min 0,000 mm 0,0 UV-I 103 W/m 14,7 C 18,2 C 9,7 km/h (2 Bft) 100,00 %
30.05.2016 19:35 18,2 C 80 % 1005,7 hPa 0,0 l/m 6,1 km/h (2 Bft) W-SW 249 1 min 0,000 mm 0,0 UV-I 110 W/m 14,7 C 18,2 C 8,0 km/h (2 Bft) 96,30 %
30.05.2016 19:36 18,2 C 80 % 1005,8 hPa 0,0 l/m 5,3 km/h (1 Bft) W-SW 248 1 min 0,000 mm 0,0 UV-I 134 W/m 14,7 C 18,2 C 6,4 km/h (2 Bft) 100,00 %
30.05.2016 19:37 18,2 C 80 % 1005,8 hPa 0,0 l/m 5,7 km/h (1 Bft) SW 219 1 min 0,000 mm 0,0 UV-I 134 W/m 14,7 C 18,2 C 8,0 km/h (2 Bft) 100,00 %
30.05.2016 19:38 18,2 C 80 % 1005,8 hPa 0,0 l/m 8,8 km/h (2 Bft) W 263 1 min 0,000 mm 0,0 UV-I 130 W/m 14,7 C 17,1 C 14,5 km/h (3 Bft) 100,00 %
30.05.2016 19:39 18,2 C 80 % 1005,8 hPa 0,0 l/m 5,4 km/h (1 Bft) SW 218 1 min 0,000 mm 0,0 UV-I 135 W/m 14,7 C 18,2 C 9,7 km/h (2 Bft) 100,00 %
30.05.2016 19:40 18,2 C 80 % 1005,8 hPa 0,0 l/m 5,2 km/h (1 Bft) SW 232 1 min 0,000 mm 0,0 UV-I 133 W/m 14,7 C 18,2 C 6,4 km/h (2 Bft) 100,00 %
30.05.2016 19:41 18,2 C 80 % 1005,8 hPa 0,0 l/m 7,8 km/h (2 Bft) W 281 1 min 0,000 mm 0,0 UV-I 132 W/m 14,7 C 17,6 C 11,3 km/h (2 Bft) 95,83 %
30.05.2016 19:42 18,2 C 80 % 1005,8 hPa 0,0 l/m 5,6 km/h (1 Bft) SW 231 1 min 0,000 mm 0,0 UV-I 129 W/m 14,7 C 18,2 C 6,4 km/h (2 Bft) 100,00 %
30.05.2016 19:43 18,2 C 80 % 1005,8 hPa 0,0 l/m 5,5 km/h (1 Bft) SW 223 1 min 0,000 mm 0,0 UV-I 125 W/m 14,7 C 18,2 C 8,0 km/h (2 Bft) 100,00 %
30.05.2016 19:44 18,3 C 80 % 1005,8 hPa 0,0 l/m 5,3 km/h (1 Bft) W-SW 242 1 min 0,000 mm 0,0 UV-I 121 W/m 14,8 C 18,3 C 11,3 km/h (2 Bft) 100,00 %
30.05.2016 19:45 18,3 C 80 % 1005,8 hPa 0,0 l/m 8,0 km/h (2 Bft) W-SW 238 1 min 0,000 mm 0,0 UV-I 117 W/m 14,8 C 17,6 C 11,3 km/h (2 Bft) 100,00 %
30.05.2016 19:46 18,3 C 79 % 1005,8 hPa 0,0 l/m 5,2 km/h (1 Bft) W-SW 242 1 min 0,000 mm 0,0 UV-I 114 W/m 14,6 C 18,3 C 6,4 km/h (2 Bft) 100,00 %
30.05.2016 19:47 18,3 C 80 % 1005,8 hPa 0,0 l/m 5,1 km/h (1 Bft) W 261 1 min 0,000 mm 0,0 UV-I 108 W/m 14,8 C 18,3 C 6,4 km/h (2 Bft) 100,00 %
30.05.2016 19:48 18,3 C 81 % 1005,8 hPa 0,0 l/m 7,4 km/h (2 Bft) SW 228 1 min 0,000 mm 0,0 UV-I 102 W/m 15,0 C 17,8 C 9,7 km/h (2 Bft) 96,15 %
30.05.2016 19:49 18,3 C 80 % 1005,8 hPa 0,0 l/m 6,7 km/h (2 Bft) SW 232 1 min 0,000 mm 0,0 UV-I 89 W/m 14,8 C 18,2 C 8,0 km/h (2 Bft) 100,00 %
30.05.2016 19:50 18,2 C 80 % 1005,8 hPa 0,0 l/m 7,1 km/h (2 Bft) W-SW 253 0 min 0,000 mm 0,0 UV-I 66 W/m 14,7 C 17,9 C 12,9 km/h (3 Bft) 100,00 %
30.05.2016 19:51 18,2 C 80 % 1005,8 hPa 0,0 l/m 10,4 km/h (2 Bft) W-SW 244 0 min 0,000 mm 0,0 UV-I 49 W/m 14,7 C 16,5 C 14,5 km/h (3 Bft) 100,00 %
30.05.2016 19:52 18,2 C 80 % 1005,8 hPa 0,0 l/m 5,5 km/h (1 Bft) SW 223 0 min 0,000 mm 0,0 UV-I 46 W/m 14,7 C 18,2 C 6,4 km/h (2 Bft) 100,00 %
30.05.2016 19:53 18,1 C 81 % 1005,8 hPa 0,0 l/m 6,7 km/h (2 Bft) W 267 0 min 0,000 mm 0,0 UV-I 44 W/m 14,8 C 18,0 C 11,3 km/h (2 Bft) 100,00 %
30.05.2016 19:54 18,1 C 81 % 1005,8 hPa 0,0 l/m 7,5 km/h (2 Bft) W-SW 255 0 min 0,000 mm 0,0 UV-I 44 W/m 14,8 C 17,6 C 9,7 km/h (2 Bft) 100,00 %
30.05.2016 19:55 18,0 C 81 % 1005,8 hPa 0,0 l/m 6,2 km/h (2 Bft) SW 235 0 min 0,000 mm 0,0 UV-I 43 W/m 14,7 C 18,0 C 9,7 km/h (2 Bft) 100,00 %
30.05.2016 19:56 18,0 C 81 % 1005,9 hPa 0,0 l/m 5,7 km/h (1 Bft) W-SW 248 0 min 0,000 mm 0,0 UV-I 42 W/m 14,7 C 18,0 C 8,0 km/h (2 Bft) 96,30 %
30.05.2016 19:57 17,9 C 81 % 1005,9 hPa 0,0 l/m 6,4 km/h (2 Bft) SW 221 0 min 0,000 mm 0,0 UV-I 42 W/m 14,6 C 17,9 C 11,3 km/h (2 Bft) 100,00 %
30.05.2016 19:58 17,9 C 81 % 1005,9 hPa 0,0 l/m 6,2 km/h (2 Bft) W-SW 254 0 min 0,000 mm 0,0 UV-I 40 W/m 14,6 C 17,9 C 8,0 km/h (2 Bft) 100,00 %
30.05.2016 19:59 17,8 C 82 % 1005,9 hPa 0,0 l/m 6,3 km/h (2 Bft) W-SW 240 0 min 0,000 mm 0,0 UV-I 40 W/m 14,7 C 17,8 C 8,0 km/h (2 Bft) 100,00 %
30.05.2016 20:00 17,8 C 82 % 1005,9 hPa 0,0 l/m 5,5 km/h (1 Bft) W-SW 247 0 min 0,000 mm 0,0 UV-I 40 W/m 14,7 C 17,8 C 8,0 km/h (2 Bft) 100,00 %
30.05.2016 20:02 17,8 C 82 % 1005,9 hPa 0,0 l/m 5,7 km/h (1 Bft) W-SW 252 0 min 0,076 mm 0,0 UV-I 40 W/m 14,7 C 17,8 C 11,3 km/h (2 Bft) 100,00 %
30.05.2016 20:03 17,8 C 82 % 1006,0 hPa 0,0 l/m 5,4 km/h (1 Bft) W 279 0 min 0,000 mm 0,0 UV-I 40 W/m 14,7 C 17,8 C 8,0 km/h (2 Bft) 96,15 %
30.05.2016 20:04 17,7 C 82 % 1005,9 hPa 0,0 l/m 5,1 km/h (1 Bft) SW 227 0 min 0,000 mm 0,0 UV-I 40 W/m 14,6 C 17,7 C 8,0 km/h (2 Bft) 96,30 %
30.05.2016 20:05 17,7 C 82 % 1005,9 hPa 0,0 l/m 7,2 km/h (2 Bft) W-SW 247 0 min 0,000 mm 0,0 UV-I 42 W/m 14,6 C 17,3 C 11,3 km/h (2 Bft) 100,00 %
30.05.2016 20:06 17,7 C 82 % 1005,9 hPa 0,0 l/m 6,4 km/h (2 Bft) SW 219 0 min 0,000 mm 0,0 UV-I 42 W/m 14,6 C 17,7 C 11,3 km/h (2 Bft) 95,83 %
30.05.2016 20:07 17,7 C 82 % 1005,9 hPa 0,0 l/m 3,7 km/h (1 Bft) W 260 0 min 0,000 mm 0,0 UV-I 43 W/m 14,6 C 17,7 C 6,4 km/h (2 Bft) 100,00 %
30.05.2016 20:08 17,7 C 82 % 1006,0 hPa 0,0 l/m 7,1 km/h (2 Bft) W-SW 252 0 min 0,000 mm 0,0 UV-I 44 W/m 14,6 C 17,4 C 9,7 km/h (2 Bft) 100,00 %
30.05.2016 20:09 17,7 C 83 % 1006,0 hPa 0,0 l/m 5,3 km/h (1 Bft) W 265 0 min 0,000 mm 0,0 UV-I 44 W/m 14,8 C 17,7 C 6,4 km/h (2 Bft) 95,65 %
30.05.2016 20:10 17,7 C 83 % 1006,0 hPa 0,0 l/m 3,9 km/h (1 Bft) W 262 0 min 0,000 mm 0,0 UV-I 44 W/m 14,8 C 17,7 C 4,8 km/h (1 Bft) 100,00 %
30.05.2016 20:11 17,7 C 83 % 1006,0 hPa 0,0 l/m 5,1 km/h (1 Bft) W 263 0 min 0,000 mm 0,0 UV-I 42 W/m 14,8 C 17,7 C 9,7 km/h (2 Bft) 95,65 %
30.05.2016 20:12 17,7 C 83 % 1006,0 hPa 0,0 l/m 6,7 km/h (2 Bft) W-SW 237 0 min 0,000 mm 0,0 UV-I 42 W/m 14,8 C 17,6 C 9,7 km/h (2 Bft) 100,00 %
30.05.2016 20:13 17,7 C 83 % 1006,1 hPa 0,0 l/m 4,4 km/h (1 Bft) W-SW 244 0 min 0,000 mm 0,0 UV-I 42 W/m 14,8 C 17,7 C 6,4 km/h (2 Bft) 100,00 %
30.05.2016 20:14 17,7 C 83 % 1006,1 hPa 0,0 l/m 6,9 km/h (2 Bft) W-SW 239 0 min 0,000 mm 0,0 UV-I 41 W/m 14,8 C 17,5 C 9,7 km/h (2 Bft) 95,65 %
30.05.2016 20:15 17,7 C 83 % 1006,1 hPa 0,0 l/m 5,3 km/h (1 Bft) W 261 0 min 0,000 mm 0,0 UV-I 40 W/m 14,8 C 17,7 C 6,4 km/h (2 Bft) 100,00 %
30.05.2016 20:16 17,7 C 83 % 1006,1 hPa 0,0 l/m 5,4 km/h (1 Bft) W-SW 257 0 min 0,000 mm 0,0 UV-I 39 W/m 14,8 C 17,7 C 6,4 km/h (2 Bft) 96,15 %
30.05.2016 20:17 17,7 C 83 % 1006,1 hPa 0,0 l/m 4,7 km/h (1 Bft) W 274 0 min 0,000 mm 0,0 UV-I 36 W/m 14,8 C 17,7 C 6,4 km/h (2 Bft) 93,33 %
30.05.2016 20:18 17,7 C 83 % 1006,0 hPa 0,0 l/m 4,5 km/h (1 Bft) W-SW 257 0 min 0,000 mm 0,0 UV-I 33 W/m 14,8 C 17,7 C 6,4 km/h (2 Bft) 100,00 %
30.05.2016 20:19 17,7 C 83 % 1006,1 hPa 0,0 l/m 3,6 km/h (1 Bft) W-SW 257 0 min 0,000 mm 0,0 UV-I 31 W/m 14,8 C 17,7 C 4,8 km/h (1 Bft) 95,83 %
30.05.2016 20:20 17,6 C 83 % 1006,1 hPa 0,0 l/m 4,5 km/h (1 Bft) W-SW 255 0 min 0,000 mm 0,0 UV-I 30 W/m 14,7 C 17,6 C 6,4 km/h (2 Bft) 100,00 %
30.05.2016 20:21 17,6 C 83 % 1006,1 hPa 0,0 l/m 3,6 km/h (1 Bft) W-SW 252 0 min 0,000 mm 0,0 UV-I 28 W/m 14,7 C 17,6 C 6,4 km/h (2 Bft) 100,00 %
30.05.2016 20:22 17,6 C 83 % 1006,1 hPa 0,0 l/m 4,5 km/h (1 Bft) W 278 0 min 0,000 mm 0,0 UV-I 26 W/m 14,7 C 17,6 C 6,4 km/h (2 Bft) 100,00 %
30.05.2016 20:23 17,6 C 84 % 1006,1 hPa 0,0 l/m 4,7 km/h (1 Bft) W-SW 257 0 min 0,000 mm 0,0 UV-I 26 W/m 14,9 C 17,6 C 6,4 km/h (2 Bft) 100,00 %
30.05.2016 20:24 17,6 C 84 % 1006,1 hPa 0,0 l/m 4,8 km/h (1 Bft) W-SW 250 0 min 0,000 mm 0,0 UV-I 24 W/m 14,9 C 17,6 C 8,0 km/h (2 Bft) 95,51 %
30.05.2016 20:25 17,6 C 84 % 1006,2 hPa 0,0 l/m 3,8 km/h (1 Bft) W-SW 250 0 min 0,000 mm 0,0 UV-I 22 W/m 14,9 C 17,6 C 6,4 km/h (2 Bft) 97,56 %
30.05.2016 20:26 17,6 C 84 % 1006,2 hPa 0,0 l/m 3,8 km/h (1 Bft) W-SW 252 0 min 0,000 mm 0,0 UV-I 21 W/m 14,9 C 17,6 C 4,8 km/h (1 Bft) 95,65 %
30.05.2016 20:27 17,6 C 84 % 1006,2 hPa 0,0 l/m 5,0 km/h (1 Bft) W 274 0 min 0,000 mm 0,0 UV-I 19 W/m 14,9 C 17,6 C 6,4 km/h (2 Bft) 100,00 %
30.05.2016 20:28 17,6 C 84 % 1006,2 hPa 0,0 l/m 4,7 km/h (1 Bft) W 269 0 min 0,000 mm 0,0 UV-I 18 W/m 14,9 C 17,6 C 6,4 km/h (2 Bft) 100,00 %
30.05.2016 20:29 17,5 C 84 % 1006,3 hPa 0,0 l/m 5,9 km/h (2 Bft) W-SW 254 0 min 0,000 mm 0,0 UV-I 17 W/m 14,8 C 17,5 C 9,7 km/h (2 Bft) 92,31 %
30.05.2016 20:30 17,5 C 84 % 1006,3 hPa 0,0 l/m 3,7 km/h (1 Bft) W-SW 257 0 min 0,000 mm 0,0 UV-I 16 W/m 14,8 C 17,5 C 4,8 km/h (1 Bft) 100,00 %
30.05.2016 20:31 17,5 C 84 % 1006,3 hPa 0,0 l/m 3,5 km/h (1 Bft) W-SW 251 0 min 0,000 mm 0,0 UV-I 15 W/m 14,8 C 17,5 C 4,8 km/h (1 Bft) 100,00 %
30.05.2016 20:32 17,4 C 84 % 1006,3 hPa 0,0 l/m 3,9 km/h (1 Bft) W 261 0 min 0,000 mm 0,0 UV-I 14 W/m 14,7 C 17,4 C 6,4 km/h (2 Bft) 86,67 %
30.05.2016 20:33 17,4 C 84 % 1006,3 hPa 0,0 l/m 3,8 km/h (1 Bft) SW 219 0 min 0,000 mm 0,0 UV-I 12 W/m 14,7 C 17,4 C 4,8 km/h (1 Bft) 100,00 %
30.05.2016 20:34 17,4 C 84 % 1006,3 hPa 0,0 l/m 4,2 km/h (1 Bft) W-SW 248 0 min 0,000 mm 0,0 UV-I 12 W/m 14,7 C 17,4 C 4,8 km/h (1 Bft) 100,00 %
30.05.2016 20:35 17,4 C 84 % 1006,3 hPa 0,0 l/m 3,3 km/h (1 Bft) SW 220 0 min 0,000 mm 0,0 UV-I 12 W/m 14,7 C 17,4 C 6,4 km/h (2 Bft) 95,65 %
30.05.2016 20:36 17,4 C 84 % 1006,3 hPa 0,0 l/m 4,6 km/h (1 Bft) S-SW 212 0 min 0,000 mm 0,0 UV-I 12 W/m 14,7 C 17,4 C 6,4 km/h (2 Bft) 96,30 %
30.05.2016 20:37 17,3 C 84 % 1006,4 hPa 0,0 l/m 4,3 km/h (1 Bft) S-SW 212 0 min 0,000 mm 0,0 UV-I 12 W/m 14,6 C 17,3 C 4,8 km/h (1 Bft) 100,00 %
30.05.2016 20:38 17,3 C 84 % 1006,4 hPa 0,0 l/m 4,2 km/h (1 Bft) SW 216 0 min 0,000 mm 0,0 UV-I 11 W/m 14,6 C 17,3 C 6,4 km/h (2 Bft) 100,00 %
30.05.2016 20:39 17,3 C 84 % 1006,4 hPa 0,0 l/m 3,4 km/h (1 Bft) SW 231 0 min 0,000 mm 0,0 UV-I 11 W/m 14,6 C 17,3 C 4,8 km/h (1 Bft) 100,00 %
30.05.2016 20:40 17,3 C 84 % 1006,4 hPa 0,0 l/m 3,9 km/h (1 Bft) W-SW 252 1 min 0,000 mm 0,0 UV-I 11 W/m 14,6 C 17,3 C 4,8 km/h (1 Bft) 100,00 %
30.05.2016 20:41 17,3 C 84 % 1006,4 hPa 0,0 l/m 4,2 km/h (1 Bft) W-SW 242 1 min 0,000 mm 0,0 UV-I 11 W/m 14,6 C 17,3 C 6,4 km/h (2 Bft) 91,30 %
30.05.2016 20:42 17,3 C 84 % 1006,4 hPa 0,0 l/m 5,1 km/h (1 Bft) W 268 0 min 0,000 mm 0,0 UV-I 10 W/m 14,6 C 17,3 C 6,4 km/h (2 Bft) 96,30 %
30.05.2016 20:43 17,3 C 84 % 1006,5 hPa 0,0 l/m 3,1 km/h (1 Bft) W 268 0 min 0,000 mm 0,0 UV-I 9 W/m 14,6 C 17,3 C 4,8 km/h (1 Bft) 100,00 %
30.05.2016 20:44 17,3 C 84 % 1006,5 hPa 0,0 l/m 3,9 km/h (1 Bft) W 268 0 min 0,000 mm 0,0 UV-I 9 W/m 14,6 C 17,3 C 4,8 km/h (1 Bft) 100,00 %
30.05.2016 20:45 17,3 C 84 % 1006,5 hPa 0,0 l/m 4,3 km/h (1 Bft) W 268 0 min 0,000 mm 0,0 UV-I 9 W/m 14,6 C 17,3 C 6,4 km/h (2 Bft) 100,00 %
30.05.2016 20:46 17,3 C 84 % 1006,5 hPa 0,0 l/m 3,6 km/h (1 Bft) W-SW 253 0 min 0,000 mm 0,0 UV-I 9 W/m 14,6 C 17,3 C 4,8 km/h (1 Bft) 100,00 %
30.05.2016 20:47 17,3 C 84 % 1006,5 hPa 0,0 l/m 2,3 km/h (1 Bft) W-SW 252 0 min 0,000 mm 0,0 UV-I 8 W/m 14,6 C 17,3 C 3,2 km/h (1 Bft) 96,15 %
30.05.2016 20:48 17,3 C 84 % 1006,5 hPa 0,0 l/m 3,5 km/h (1 Bft) W-SW 256 0 min 0,000 mm 0,0 UV-I 7 W/m 14,6 C 17,3 C 6,4 km/h (2 Bft) 100,00 %
30.05.2016 20:49 17,3 C 84 % 1006,5 hPa 0,0 l/m 3,6 km/h (1 Bft) W-SW 256 0 min 0,000 mm 0,0 UV-I 7 W/m 14,6 C 17,3 C 4,8 km/h (1 Bft) 96,30 %
30.05.2016 20:50 17,3 C 84 % 1006,5 hPa 0,0 l/m 3,6 km/h (1 Bft) W-SW 249 0 min 0,000 mm 0,0 UV-I 7 W/m 14,6 C 17,3 C 6,4 km/h (2 Bft) 96,15 %
30.05.2016 20:51 17,3 C 84 % 1006,6 hPa 0,0 l/m 3,4 km/h (1 Bft) W-SW 251 0 min 0,000 mm 0,0 UV-I 5 W/m 14,6 C 17,3 C 4,8 km/h (1 Bft) 100,00 %
30.05.2016 20:52 17,3 C 84 % 1006,5 hPa 0,0 l/m 3,0 km/h (1 Bft) W-SW 251 0 min 0,000 mm 0,0 UV-I 5 W/m 14,6 C 17,3 C 4,8 km/h (1 Bft) 96,15 %
30.05.2016 20:53 17,3 C 84 % 1006,5 hPa 0,0 l/m 2,2 km/h (1 Bft) W-SW 251 0 min 0,000 mm 0,0 UV-I 3 W/m 14,6 C 17,3 C 3,2 km/h (1 Bft) 100,00 %
30.05.2016 20:54 17,3 C 84 % 1006,5 hPa 0,0 l/m 2,7 km/h (1 Bft) W-SW 251 0 min 0,000 mm 0,0 UV-I 0 W/m 14,6 C 17,3 C 3,2 km/h (1 Bft) 92,86 %
30.05.2016 20:55 17,3 C 84 % 1006,6 hPa 0,0 l/m 3,7 km/h (1 Bft) W-SW 251 0 min 0,000 mm 0,0 UV-I 0 W/m 14,6 C 17,3 C 4,8 km/h (1 Bft) 100,00 %
30.05.2016 20:56 17,3 C 84 % 1006,5 hPa 0,0 l/m 3,5 km/h (1 Bft) W-SW 249 0 min 0,000 mm 0,0 UV-I 0 W/m 14,6 C 17,3 C 4,8 km/h (1 Bft) 95,65 %
30.05.2016 20:57 17,3 C 84 % 1006,6 hPa 0,0 l/m 3,6 km/h (1 Bft) W-SW 250 0 min 0,000 mm 0,0 UV-I 0 W/m 14,6 C 17,3 C 4,8 km/h (1 Bft) 96,30 %
30.05.2016 20:58 17,3 C 84 % 1006,6 hPa 0,0 l/m 3,4 km/h (1 Bft) W-SW 250 0 min 0,000 mm 0,0 UV-I 0 W/m 14,6 C 17,3 C 4,8 km/h (1 Bft) 92,31 %
30.05.2016 20:59 17,3 C 84 % 1006,6 hPa 0,0 l/m 3,0 km/h (1 Bft) W-SW 250 0 min 0,000 mm 0,0 UV-I 0 W/m 14,6 C 17,3 C 4,8 km/h (1 Bft) 100,00 %
30.05.2016 21:00 17,2 C 84 % 1006,6 hPa 0,0 l/m 3,6 km/h (1 Bft) W-SW 250 0 min 0,000 mm 0,0 UV-I 0 W/m 14,5 C 17,2 C 4,8 km/h (1 Bft) 96,15 %
30.05.2016 21:02 17,2 C 85 % 1006,6 hPa 0,0 l/m 3,1 km/h (1 Bft) W-SW 250 0 min 0,025 mm 0,0 UV-I 0 W/m 14,7 C 17,2 C 6,4 km/h (2 Bft) 95,74 %
30.05.2016 21:03 17,2 C 85 % 1006,6 hPa 0,0 l/m 3,9 km/h (1 Bft) W-SW 247 0 min 0,000 mm 0,0 UV-I 0 W/m 14,7 C 17,2 C 4,8 km/h (1 Bft) 95,83 %
30.05.2016 21:04 17,2 C 85 % 1006,6 hPa 0,0 l/m 3,8 km/h (1 Bft) W-SW 247 0 min 0,000 mm 0,0 UV-I 0 W/m 14,7 C 17,2 C 4,8 km/h (1 Bft) 95,65 %
30.05.2016 21:05 17,2 C 85 % 1006,6 hPa 0,0 l/m 3,7 km/h (1 Bft) W-SW 245 0 min 0,000 mm 0,0 UV-I 0 W/m 14,7 C 17,2 C 6,4 km/h (2 Bft) 95,83 %
30.05.2016 21:06 17,1 C 85 % 1006,6 hPa 0,0 l/m 4,1 km/h (1 Bft) W-SW 246 0 min 0,000 mm 0,0 UV-I 0 W/m 14,6 C 17,1 C 4,8 km/h (1 Bft) 100,00 %
30.05.2016 21:07 17,1 C 85 % 1006,6 hPa 0,0 l/m 3,7 km/h (1 Bft) W-SW 246 0 min 0,000 mm 0,0 UV-I 0 W/m 14,6 C 17,1 C 6,4 km/h (2 Bft) 96,30 %
30.05.2016 21:08 17,1 C 85 % 1006,6 hPa 0,0 l/m 4,1 km/h (1 Bft) W-SW 248 0 min 0,000 mm 0,0 UV-I 0 W/m 14,6 C 17,1 C 6,4 km/h (2 Bft) 96,15 %
30.05.2016 21:09 17,1 C 85 % 1006,6 hPa 0,0 l/m 4,8 km/h (1 Bft) W 259 0 min 0,000 mm 0,0 UV-I 0 W/m 14,6 C 17,1 C 9,7 km/h (2 Bft) 100,00 %
30.05.2016 21:10 17,1 C 85 % 1006,6 hPa 0,0 l/m 4,1 km/h (1 Bft) W-SW 257 0 min 0,000 mm 0,0 UV-I 0 W/m 14,6 C 17,1 C 4,8 km/h (1 Bft) 95,83 %
30.05.2016 21:11 17,1 C 85 % 1006,6 hPa 0,0 l/m 4,3 km/h (1 Bft) W-SW 238 0 min 0,000 mm 0,0 UV-I 0 W/m 14,6 C 17,1 C 6,4 km/h (2 Bft) 96,88 %
30.05.2016 21:12 17,1 C 86 % 1006,6 hPa 0,0 l/m 5,6 km/h (1 Bft) SW 219 0 min 0,000 mm 0,0 UV-I 0 W/m 14,7 C 17,1 C 8,0 km/h (2 Bft) 91,67 %
30.05.2016 21:13 17,0 C 86 % 1006,6 hPa 0,0 l/m 4,4 km/h (1 Bft) S-SW 212 0 min 0,000 mm 0,0 UV-I 0 W/m 14,6 C 17,0 C 6,4 km/h (2 Bft) 100,00 %
30.05.2016 21:14 16,9 C 86 % 1006,6 hPa 0,0 l/m 3,9 km/h (1 Bft) SW 222 0 min 0,000 mm 0,0 UV-I 0 W/m 14,5 C 16,9 C 6,4 km/h (2 Bft) 96,30 %
30.05.2016 21:15 16,9 C 87 % 1006,6 hPa 0,0 l/m 4,2 km/h (1 Bft) SW 227 0 min 0,000 mm 0,0 UV-I 0 W/m 14,7 C 16,9 C 6,4 km/h (2 Bft) 100,00 %
30.05.2016 21:16 16,9 C 87 % 1006,6 hPa 0,0 l/m 5,3 km/h (1 Bft) SW 231 0 min 0,000 mm 0,0 UV-I 0 W/m 14,7 C 16,9 C 8,0 km/h (2 Bft) 92,59 %
30.05.2016 21:17 16,8 C 87 % 1006,6 hPa 0,0 l/m 6,0 km/h (2 Bft) SW 219 0 min 0,000 mm 0,0 UV-I 0 W/m 14,6 C 16,8 C 8,0 km/h (2 Bft) 95,65 %
30.05.2016 21:18 16,8 C 87 % 1006,6 hPa 0,0 l/m 5,2 km/h (1 Bft) SW 218 0 min 0,000 mm 0,0 UV-I 0 W/m 14,6 C 16,8 C 8,0 km/h (2 Bft) 100,00 %
30.05.2016 21:19 16,8 C 87 % 1006,6 hPa 0,0 l/m 4,5 km/h (1 Bft) W-SW 243 0 min 0,000 mm 0,0 UV-I 0 W/m 14,6 C 16,8 C 6,4 km/h (2 Bft) 95,65 %
30.05.2016 21:20 16,8 C 88 % 1006,6 hPa 0,0 l/m 4,0 km/h (1 Bft) W-SW 240 0 min 0,000 mm 0,0 UV-I 0 W/m 14,8 C 16,8 C 6,4 km/h (2 Bft) 100,00 %
30.05.2016 21:21 16,8 C 88 % 1006,6 hPa 0,0 l/m 3,5 km/h (1 Bft) W-SW 240 0 min 0,000 mm 0,0 UV-I 0 W/m 14,8 C 16,8 C 4,8 km/h (1 Bft) 95,65 %
30.05.2016 21:22 16,7 C 88 % 1006,6 hPa 0,0 l/m 3,6 km/h (1 Bft) S-SW 211 0 min 0,000 mm 0,0 UV-I 0 W/m 14,7 C 16,7 C 6,4 km/h (2 Bft) 100,00 %
30.05.2016 21:23 16,7 C 88 % 1006,6 hPa 0,0 l/m 5,0 km/h (1 Bft) SW 232 0 min 0,000 mm 0,0 UV-I 0 W/m 14,7 C 16,7 C 6,4 km/h (2 Bft) 95,62 %
30.05.2016 21:24 16,7 C 88 % 1006,6 hPa 0,0 l/m 6,3 km/h (2 Bft) SW 236 0 min 0,000 mm 0,0 UV-I 0 W/m 14,7 C 16,7 C 8,0 km/h (2 Bft) 95,45 %
30.05.2016 21:25 16,7 C 88 % 1006,6 hPa 0,0 l/m 6,8 km/h (2 Bft) S-SW 206 0 min 0,000 mm 0,0 UV-I 0 W/m 14,7 C 16,5 C 8,0 km/h (2 Bft) 100,00 %
30.05.2016 21:26 16,7 C 88 % 1006,6 hPa 0,0 l/m 6,4 km/h (2 Bft) SW 234 0 min 0,000 mm 0,0 UV-I 0 W/m 14,7 C 16,7 C 9,7 km/h (2 Bft) 100,00 %
30.05.2016 21:27 16,7 C 88 % 1006,6 hPa 0,0 l/m 6,7 km/h (2 Bft) SW 232 0 min 0,000 mm 0,0 UV-I 0 W/m 14,7 C 16,6 C 8,0 km/h (2 Bft) 100,00 %
30.05.2016 21:28 16,7 C 88 % 1006,7 hPa 0,0 l/m 6,4 km/h (2 Bft) SW 223 0 min 0,000 mm 0,0 UV-I 0 W/m 14,7 C 16,7 C 9,7 km/h (2 Bft) 100,00 %
30.05.2016 21:29 16,7 C 88 % 1006,7 hPa 0,0 l/m 5,3 km/h (1 Bft) SW 229 0 min 0,000 mm 0,0 UV-I 0 W/m 14,7 C 16,7 C 8,0 km/h (2 Bft) 100,00 %
30.05.2016 21:30 16,7 C 88 % 1006,7 hPa 0,0 l/m 6,4 km/h (2 Bft) SW 234 0 min 0,000 mm 0,0 UV-I 0 W/m 14,7 C 16,7 C 11,3 km/h (2 Bft) 96,15 %
30.05.2016 21:31 16,7 C 89 % 1006,7 hPa 0,0 l/m 10,1 km/h (2 Bft) S-SW 194 0 min 0,000 mm 0,0 UV-I 0 W/m 14,9 C 15,0 C 12,9 km/h (3 Bft) 96,30 %
30.05.2016 21:32 16,6 C 89 % 1006,7 hPa 0,0 l/m 8,3 km/h (2 Bft) W-SW 238 0 min 0,000 mm 0,0 UV-I 0 W/m 14,8 C 15,6 C 11,3 km/h (2 Bft) 95,65 %
30.05.2016 21:33 16,7 C 89 % 1006,8 hPa 0,0 l/m 7,5 km/h (2 Bft) SW 225 0 min 0,000 mm 0,0 UV-I 0 W/m 14,9 C 16,1 C 12,9 km/h (3 Bft) 100,00 %
30.05.2016 21:34 16,7 C 89 % 1006,8 hPa 0,0 l/m 6,4 km/h (2 Bft) W-SW 253 0 min 0,000 mm 0,0 UV-I 0 W/m 14,9 C 16,7 C 9,7 km/h (2 Bft) 100,00 %
30.05.2016 21:35 16,6 C 89 % 1006,8 hPa 0,0 l/m 7,0 km/h (2 Bft) SW 228 0 min 0,000 mm 0,0 UV-I 0 W/m 14,8 C 16,3 C 11,3 km/h (2 Bft) 100,00 %
30.05.2016 21:36 16,6 C 89 % 1006,7 hPa 0,0 l/m 5,2 km/h (1 Bft) SW 229 0 min 0,000 mm 0,0 UV-I 0 W/m 14,8 C 16,6 C 8,0 km/h (2 Bft) 91,30 %
30.05.2016 21:37 16,6 C 88 % 1006,8 hPa 0,0 l/m 5,4 km/h (1 Bft) W-SW 239 0 min 0,000 mm 0,0 UV-I 0 W/m 14,6 C 16,6 C 6,4 km/h (2 Bft) 100,00 %
30.05.2016 21:38 16,6 C 88 % 1006,8 hPa 0,0 l/m 6,4 km/h (2 Bft) W-SW 249 0 min 0,000 mm 0,0 UV-I 0 W/m 14,6 C 16,6 C 9,7 km/h (2 Bft) 100,00 %
30.05.2016 21:39 16,6 C 88 % 1006,8 hPa 0,0 l/m 7,6 km/h (2 Bft) W-SW 242 0 min 0,000 mm 0,0 UV-I 0 W/m 14,6 C 16,0 C 12,9 km/h (3 Bft) 100,00 %
30.05.2016 21:40 16,6 C 88 % 1006,8 hPa 0,0 l/m 7,1 km/h (2 Bft) W-SW 250 0 min 0,000 mm 0,0 UV-I 0 W/m 14,6 C 16,2 C 11,3 km/h (2 Bft) 90,91 %
30.05.2016 21:41 16,6 C 88 % 1006,8 hPa 0,0 l/m 6,8 km/h (2 Bft) SW 217 0 min 0,000 mm 0,0 UV-I 0 W/m 14,6 C 16,4 C 9,7 km/h (2 Bft) 100,00 %
30.05.2016 21:42 16,6 C 88 % 1006,8 hPa 0,0 l/m 7,8 km/h (2 Bft) W-SW 250 0 min 0,000 mm 0,0 UV-I 0 W/m 14,6 C 15,9 C 11,3 km/h (2 Bft) 100,00 %
30.05.2016 21:43 16,6 C 88 % 1006,9 hPa 0,0 l/m 7,3 km/h (2 Bft) W-SW 243 0 min 0,000 mm 0,0 UV-I 0 W/m 14,6 C 16,1 C 11,3 km/h (2 Bft) 100,00 %
30.05.2016 21:44 16,6 C 88 % 1006,8 hPa 0,0 l/m 8,3 km/h (2 Bft) S-SW 209 0 min 0,000 mm 0,0 UV-I 0 W/m 14,6 C 15,6 C 12,9 km/h (3 Bft) 95,67 %
30.05.2016 21:45 16,6 C 88 % 1006,9 hPa 0,0 l/m 8,1 km/h (2 Bft) W-SW 245 0 min 0,000 mm 0,0 UV-I 0 W/m 14,6 C 15,7 C 12,9 km/h (3 Bft) 100,00 %
30.05.2016 21:46 16,6 C 88 % 1006,9 hPa 0,0 l/m 9,5 km/h (2 Bft) SW 234 0 min 0,000 mm 0,0 UV-I 0 W/m 14,6 C 15,1 C 12,9 km/h (3 Bft) 96,15 %
30.05.2016 21:47 16,6 C 88 % 1006,9 hPa 0,0 l/m 8,9 km/h (2 Bft) SW 221 0 min 0,000 mm 0,0 UV-I 0 W/m 14,6 C 15,4 C 12,9 km/h (3 Bft) 100,00 %
30.05.2016 21:48 16,6 C 88 % 1006,9 hPa 0,0 l/m 7,9 km/h (2 Bft) SW 230 0 min 0,000 mm 0,0 UV-I 0 W/m 14,6 C 15,8 C 9,7 km/h (2 Bft) 100,00 %
30.05.2016 21:49 16,6 C 87 % 1006,9 hPa 0,0 l/m 6,9 km/h (2 Bft) SW 230 0 min 0,000 mm 0,0 UV-I 0 W/m 14,4 C 16,3 C 9,7 km/h (2 Bft) 100,00 %
30.05.2016 21:50 16,6 C 88 % 1007,0 hPa 0,0 l/m 7,2 km/h (2 Bft) W-SW 251 0 min 0,000 mm 0,0 UV-I 0 W/m 14,6 C 16,2 C 9,7 km/h (2 Bft) 95,65 %
30.05.2016 21:51 16,6 C 88 % 1006,9 hPa 0,0 l/m 6,4 km/h (2 Bft) W-SW 250 0 min 0,000 mm 0,0 UV-I 0 W/m 14,6 C 16,6 C 8,0 km/h (2 Bft) 100,00 %
30.05.2016 21:52 16,6 C 88 % 1006,9 hPa 0,0 l/m 6,7 km/h (2 Bft) SW 234 0 min 0,000 mm 0,0 UV-I 0 W/m 14,6 C 16,5 C 11,3 km/h (2 Bft) 95,83 %
30.05.2016 21:53 16,6 C 88 % 1006,9 hPa 0,0 l/m 6,1 km/h (2 Bft) W-SW 246 0 min 0,000 mm 0,0 UV-I 0 W/m 14,6 C 16,6 C 8,0 km/h (2 Bft) 92,31 %
30.05.2016 21:54 16,6 C 88 % 1006,9 hPa 0,0 l/m 6,4 km/h (2 Bft) S-SW 201 0 min 0,000 mm 0,0 UV-I 0 W/m 14,6 C 16,6 C 9,7 km/h (2 Bft) 100,00 %
30.05.2016 21:55 16,6 C 88 % 1006,9 hPa 0,0 l/m 7,6 km/h (2 Bft) W-SW 239 0 min 0,000 mm 0,0 UV-I 0 W/m 14,6 C 16,0 C 11,3 km/h (2 Bft) 100,00 %
30.05.2016 21:56 16,5 C 88 % 1006,9 hPa 0,0 l/m 6,4 km/h (2 Bft) SW 217 0 min 0,000 mm 0,0 UV-I 0 W/m 14,5 C 16,5 C 8,0 km/h (2 Bft) 100,00 %
30.05.2016 21:57 16,5 C 88 % 1006,9 hPa 0,0 l/m 7,2 km/h (2 Bft) SW 223 0 min 0,000 mm 0,0 UV-I 0 W/m 14,5 C 16,1 C 11,3 km/h (2 Bft) 100,00 %
30.05.2016 21:58 16,5 C 88 % 1007,0 hPa 0,0 l/m 10,2 km/h (2 Bft) SW 227 0 min 0,000 mm 0,0 UV-I 0 W/m 14,5 C 14,7 C 12,9 km/h (3 Bft) 96,30 %
30.05.2016 21:59 16,5 C 88 % 1007,0 hPa 0,0 l/m 8,0 km/h (2 Bft) SW 232 0 min 0,000 mm 0,0 UV-I 0 W/m 14,5 C 15,7 C 9,7 km/h (2 Bft) 100,00 %
30.05.2016 22:00 16,5 C 88 % 1007,0 hPa 0,0 l/m 10,0 km/h (2 Bft) SW 224 0 min 0,000 mm 0,0 UV-I 0 W/m 14,5 C 14,8 C 14,5 km/h (3 Bft) 100,00 %
30.05.2016 22:02 16,4 C 88 % 1007,0 hPa 0,0 l/m 9,7 km/h (2 Bft) SW 217 0 min 0,026 mm 0,0 UV-I 0 W/m 14,4 C 14,8 C 14,5 km/h (3 Bft) 96,15 %
30.05.2016 22:03 16,4 C 88 % 1007,0 hPa 0,0 l/m 10,7 km/h (2 Bft) SW 227 0 min 0,000 mm 0,0 UV-I 0 W/m 14,4 C 14,4 C 14,5 km/h (3 Bft) 95,65 %
30.05.2016 22:04 16,4 C 88 % 1007,0 hPa 0,0 l/m 10,5 km/h (2 Bft) SW 232 0 min 0,000 mm 0,0 UV-I 0 W/m 14,4 C 14,5 C 12,9 km/h (3 Bft) 100,00 %
30.05.2016 22:05 16,4 C 88 % 1007,1 hPa 0,0 l/m 11,5 km/h (2 Bft) SW 235 0 min 0,000 mm 0,0 UV-I 0 W/m 14,4 C 14,1 C 16,1 km/h (3 Bft) 100,00 %
30.05.2016 22:06 16,4 C 88 % 1007,0 hPa 0,0 l/m 11,2 km/h (2 Bft) SW 221 0 min 0,000 mm 0,0 UV-I 0 W/m 14,4 C 14,2 C 16,1 km/h (3 Bft) 100,00 %
30.05.2016 22:07 16,4 C 88 % 1007,1 hPa 0,0 l/m 10,1 km/h (2 Bft) SW 234 0 min 0,000 mm 0,0 UV-I 0 W/m 14,4 C 14,6 C 14,5 km/h (3 Bft) 100,00 %
30.05.2016 22:08 16,4 C 88 % 1007,1 hPa 0,0 l/m 9,7 km/h (2 Bft) W-SW 258 0 min 0,000 mm 0,0 UV-I 0 W/m 14,4 C 14,8 C 14,5 km/h (3 Bft) 100,00 %
30.05.2016 22:09 16,4 C 88 % 1007,1 hPa 0,0 l/m 10,0 km/h (2 Bft) S-SW 198 0 min 0,000 mm 0,0 UV-I 0 W/m 14,4 C 14,7 C 12,9 km/h (3 Bft) 100,00 %
30.05.2016 22:10 16,4 C 88 % 1007,1 hPa 0,0 l/m 8,6 km/h (2 Bft) S-SW 206 0 min 0,000 mm 0,0 UV-I 0 W/m 14,4 C 15,3 C 11,3 km/h (2 Bft) 96,15 %
30.05.2016 22:11 16,4 C 88 % 1007,1 hPa 0,0 l/m 8,0 km/h (2 Bft) S-SW 213 0 min 0,000 mm 0,0 UV-I 0 W/m 14,4 C 15,6 C 14,5 km/h (3 Bft) 100,00 %
30.05.2016 22:12 16,4 C 88 % 1007,1 hPa 0,0 l/m 12,2 km/h (2 Bft) SW 219 0 min 0,000 mm 0,0 UV-I 0 W/m 14,4 C 13,8 C 17,7 km/h (3 Bft) 100,00 %
30.05.2016 22:13 16,4 C 88 % 1007,2 hPa 0,0 l/m 12,7 km/h (3 Bft) W-SW 238 0 min 0,000 mm 0,0 UV-I 0 W/m 14,4 C 13,6 C 16,1 km/h (3 Bft) 100,00 %
30.05.2016 22:14 16,4 C 87 % 1007,1 hPa 0,0 l/m 14,4 km/h (3 Bft) W-SW 239 0 min 0,000 mm 0,0 UV-I 0 W/m 14,2 C 13,1 C 20,9 km/h (4 Bft) 100,00 %
30.05.2016 22:15 16,4 C 87 % 1007,1 hPa 0,0 l/m 14,6 km/h (3 Bft) W-SW 241 0 min 0,000 mm 0,0 UV-I 0 W/m 14,2 C 13,0 C 20,9 km/h (4 Bft) 94,44 %
30.05.2016 22:16 16,4 C 87 % 1007,2 hPa 0,0 l/m 16,0 km/h (3 Bft) SW 236 0 min 0,000 mm 0,0 UV-I 0 W/m 14,2 C 12,6 C 22,5 km/h (4 Bft) 95,65 %
30.05.2016 22:17 16,4 C 87 % 1007,2 hPa 0,0 l/m 12,0 km/h (2 Bft) SW 234 0 min 0,000 mm 0,0 UV-I 0 W/m 14,2 C 13,9 C 19,3 km/h (3 Bft) 100,00 %
30.05.2016 22:18 16,4 C 87 % 1007,2 hPa 0,0 l/m 12,9 km/h (3 Bft) SW 221 0 min 0,000 mm 0,0 UV-I 0 W/m 14,2 C 13,6 C 22,5 km/h (4 Bft) 100,00 %
30.05.2016 22:19 16,4 C 86 % 1007,2 hPa 0,0 l/m 12,9 km/h (3 Bft) SW 216 0 min 0,000 mm 0,0 UV-I 0 W/m 14,1 C 13,6 C 19,3 km/h (3 Bft) 100,00 %
30.05.2016 22:20 16,4 C 86 % 1007,1 hPa 0,0 l/m 14,1 km/h (3 Bft) W-SW 244 0 min 0,000 mm 0,0 UV-I 0 W/m 14,1 C 13,2 C 17,7 km/h (3 Bft) 100,00 %
30.05.2016 22:21 16,4 C 86 % 1007,2 hPa 0,0 l/m 15,9 km/h (3 Bft) SW 221 0 min 0,000 mm 0,0 UV-I 0 W/m 14,1 C 12,6 C 24,1 km/h (4 Bft) 100,00 %
30.05.2016 22:22 16,4 C 86 % 1007,2 hPa 0,0 l/m 18,3 km/h (3 Bft) S-SW 209 0 min 0,000 mm 0,0 UV-I 0 W/m 14,1 C 12,0 C 25,7 km/h (4 Bft) 100,00 %
30.05.2016 22:23 16,3 C 85 % 1007,2 hPa 0,0 l/m 12,7 km/h (3 Bft) W 272 0 min 0,000 mm 0,0 UV-I 0 W/m 13,8 C 13,5 C 19,3 km/h (3 Bft) 100,00 %
30.05.2016 22:24 16,3 C 86 % 1007,2 hPa 0,0 l/m 14,3 km/h (3 Bft) SW 233 0 min 0,000 mm 0,0 UV-I 0 W/m 14,0 C 13,0 C 20,9 km/h (4 Bft) 100,00 %
30.05.2016 22:25 16,3 C 85 % 1007,3 hPa 0,0 l/m 17,3 km/h (3 Bft) S-SW 211 0 min 0,000 mm 0,0 UV-I 0 W/m 13,8 C 12,1 C 24,1 km/h (4 Bft) 100,00 %
30.05.2016 22:26 16,3 C 85 % 1007,3 hPa 0,0 l/m 17,5 km/h (3 Bft) W-SW 251 0 min 0,000 mm 0,0 UV-I 0 W/m 13,8 C 12,1 C 27,4 km/h (4 Bft) 100,00 %
30.05.2016 22:27 16,2 C 85 % 1007,3 hPa 0,0 l/m 15,0 km/h (3 Bft) W-SW 240 0 min 0,000 mm 0,0 UV-I 0 W/m 13,7 C 12,6 C 20,9 km/h (4 Bft) 100,00 %
30.05.2016 22:28 16,2 C 85 % 1007,3 hPa 0,0 l/m 14,6 km/h (3 Bft) SW 217 0 min 0,000 mm 0,0 UV-I 0 W/m 13,7 C 12,8 C 17,7 km/h (3 Bft) 100,00 %
30.05.2016 22:29 16,2 C 86 % 1007,3 hPa 0,0 l/m 12,5 km/h (3 Bft) SW 232 0 min 0,000 mm 0,0 UV-I 0 W/m 13,9 C 13,5 C 22,5 km/h (4 Bft) 100,00 %
30.05.2016 22:30 16,1 C 86 % 1007,3 hPa 0,0 l/m 14,9 km/h (3 Bft) W-SW 254 0 min 0,000 mm 0,0 UV-I 0 W/m 13,8 C 12,6 C 17,7 km/h (3 Bft) 86,67 %
30.05.2016 22:31 16,1 C 86 % 1007,3 hPa 0,0 l/m 16,2 km/h (3 Bft) SW 230 0 min 0,000 mm 0,0 UV-I 0 W/m 13,8 C 12,2 C 24,1 km/h (4 Bft) 100,00 %
30.05.2016 22:32 16,1 C 86 % 1007,4 hPa 0,0 l/m 16,4 km/h (3 Bft) W-SW 254 0 min 0,000 mm 0,0 UV-I 0 W/m 13,8 C 12,1 C 22,5 km/h (4 Bft) 100,00 %
30.05.2016 22:33 16,0 C 86 % 1007,4 hPa 0,0 l/m 11,1 km/h (2 Bft) W-NW 298 0 min 0,000 mm 0,0 UV-I 0 W/m 13,7 C 13,8 C 16,1 km/h (3 Bft) 100,00 %
30.05.2016 22:34 15,9 C 86 % 1007,3 hPa 0,0 l/m 15,8 km/h (3 Bft) SW 224 0 min 0,000 mm 0,0 UV-I 0 W/m 13,6 C 12,0 C 20,9 km/h (4 Bft) 100,00 %
30.05.2016 22:35 15,9 C 87 % 1007,4 hPa 0,0 l/m 11,1 km/h (2 Bft) W 265 0 min 0,000 mm 0,0 UV-I 0 W/m 13,7 C 13,7 C 16,1 km/h (3 Bft) 96,15 %
30.05.2016 22:36 15,9 C 87 % 1007,5 hPa 0,0 l/m 10,9 km/h (2 Bft) SW 229 0 min 0,000 mm 0,0 UV-I 0 W/m 13,7 C 13,7 C 17,7 km/h (3 Bft) 100,00 %
30.05.2016 22:37 15,8 C 87 % 1007,5 hPa 0,0 l/m 11,8 km/h (2 Bft) SW 236 0 min 0,000 mm 0,0 UV-I 0 W/m 13,6 C 13,3 C 19,3 km/h (3 Bft) 100,00 %
30.05.2016 22:38 15,8 C 87 % 1007,5 hPa 0,0 l/m 13,9 km/h (3 Bft) SW 217 0 min 0,000 mm 0,0 UV-I 0 W/m 13,6 C 12,5 C 17,7 km/h (3 Bft) 100,00 %
30.05.2016 22:39 15,8 C 87 % 1007,5 hPa 0,0 l/m 15,4 km/h (3 Bft) S-SW 213 0 min 0,000 mm 0,0 UV-I 0 W/m 13,6 C 12,0 C 22,5 km/h (4 Bft) 100,00 %
30.05.2016 22:40 15,8 C 87 % 1007,5 hPa 0,0 l/m 12,0 km/h (2 Bft) SW 219 0 min 0,000 mm 0,0 UV-I 0 W/m 13,6 C 13,2 C 16,1 km/h (3 Bft) 100,00 %
30.05.2016 22:41 15,8 C 87 % 1007,5 hPa 0,0 l/m 9,7 km/h (2 Bft) SW 221 0 min 0,000 mm 0,0 UV-I 0 W/m 13,6 C 14,1 C 14,5 km/h (3 Bft) 100,00 %
30.05.2016 22:42 15,7 C 87 % 1007,5 hPa 0,0 l/m 14,0 km/h (3 Bft) W-SW 238 0 min 0,000 mm 0,0 UV-I 0 W/m 13,5 C 12,4 C 24,1 km/h (4 Bft) 100,00 %
30.05.2016 22:43 15,7 C 87 % 1007,5 hPa 0,0 l/m 13,9 km/h (3 Bft) SW 219 0 min 0,000 mm 0,0 UV-I 0 W/m 13,5 C 12,4 C 19,3 km/h (3 Bft) 100,00 %
30.05.2016 22:44 15,7 C 87 % 1007,5 hPa 0,2 l/m 13,6 km/h (3 Bft) S 184 0 min 0,000 mm 0,0 UV-I 0 W/m 13,5 C 12,5 C 19,3 km/h (3 Bft) 92,59 %
30.05.2016 22:45 15,7 C 87 % 1007,5 hPa 0,0 l/m 16,6 km/h (3 Bft) SW 229 0 min 0,000 mm 0,0 UV-I 0 W/m 13,5 C 11,6 C 22,5 km/h (4 Bft) 100,00 %
30.05.2016 22:46 15,6 C 87 % 1007,5 hPa 0,0 l/m 15,5 km/h (3 Bft) SW 230 0 min 0,000 mm 0,0 UV-I 0 W/m 13,4 C 11,8 C 20,9 km/h (4 Bft) 100,00 %
30.05.2016 22:47 15,6 C 87 % 1007,5 hPa 0,0 l/m 17,4 km/h (3 Bft) W-SW 257 0 min 0,000 mm 0,0 UV-I 0 W/m 13,4 C 11,2 C 22,5 km/h (4 Bft) 95,65 %
30.05.2016 22:48 15,6 C 88 % 1007,6 hPa 0,0 l/m 13,8 km/h (3 Bft) SW 226 0 min 0,000 mm 0,0 UV-I 0 W/m 13,6 C 12,3 C 19,3 km/h (3 Bft) 100,00 %
30.05.2016 22:49 15,5 C 87 % 1007,6 hPa 0,0 l/m 13,6 km/h (3 Bft) SW 232 0 min 0,000 mm 0,0 UV-I 0 W/m 13,3 C 12,3 C 19,3 km/h (3 Bft) 91,67 %
30.05.2016 22:50 15,5 C 87 % 1007,6 hPa 0,0 l/m 18,3 km/h (3 Bft) W-SW 241 0 min 0,000 mm 0,0 UV-I 0 W/m 13,3 C 10,8 C 24,1 km/h (4 Bft) 94,74 %
30.05.2016 22:51 15,4 C 88 % 1007,6 hPa 0,0 l/m 13,2 km/h (3 Bft) W-SW 238 0 min 0,000 mm 0,0 UV-I 0 W/m 13,4 C 12,3 C 17,7 km/h (3 Bft) 100,00 %
30.05.2016 22:52 15,4 C 88 % 1007,6 hPa 0,0 l/m 15,6 km/h (3 Bft) W 259 0 min 0,000 mm 0,0 UV-I 0 W/m 13,4 C 11,5 C 22,5 km/h (4 Bft) 96,15 %
30.05.2016 22:53 15,4 C 88 % 1007,7 hPa 0,0 l/m 13,6 km/h (3 Bft) S-SW 196 0 min 0,000 mm 0,0 UV-I 0 W/m 13,4 C 12,1 C 24,1 km/h (4 Bft) 100,00 %
30.05.2016 22:54 15,3 C 88 % 1007,6 hPa 0,0 l/m 17,0 km/h (3 Bft) SW 223 0 min 0,000 mm 0,0 UV-I 0 W/m 13,3 C 10,9 C 22,5 km/h (4 Bft) 96,15 %
30.05.2016 22:55 15,3 C 88 % 1007,7 hPa 0,0 l/m 15,9 km/h (3 Bft) W-SW 254 0 min 0,000 mm 0,0 UV-I 0 W/m 13,3 C 11,3 C 24,1 km/h (4 Bft) 100,00 %
30.05.2016 22:56 15,3 C 89 % 1007,7 hPa 0,2 l/m 16,6 km/h (3 Bft) SW 225 0 min 0,000 mm 0,0 UV-I 0 W/m 13,5 C 11,1 C 22,5 km/h (4 Bft) 95,65 %
30.05.2016 22:57 15,2 C 89 % 1007,6 hPa 0,0 l/m 14,2 km/h (3 Bft) SW 227 0 min 0,000 mm 0,0 UV-I 0 W/m 13,4 C 11,7 C 17,7 km/h (3 Bft) 100,00 %
30.05.2016 22:58 15,2 C 88 % 1007,7 hPa 0,0 l/m 16,7 km/h (3 Bft) W-SW 238 0 min 0,000 mm 0,0 UV-I 0 W/m 13,2 C 10,9 C 24,1 km/h (4 Bft) 96,15 %
30.05.2016 22:59 15,2 C 89 % 1007,7 hPa 0,2 l/m 14,6 km/h (3 Bft) SW 225 0 min 0,000 mm 0,0 UV-I 0 W/m 13,4 C 11,6 C 19,3 km/h (3 Bft) 93,33 %
30.05.2016 23:00 15,1 C 89 % 1007,7 hPa 0,0 l/m 12,7 km/h (3 Bft) SW 231 0 min 0,000 mm 0,0 UV-I 0 W/m 13,3 C 12,1 C 19,3 km/h (3 Bft) 100,00 %
30.05.2016 23:02 15,1 C 89 % 1007,7 hPa 0,0 l/m 17,7 km/h (3 Bft) SW 221 0 min 0,025 mm 0,0 UV-I 0 W/m 13,3 C 10,5 C 25,7 km/h (4 Bft) 95,74 %
30.05.2016 23:03 15,1 C 89 % 1007,8 hPa 0,0 l/m 18,2 km/h (3 Bft) SW 225 0 min 0,000 mm 0,0 UV-I 0 W/m 13,3 C 10,4 C 25,7 km/h (4 Bft) 91,67 %
30.05.2016 23:04 15,1 C 89 % 1007,8 hPa 0,0 l/m 16,4 km/h (3 Bft) SW 236 0 min 0,000 mm 0,0 UV-I 0 W/m 13,3 C 10,9 C 20,9 km/h (4 Bft) 100,00 %
30.05.2016 23:05 15,0 C 90 % 1007,8 hPa 0,0 l/m 14,6 km/h (3 Bft) W-SW 244 0 min 0,000 mm 0,0 UV-I 0 W/m 13,4 C 11,3 C 19,3 km/h (3 Bft) 93,33 %
30.05.2016 23:06 14,9 C 90 % 1007,8 hPa 0,2 l/m 14,6 km/h (3 Bft) W-SW 237 0 min 0,000 mm 0,0 UV-I 0 W/m 13,3 C 11,2 C 20,9 km/h (4 Bft) 100,00 %
30.05.2016 23:07 14,9 C 90 % 1007,8 hPa 0,0 l/m 15,9 km/h (3 Bft) W-SW 237 0 min 0,000 mm 0,0 UV-I 0 W/m 13,3 C 10,8 C 19,3 km/h (3 Bft) 95,65 %
30.05.2016 23:08 14,9 C 90 % 1007,8 hPa 0,0 l/m 19,6 km/h (3 Bft) S-SW 196 0 min 0,000 mm 0,0 UV-I 0 W/m 13,3 C 9,7 C 27,4 km/h (4 Bft) 100,00 %
30.05.2016 23:09 14,9 C 90 % 1007,8 hPa 0,0 l/m 16,3 km/h (3 Bft) W-SW 241 0 min 0,000 mm 0,0 UV-I 0 W/m 13,3 C 10,7 C 20,9 km/h (4 Bft) 96,55 %
30.05.2016 23:10 14,8 C 90 % 1007,8 hPa 0,0 l/m 12,5 km/h (3 Bft) W-SW 254 0 min 0,000 mm 0,0 UV-I 0 W/m 13,2 C 11,8 C 19,3 km/h (3 Bft) 100,00 %
30.05.2016 23:11 14,8 C 90 % 1007,8 hPa 0,0 l/m 15,9 km/h (3 Bft) W-SW 251 0 min 0,000 mm 0,0 UV-I 0 W/m 13,2 C 10,7 C 22,5 km/h (4 Bft) 94,12 %
30.05.2016 23:12 14,8 C 90 % 1007,8 hPa 0,0 l/m 14,1 km/h (3 Bft) W-SW 252 0 min 0,000 mm 0,0 UV-I 0 W/m 13,2 C 11,3 C 17,7 km/h (3 Bft) 93,33 %
30.05.2016 23:13 14,8 C 91 % 1007,9 hPa 0,0 l/m 17,5 km/h (3 Bft) W-SW 250 0 min 0,000 mm 0,0 UV-I 0 W/m 13,3 C 10,2 C 22,5 km/h (4 Bft) 100,00 %
30.05.2016 23:14 14,8 C 91 % 1007,8 hPa 0,0 l/m 20,4 km/h (4 Bft) W-SW 238 0 min 0,000 mm 0,0 UV-I 0 W/m 13,3 C 9,4 C 25,7 km/h (4 Bft) 93,33 %
30.05.2016 23:15 14,8 C 90 % 1007,9 hPa 0,0 l/m 14,6 km/h (3 Bft) S-SW 207 0 min 0,000 mm 0,0 UV-I 0 W/m 13,2 C 11,1 C 20,9 km/h (4 Bft) 96,15 %
30.05.2016 23:16 14,7 C 91 % 1007,9 hPa 0,2 l/m 14,1 km/h (3 Bft) S-SW 205 0 min 0,000 mm 0,0 UV-I 0 W/m 13,2 C 11,1 C 22,5 km/h (4 Bft) 100,00 %
30.05.2016 23:17 14,7 C 91 % 1007,9 hPa 0,0 l/m 15,1 km/h (3 Bft) W 263 0 min 0,000 mm 0,0 UV-I 0 W/m 13,2 C 10,8 C 24,1 km/h (4 Bft) 100,00 %
30.05.2016 23:18 14,7 C 91 % 1007,9 hPa 0,0 l/m 13,0 km/h (3 Bft) W-SW 248 0 min 0,000 mm 0,0 UV-I 0 W/m 13,2 C 11,5 C 17,7 km/h (3 Bft) 96,67 %
30.05.2016 23:19 14,7 C 91 % 1007,9 hPa 0,0 l/m 16,2 km/h (3 Bft) SW 222 0 min 0,000 mm 0,0 UV-I 0 W/m 13,2 C 10,4 C 24,1 km/h (4 Bft) 95,65 %
30.05.2016 23:20 14,7 C 91 % 1007,9 hPa 0,0 l/m 12,9 km/h (3 Bft) SW 221 0 min 0,000 mm 0,0 UV-I 0 W/m 13,2 C 11,6 C 17,7 km/h (3 Bft) 100,00 %
30.05.2016 23:21 14,7 C 91 % 1008,0 hPa 0,0 l/m 10,8 km/h (2 Bft) SW 223 0 min 0,000 mm 0,0 UV-I 0 W/m 13,2 C 12,4 C 16,1 km/h (3 Bft) 100,00 %
30.05.2016 23:22 14,7 C 91 % 1008,0 hPa 0,0 l/m 14,9 km/h (3 Bft) W-SW 241 0 min 0,000 mm 0,0 UV-I 0 W/m 13,2 C 10,9 C 22,5 km/h (4 Bft) 100,00 %
30.05.2016 23:23 14,7 C 91 % 1008,0 hPa 0,0 l/m 13,8 km/h (3 Bft) SW 234 0 min 0,000 mm 0,0 UV-I 0 W/m 13,2 C 11,2 C 19,3 km/h (3 Bft) 100,00 %
30.05.2016 23:24 14,7 C 91 % 1008,0 hPa 0,0 l/m 19,5 km/h (3 Bft) W-SW 245 0 min 0,000 mm 0,0 UV-I 0 W/m 13,2 C 9,5 C 25,7 km/h (4 Bft) 100,00 %
30.05.2016 23:25 14,7 C 91 % 1008,0 hPa 0,0 l/m 15,9 km/h (3 Bft) SW 225 0 min 0,000 mm 0,0 UV-I 0 W/m 13,2 C 10,5 C 20,9 km/h (4 Bft) 100,00 %
30.05.2016 23:26 14,6 C 91 % 1008,0 hPa 0,0 l/m 13,2 km/h (3 Bft) W-SW 240 0 min 0,000 mm 0,0 UV-I 0 W/m 13,1 C 11,3 C 16,1 km/h (3 Bft) 100,00 %
30.05.2016 23:27 14,6 C 92 % 1008,0 hPa 0,0 l/m 9,7 km/h (2 Bft) SW 224 0 min 0,000 mm 0,0 UV-I 0 W/m 13,3 C 12,8 C 19,3 km/h (3 Bft) 100,00 %
30.05.2016 23:28 14,6 C 92 % 1008,0 hPa 0,0 l/m 16,0 km/h (3 Bft) S-SW 213 0 min 0,000 mm 0,0 UV-I 0 W/m 13,3 C 10,4 C 20,9 km/h (4 Bft) 93,33 %
30.05.2016 23:29 14,6 C 92 % 1008,1 hPa 0,0 l/m 11,3 km/h (2 Bft) SW 230 0 min 0,000 mm 0,0 UV-I 0 W/m 13,3 C 12,1 C 16,1 km/h (3 Bft) 96,30 %
30.05.2016 23:30 14,6 C 92 % 1008,1 hPa 0,2 l/m 11,5 km/h (2 Bft) S 190 0 min 0,000 mm 0,0 UV-I 0 W/m 13,3 C 12,0 C 19,3 km/h (3 Bft) 100,00 %
30.05.2016 23:31 14,6 C 92 % 1008,0 hPa 0,0 l/m 10,7 km/h (2 Bft) SW 236 0 min 0,000 mm 0,0 UV-I 0 W/m 13,3 C 12,4 C 14,5 km/h (3 Bft) 100,00 %
30.05.2016 23:32 14,6 C 92 % 1008,1 hPa 0,0 l/m 11,6 km/h (2 Bft) W-SW 246 0 min 0,000 mm 0,0 UV-I 0 W/m 13,3 C 12,0 C 17,7 km/h (3 Bft) 100,00 %
30.05.2016 23:33 14,6 C 92 % 1008,1 hPa 0,2 l/m 10,5 km/h (2 Bft) S-SW 208 0 min 0,000 mm 0,0 UV-I 0 W/m 13,3 C 12,4 C 16,1 km/h (3 Bft) 100,00 %
30.05.2016 23:34 14,6 C 92 % 1008,1 hPa 0,0 l/m 9,7 km/h (2 Bft) SW 235 0 min 0,000 mm 0,0 UV-I 0 W/m 13,3 C 12,8 C 14,5 km/h (3 Bft) 100,00 %
30.05.2016 23:35 14,5 C 92 % 1008,1 hPa 0,0 l/m 12,3 km/h (3 Bft) SW 220 0 min 0,000 mm 0,0 UV-I 0 W/m 13,2 C 11,6 C 19,3 km/h (3 Bft) 100,00 %
30.05.2016 23:36 14,5 C 92 % 1008,1 hPa 0,0 l/m 11,5 km/h (2 Bft) S-SW 192 0 min 0,000 mm 0,0 UV-I 0 W/m 13,2 C 11,9 C 17,7 km/h (3 Bft) 94,12 %
30.05.2016 23:37 14,5 C 92 % 1008,2 hPa 0,0 l/m 11,7 km/h (2 Bft) S 183 0 min 0,000 mm 0,0 UV-I 0 W/m 13,2 C 11,8 C 16,1 km/h (3 Bft) 100,00 %
30.05.2016 23:38 14,5 C 92 % 1008,2 hPa 0,0 l/m 11,6 km/h (2 Bft) SW 231 0 min 0,000 mm 0,0 UV-I 0 W/m 13,2 C 11,9 C 17,7 km/h (3 Bft) 100,00 %
30.05.2016 23:39 14,4 C 92 % 1008,2 hPa 0,2 l/m 9,8 km/h (2 Bft) S-SW 205 0 min 0,000 mm 0,0 UV-I 0 W/m 13,1 C 12,5 C 16,1 km/h (3 Bft) 100,00 %
30.05.2016 23:40 14,4 C 92 % 1008,2 hPa 0,0 l/m 7,5 km/h (2 Bft) S 188 0 min 0,000 mm 0,0 UV-I 0 W/m 13,1 C 13,8 C 11,3 km/h (2 Bft) 100,00 %
30.05.2016 23:41 14,4 C 93 % 1008,2 hPa 0,0 l/m 9,9 km/h (2 Bft) S 180 0 min 0,000 mm 0,0 UV-I 0 W/m 13,3 C 12,5 C 12,9 km/h (3 Bft) 100,00 %
30.05.2016 23:42 14,4 C 93 % 1008,2 hPa 0,2 l/m 13,0 km/h (3 Bft) SW 234 0 min 0,000 mm 0,0 UV-I 0 W/m 13,3 C 11,2 C 16,1 km/h (3 Bft) 100,00 %
30.05.2016 23:43 14,4 C 93 % 1008,2 hPa 0,0 l/m 9,7 km/h (2 Bft) S-SW 199 0 min 0,000 mm 0,0 UV-I 0 W/m 13,3 C 12,6 C 12,9 km/h (3 Bft) 100,00 %
30.05.2016 23:44 14,4 C 93 % 1008,3 hPa 0,0 l/m 11,3 km/h (2 Bft) SW 225 0 min 0,000 mm 0,0 UV-I 0 W/m 13,3 C 11,9 C 16,1 km/h (3 Bft) 96,30 %
30.05.2016 23:45 14,4 C 93 % 1008,3 hPa 0,0 l/m 10,2 km/h (2 Bft) SW 215 0 min 0,000 mm 0,0 UV-I 0 W/m 13,3 C 12,4 C 16,1 km/h (3 Bft) 100,00 %
30.05.2016 23:46 14,4 C 93 % 1008,3 hPa 0,2 l/m 7,6 km/h (2 Bft) S-SW 202 0 min 0,000 mm 0,0 UV-I 0 W/m 13,3 C 13,7 C 14,5 km/h (3 Bft) 95,83 %
30.05.2016 23:47 14,4 C 93 % 1008,3 hPa 0,0 l/m 6,1 km/h (2 Bft) S-SW 197 0 min 0,000 mm 0,0 UV-I 0 W/m 13,3 C 14,4 C 8,0 km/h (2 Bft) 95,65 %
30.05.2016 23:48 14,4 C 93 % 1008,3 hPa 0,2 l/m 13,4 km/h (3 Bft) S 180 0 min 0,000 mm 0,0 UV-I 0 W/m 13,3 C 11,0 C 17,7 km/h (3 Bft) 96,30 %
30.05.2016 23:49 14,4 C 93 % 1008,3 hPa 0,0 l/m 8,9 km/h (2 Bft) S-SW 197 0 min 0,000 mm 0,0 UV-I 0 W/m 13,3 C 13,0 C 12,9 km/h (3 Bft) 100,00 %
30.05.2016 23:50 14,4 C 93 % 1008,3 hPa 0,0 l/m 14,3 km/h (3 Bft) S-SW 205 0 min 0,000 mm 0,0 UV-I 0 W/m 13,3 C 10,7 C 17,7 km/h (3 Bft) 100,00 %
30.05.2016 23:51 14,4 C 93 % 1008,4 hPa 0,2 l/m 13,0 km/h (3 Bft) SW 224 0 min 0,000 mm 0,0 UV-I 0 W/m 13,3 C 11,2 C 16,1 km/h (3 Bft) 100,00 %
30.05.2016 23:52 14,4 C 93 % 1008,3 hPa 0,0 l/m 12,7 km/h (3 Bft) S-SW 194 0 min 0,000 mm 0,0 UV-I 0 W/m 13,3 C 11,3 C 17,7 km/h (3 Bft) 100,00 %
30.05.2016 23:53 14,4 C 93 % 1008,4 hPa 0,0 l/m 13,2 km/h (3 Bft) S-SW 203 0 min 0,000 mm 0,0 UV-I 0 W/m 13,3 C 11,1 C 16,1 km/h (3 Bft) 100,00 %
30.05.2016 23:54 14,4 C 94 % 1008,4 hPa 0,2 l/m 9,9 km/h (2 Bft) S-SW 212 0 min 0,000 mm 0,0 UV-I 0 W/m 13,4 C 12,5 C 17,7 km/h (3 Bft) 100,00 %
30.05.2016 23:55 14,4 C 94 % 1008,4 hPa 0,0 l/m 9,2 km/h (2 Bft) S 191 0 min 0,000 mm 0,0 UV-I 0 W/m 13,4 C 12,8 C 12,9 km/h (3 Bft) 100,00 %
30.05.2016 23:56 14,4 C 93 % 1008,4 hPa 0,0 l/m 11,8 km/h (2 Bft) S-SW 194 0 min 0,000 mm 0,0 UV-I 0 W/m 13,3 C 11,7 C 16,1 km/h (3 Bft) 100,00 %
30.05.2016 23:57 14,3 C 93 % 1008,4 hPa 0,0 l/m 9,5 km/h (2 Bft) W 281 0 min 0,000 mm 0,0 UV-I 0 W/m 13,2 C 12,6 C 14,5 km/h (3 Bft) 95,65 %
30.05.2016 23:58 14,3 C 93 % 1008,4 hPa 0,2 l/m 8,3 km/h (2 Bft) SW 216 0 min 0,000 mm 0,0 UV-I 0 W/m 13,2 C 13,2 C 14,5 km/h (3 Bft) 92,59 %
30.05.2016 23:59 14,3 C 93 % 1008,4 hPa 0,0 l/m 9,3 km/h (2 Bft) SW 223 0 min 0,000 mm 0,0 UV-I 0 W/m 13,2 C 12,7 C 11,3 km/h (2 Bft) 100,00 %
_ Min-Zeit 03:11 16:57 00:00 - 02:04 - - - - - - 06:22 23:14 02:04 12:40
Minimum _ 14,3 C 60 % 1003,1 hPa - 0,0 km/h (0 Bft) - - - - - - 12,5 C 9,4 C 0,0 km/h (0 Bft) 50,00 %
_ Max-Zeit 15:02 23:54 23:51 22:44 23:14 - - 18:20 15:02 11:38 11:40 15:02 15:03 22:26 00:00
Maximum _ 21,9 C 94 % 1008,4 hPa 0,2 l/m 20,4 km/h
W-SW (4 Bft)
- - 3 min 0,432 mm 7,0 UV-I 1206 W/m 15,5 C 21,9 C 27,4 km/h
W (4 Bft)
100,00 %
Durchschnitt _ 17,4 C 79 % 1005,2 hPa #2,8 l/m 6,6 km/h (2 Bft) SW - #5:47 h #3,124 mm 2,5 UV-I 308 W/m 13,6 C 16,8 C 9,8 km/h (2 Bft) 96,40 %